<?xml version="1.0" encoding="UTF-8" standalone="no" ?>
<gpx xmlns="http://www.topografix.com/GPX/1/1" xmlns:xsi="http://www.w3.org/2001/XMLSchema-instance" xsi:schemaLocation="http://www.topografix.com/GPX/1/1 http://www.topografix.com/GPX/1/1/gpx.xsd" version="1.1" creator="VisuGPX - https://www.visugpx.com">
  <metadata>
    <name>Marche de la fourme</name>
    <desc><![CDATA[Marche de la fourme 2019 de 42 kilomètres reliant valeyre (Ambert 63) à Montbrison (loire 42) organisée par les randonneurs montbrison.
Cette marche en ligne se réalise chaque année le 1er samedi d'octobre pour les amateurs de rando sympa :).]]></desc>
  </metadata>
  <wpt lat="45.54658" lon="3.77455">
    <ele>635.060263</ele>
    <name><![CDATA[Début]]></name>
  </wpt>
  <wpt lat="45.60792" lon="4.06839">
    <ele>390.225172</ele>
    <name><![CDATA[Fin]]></name>
  </wpt>
  <trk>
    <name><![CDATA[Marche de la fourme]]></name>
    <trkseg>
      <trkpt lat="45.54658" lon="3.77455">
        <ele>635.060263</ele>
        <time>2019-10-05T05:53:33.1000Z</time>
      </trkpt>
      <trkpt lat="45.54677" lon="3.77458">
        <ele>636.5012</ele>
        <time>2019-10-05T05:53:49.0830Z</time>
      </trkpt>
      <trkpt lat="45.54695" lon="3.77464">
        <ele>636.992004</ele>
        <time>2019-10-05T05:54:05.0790Z</time>
      </trkpt>
      <trkpt lat="45.54711" lon="3.77477">
        <ele>637.813817</ele>
        <time>2019-10-05T05:54:22.0570Z</time>
      </trkpt>
      <trkpt lat="45.54728" lon="3.77485">
        <ele>639.230229</ele>
        <time>2019-10-05T05:54:38.0740Z</time>
      </trkpt>
      <trkpt lat="45.54746" lon="3.77492">
        <ele>639.886669</ele>
        <time>2019-10-05T05:54:53.0570Z</time>
      </trkpt>
      <trkpt lat="45.54763" lon="3.775">
        <ele>641.251201</ele>
        <time>2019-10-05T05:55:10.0790Z</time>
      </trkpt>
      <trkpt lat="45.54777" lon="3.77517">
        <ele>642.634349</ele>
        <time>2019-10-05T05:55:26.0740Z</time>
      </trkpt>
      <trkpt lat="45.54791" lon="3.77536">
        <ele>643.606709</ele>
        <time>2019-10-05T05:55:43.0800Z</time>
      </trkpt>
      <trkpt lat="45.54806" lon="3.7755">
        <ele>645.51802</ele>
        <time>2019-10-05T05:56:01.0890Z</time>
      </trkpt>
      <trkpt lat="45.54817" lon="3.77572">
        <ele>647.152097</ele>
        <time>2019-10-05T05:56:17.0910Z</time>
      </trkpt>
      <trkpt lat="45.54828" lon="3.77593">
        <ele>648.792502</ele>
        <time>2019-10-05T05:56:34.1150Z</time>
      </trkpt>
      <trkpt lat="45.54845" lon="3.77604">
        <ele>650.33893</ele>
        <time>2019-10-05T05:56:48.0870Z</time>
      </trkpt>
      <trkpt lat="45.54861" lon="3.77616">
        <ele>651.733225</ele>
        <time>2019-10-05T05:57:03.0820Z</time>
      </trkpt>
      <trkpt lat="45.54878" lon="3.77628">
        <ele>653.432737</ele>
        <time>2019-10-05T05:57:19.0870Z</time>
      </trkpt>
      <trkpt lat="45.54893" lon="3.77643">
        <ele>654.663987</ele>
        <time>2019-10-05T05:57:34.1030Z</time>
      </trkpt>
      <trkpt lat="45.54909" lon="3.77657">
        <ele>656.316863</ele>
        <time>2019-10-05T05:57:49.0860Z</time>
      </trkpt>
      <trkpt lat="45.54926" lon="3.77665">
        <ele>656.043213</ele>
        <time>2019-10-05T05:58:03.0640Z</time>
      </trkpt>
      <trkpt lat="45.54944" lon="3.77666">
        <ele>656.588331</ele>
        <time>2019-10-05T05:58:16.0740Z</time>
      </trkpt>
      <trkpt lat="45.5496" lon="3.77654">
        <ele>656.745867</ele>
        <time>2019-10-05T05:58:29.0870Z</time>
      </trkpt>
      <trkpt lat="45.54973" lon="3.77635">
        <ele>656.296267</ele>
        <time>2019-10-05T05:58:42.0910Z</time>
      </trkpt>
      <trkpt lat="45.54984" lon="3.77615">
        <ele>656.149514</ele>
        <time>2019-10-05T05:58:55.0590Z</time>
      </trkpt>
      <trkpt lat="45.54998" lon="3.77597">
        <ele>656.234447</ele>
        <time>2019-10-05T05:59:08.0810Z</time>
      </trkpt>
      <trkpt lat="45.55017" lon="3.77602">
        <ele>656.506748</ele>
        <time>2019-10-05T05:59:23.0840Z</time>
      </trkpt>
      <trkpt lat="45.55034" lon="3.7761">
        <ele>656.974605</ele>
        <time>2019-10-05T05:59:35.0900Z</time>
      </trkpt>
      <trkpt lat="45.55051" lon="3.77602">
        <ele>656.712821</ele>
        <time>2019-10-05T05:59:48.0870Z</time>
      </trkpt>
      <trkpt lat="45.55042" lon="3.77578">
        <ele>656.133754</ele>
        <time>2019-10-05T06:00:01.0560Z</time>
      </trkpt>
      <trkpt lat="45.55055" lon="3.7756">
        <ele>660.89682</ele>
        <time>2019-10-05T06:00:27.0740Z</time>
      </trkpt>
      <trkpt lat="45.55074" lon="3.77562">
        <ele>663.406703</ele>
        <time>2019-10-05T06:00:44.1130Z</time>
      </trkpt>
      <trkpt lat="45.55091" lon="3.77555">
        <ele>666.03821</ele>
        <time>2019-10-05T06:01:01.0920Z</time>
      </trkpt>
      <trkpt lat="45.55107" lon="3.77542">
        <ele>667.1708</ele>
        <time>2019-10-05T06:01:17.0910Z</time>
      </trkpt>
      <trkpt lat="45.55122" lon="3.77559">
        <ele>666.899857</ele>
        <time>2019-10-05T06:01:36.0930Z</time>
      </trkpt>
      <trkpt lat="45.55127" lon="3.77584">
        <ele>667.132885</ele>
        <time>2019-10-05T06:01:50.0850Z</time>
      </trkpt>
      <trkpt lat="45.55127" lon="3.77611">
        <ele>667.875541</ele>
        <time>2019-10-05T06:02:03.0940Z</time>
      </trkpt>
      <trkpt lat="45.55125" lon="3.77636">
        <ele>668.329265</ele>
        <time>2019-10-05T06:02:15.0930Z</time>
      </trkpt>
      <trkpt lat="45.55127" lon="3.77663">
        <ele>669.486519</ele>
        <time>2019-10-05T06:02:28.0910Z</time>
      </trkpt>
      <trkpt lat="45.55133" lon="3.77688">
        <ele>670.576488</ele>
        <time>2019-10-05T06:02:41.0900Z</time>
      </trkpt>
      <trkpt lat="45.55149" lon="3.77702">
        <ele>674.263523</ele>
        <time>2019-10-05T06:02:59.0860Z</time>
      </trkpt>
      <trkpt lat="45.55167" lon="3.77702">
        <ele>677.291348</ele>
        <time>2019-10-05T06:03:13.0590Z</time>
      </trkpt>
      <trkpt lat="45.55185" lon="3.77704">
        <ele>680.141208</ele>
        <time>2019-10-05T06:03:29.0910Z</time>
      </trkpt>
      <trkpt lat="45.55202" lon="3.77715">
        <ele>683.096185</ele>
        <time>2019-10-05T06:03:45.0900Z</time>
      </trkpt>
      <trkpt lat="45.5522" lon="3.77723">
        <ele>686.052066</ele>
        <time>2019-10-05T06:04:02.0870Z</time>
      </trkpt>
      <trkpt lat="45.55238" lon="3.77731">
        <ele>689.154781</ele>
        <time>2019-10-05T06:04:19.0950Z</time>
      </trkpt>
      <trkpt lat="45.55256" lon="3.77731">
        <ele>692.45494</ele>
        <time>2019-10-05T06:04:34.1000Z</time>
      </trkpt>
      <trkpt lat="45.55274" lon="3.77727">
        <ele>695.069265</ele>
        <time>2019-10-05T06:04:51.0910Z</time>
      </trkpt>
      <trkpt lat="45.55292" lon="3.77726">
        <ele>697.681266</ele>
        <time>2019-10-05T06:05:08.0930Z</time>
      </trkpt>
      <trkpt lat="45.55311" lon="3.77727">
        <ele>701.69716</ele>
        <time>2019-10-05T06:05:28.0930Z</time>
      </trkpt>
      <trkpt lat="45.55329" lon="3.7773">
        <ele>704.145059</ele>
        <time>2019-10-05T06:05:43.1250Z</time>
      </trkpt>
      <trkpt lat="45.55347" lon="3.77723">
        <ele>707.361777</ele>
        <time>2019-10-05T06:06:01.0900Z</time>
      </trkpt>
      <trkpt lat="45.55365" lon="3.7772">
        <ele>709.473278</ele>
        <time>2019-10-05T06:06:18.0900Z</time>
      </trkpt>
      <trkpt lat="45.55383" lon="3.77721">
        <ele>712.405132</ele>
        <time>2019-10-05T06:06:37.0910Z</time>
      </trkpt>
      <trkpt lat="45.55401" lon="3.77724">
        <ele>714.913559</ele>
        <time>2019-10-05T06:06:53.0870Z</time>
      </trkpt>
      <trkpt lat="45.55419" lon="3.77727">
        <ele>718.099615</ele>
        <time>2019-10-05T06:07:11.0940Z</time>
      </trkpt>
      <trkpt lat="45.55437" lon="3.77731">
        <ele>721.142442</ele>
        <time>2019-10-05T06:07:29.0620Z</time>
      </trkpt>
      <trkpt lat="45.55455" lon="3.77738">
        <ele>724.855315</ele>
        <time>2019-10-05T06:07:49.0580Z</time>
      </trkpt>
      <trkpt lat="45.55473" lon="3.77742">
        <ele>727.980509</ele>
        <time>2019-10-05T06:08:07.0890Z</time>
      </trkpt>
      <trkpt lat="45.55492" lon="3.77746">
        <ele>730.489185</ele>
        <time>2019-10-05T06:08:23.0750Z</time>
      </trkpt>
      <trkpt lat="45.55502" lon="3.77768">
        <ele>734.781004</ele>
        <time>2019-10-05T06:08:46.0930Z</time>
      </trkpt>
      <trkpt lat="45.55485" lon="3.77776">
        <ele>738.807105</ele>
        <time>2019-10-05T06:09:09.0960Z</time>
      </trkpt>
      <trkpt lat="45.55467" lon="3.77779">
        <ele>741.189035</ele>
        <time>2019-10-05T06:09:26.0940Z</time>
      </trkpt>
      <trkpt lat="45.55451" lon="3.77793">
        <ele>744.207882</ele>
        <time>2019-10-05T06:09:44.0960Z</time>
      </trkpt>
      <trkpt lat="45.55434" lon="3.77802">
        <ele>747.062896</ele>
        <time>2019-10-05T06:10:01.0940Z</time>
      </trkpt>
      <trkpt lat="45.55416" lon="3.77808">
        <ele>750.056846</ele>
        <time>2019-10-05T06:10:18.0860Z</time>
      </trkpt>
      <trkpt lat="45.554" lon="3.77821">
        <ele>752.572945</ele>
        <time>2019-10-05T06:10:35.0930Z</time>
      </trkpt>
      <trkpt lat="45.55386" lon="3.77837">
        <ele>755.553383</ele>
        <time>2019-10-05T06:10:51.0910Z</time>
      </trkpt>
      <trkpt lat="45.55374" lon="3.77856">
        <ele>758.253629</ele>
        <time>2019-10-05T06:11:06.0910Z</time>
      </trkpt>
      <trkpt lat="45.5536" lon="3.77874">
        <ele>761.762717</ele>
        <time>2019-10-05T06:11:24.1100Z</time>
      </trkpt>
      <trkpt lat="45.55347" lon="3.77893">
        <ele>764.247498</ele>
        <time>2019-10-05T06:11:42.0890Z</time>
      </trkpt>
      <trkpt lat="45.5534" lon="3.77917">
        <ele>767.435391</ele>
        <time>2019-10-05T06:12:01.0940Z</time>
      </trkpt>
      <trkpt lat="45.55328" lon="3.77938">
        <ele>770.240137</ele>
        <time>2019-10-05T06:12:19.0930Z</time>
      </trkpt>
      <trkpt lat="45.55319" lon="3.77961">
        <ele>773.309659</ele>
        <time>2019-10-05T06:12:37.0900Z</time>
      </trkpt>
      <trkpt lat="45.55311" lon="3.77986">
        <ele>775.958932</ele>
        <time>2019-10-05T06:12:56.0960Z</time>
      </trkpt>
      <trkpt lat="45.55306" lon="3.78011">
        <ele>778.626983</ele>
        <time>2019-10-05T06:13:13.0940Z</time>
      </trkpt>
      <trkpt lat="45.55295" lon="3.78035">
        <ele>780.634089</ele>
        <time>2019-10-05T06:15:15.0610Z</time>
      </trkpt>
      <trkpt lat="45.55289" lon="3.7806">
        <ele>784.634386</ele>
        <time>2019-10-05T06:15:38.0800Z</time>
      </trkpt>
      <trkpt lat="45.55288" lon="3.78087">
        <ele>788.634317</ele>
        <time>2019-10-05T06:15:58.0900Z</time>
      </trkpt>
      <trkpt lat="45.55286" lon="3.78113">
        <ele>791.722262</ele>
        <time>2019-10-05T06:16:15.0920Z</time>
      </trkpt>
      <trkpt lat="45.5528" lon="3.78138">
        <ele>794.897064</ele>
        <time>2019-10-05T06:16:32.0820Z</time>
      </trkpt>
      <trkpt lat="45.55275" lon="3.78163">
        <ele>797.380103</ele>
        <time>2019-10-05T06:16:51.0940Z</time>
      </trkpt>
      <trkpt lat="45.55271" lon="3.7819">
        <ele>800.266722</ele>
        <time>2019-10-05T06:17:08.0840Z</time>
      </trkpt>
      <trkpt lat="45.55273" lon="3.78216">
        <ele>803.642233</ele>
        <time>2019-10-05T06:17:25.0930Z</time>
      </trkpt>
      <trkpt lat="45.55276" lon="3.78243">
        <ele>807.374797</ele>
        <time>2019-10-05T06:17:45.0880Z</time>
      </trkpt>
      <trkpt lat="45.5528" lon="3.78268">
        <ele>809.631236</ele>
        <time>2019-10-05T06:18:01.0890Z</time>
      </trkpt>
      <trkpt lat="45.55279" lon="3.78295">
        <ele>812.092754</ele>
        <time>2019-10-05T06:18:17.0950Z</time>
      </trkpt>
      <trkpt lat="45.55277" lon="3.78321">
        <ele>813.307076</ele>
        <time>2019-10-05T06:18:31.0790Z</time>
      </trkpt>
      <trkpt lat="45.55281" lon="3.78346">
        <ele>813.526286</ele>
        <time>2019-10-05T06:18:44.0660Z</time>
      </trkpt>
      <trkpt lat="45.5528" lon="3.78374">
        <ele>813.172053</ele>
        <time>2019-10-05T06:18:57.0650Z</time>
      </trkpt>
      <trkpt lat="45.55274" lon="3.78399">
        <ele>813.652774</ele>
        <time>2019-10-05T06:19:11.0950Z</time>
      </trkpt>
      <trkpt lat="45.55274" lon="3.78425">
        <ele>814.915697</ele>
        <time>2019-10-05T06:19:26.0890Z</time>
      </trkpt>
      <trkpt lat="45.55274" lon="3.78451">
        <ele>817.044986</ele>
        <time>2019-10-05T06:19:37.0940Z</time>
      </trkpt>
      <trkpt lat="45.55283" lon="3.78474">
        <ele>819.27121</ele>
        <time>2019-10-05T06:19:50.0800Z</time>
      </trkpt>
      <trkpt lat="45.55296" lon="3.78494">
        <ele>822.367597</ele>
        <time>2019-10-05T06:20:07.0850Z</time>
      </trkpt>
      <trkpt lat="45.55303" lon="3.78519">
        <ele>824.309598</ele>
        <time>2019-10-05T06:20:20.0880Z</time>
      </trkpt>
      <trkpt lat="45.55305" lon="3.78545">
        <ele>827.986508</ele>
        <time>2019-10-05T06:20:36.0870Z</time>
      </trkpt>
      <trkpt lat="45.55308" lon="3.78572">
        <ele>830.850864</ele>
        <time>2019-10-05T06:20:55.0920Z</time>
      </trkpt>
      <trkpt lat="45.55312" lon="3.78598">
        <ele>833.568776</ele>
        <time>2019-10-05T06:21:10.0920Z</time>
      </trkpt>
      <trkpt lat="45.55315" lon="3.78624">
        <ele>836.228502</ele>
        <time>2019-10-05T06:21:23.0940Z</time>
      </trkpt>
      <trkpt lat="45.55317" lon="3.7865">
        <ele>839.600777</ele>
        <time>2019-10-05T06:21:39.0950Z</time>
      </trkpt>
      <trkpt lat="45.55322" lon="3.78676">
        <ele>842.566101</ele>
        <time>2019-10-05T06:21:56.0880Z</time>
      </trkpt>
      <trkpt lat="45.55327" lon="3.7865">
        <ele>844.934073</ele>
        <time>2019-10-05T06:22:41.0900Z</time>
      </trkpt>
      <trkpt lat="45.55334" lon="3.78625">
        <ele>845.034503</ele>
        <time>2019-10-05T06:22:55.0920Z</time>
      </trkpt>
      <trkpt lat="45.55341" lon="3.78601">
        <ele>845.461788</ele>
        <time>2019-10-05T06:23:07.0930Z</time>
      </trkpt>
      <trkpt lat="45.55343" lon="3.78574">
        <ele>847.042801</ele>
        <time>2019-10-05T06:23:20.0910Z</time>
      </trkpt>
      <trkpt lat="45.5535" lon="3.78549">
        <ele>847.848441</ele>
        <time>2019-10-05T06:23:36.0830Z</time>
      </trkpt>
      <trkpt lat="45.5535" lon="3.78522">
        <ele>849.378735</ele>
        <time>2019-10-05T06:23:49.0860Z</time>
      </trkpt>
      <trkpt lat="45.55359" lon="3.78498">
        <ele>852.815507</ele>
        <time>2019-10-05T06:24:08.0840Z</time>
      </trkpt>
      <trkpt lat="45.55363" lon="3.78472">
        <ele>853.140418</ele>
        <time>2019-10-05T06:24:20.0910Z</time>
      </trkpt>
      <trkpt lat="45.55378" lon="3.78455">
        <ele>855.858992</ele>
        <time>2019-10-05T06:24:37.0830Z</time>
      </trkpt>
      <trkpt lat="45.55396" lon="3.78458">
        <ele>861.349173</ele>
        <time>2019-10-05T06:25:06.0830Z</time>
      </trkpt>
      <trkpt lat="45.55409" lon="3.78477">
        <ele>865.826899</ele>
        <time>2019-10-05T06:25:29.0930Z</time>
      </trkpt>
      <trkpt lat="45.55422" lon="3.78495">
        <ele>869.04033</ele>
        <time>2019-10-05T06:25:48.0890Z</time>
      </trkpt>
      <trkpt lat="45.55437" lon="3.78511">
        <ele>872.30417</ele>
        <time>2019-10-05T06:26:04.1030Z</time>
      </trkpt>
      <trkpt lat="45.55447" lon="3.78533">
        <ele>875.732927</ele>
        <time>2019-10-05T06:26:21.0940Z</time>
      </trkpt>
      <trkpt lat="45.55454" lon="3.78557">
        <ele>878.392694</ele>
        <time>2019-10-05T06:26:36.0890Z</time>
      </trkpt>
      <trkpt lat="45.55462" lon="3.7858">
        <ele>880.199997</ele>
        <time>2019-10-05T06:26:52.0840Z</time>
      </trkpt>
      <trkpt lat="45.55473" lon="3.78601">
        <ele>883.228118</ele>
        <time>2019-10-05T06:27:09.0950Z</time>
      </trkpt>
      <trkpt lat="45.55484" lon="3.78623">
        <ele>885.745075</ele>
        <time>2019-10-05T06:27:26.0910Z</time>
      </trkpt>
      <trkpt lat="45.55493" lon="3.78646">
        <ele>888.819822</ele>
        <time>2019-10-05T06:27:43.0880Z</time>
      </trkpt>
      <trkpt lat="45.55502" lon="3.78669">
        <ele>890.93719</ele>
        <time>2019-10-05T06:27:58.0910Z</time>
      </trkpt>
      <trkpt lat="45.55512" lon="3.78691">
        <ele>892.632693</ele>
        <time>2019-10-05T06:28:14.1110Z</time>
      </trkpt>
      <trkpt lat="45.55528" lon="3.78707">
        <ele>895.282921</ele>
        <time>2019-10-05T06:28:29.0960Z</time>
      </trkpt>
      <trkpt lat="45.55547" lon="3.78708">
        <ele>897.013654</ele>
        <time>2019-10-05T06:28:56.0850Z</time>
      </trkpt>
      <trkpt lat="45.55565" lon="3.78716">
        <ele>898.463213</ele>
        <time>2019-10-05T06:29:13.0780Z</time>
      </trkpt>
      <trkpt lat="45.55583" lon="3.78726">
        <ele>899.641639</ele>
        <time>2019-10-05T06:29:29.0970Z</time>
      </trkpt>
      <trkpt lat="45.556" lon="3.78735">
        <ele>901.324985</ele>
        <time>2019-10-05T06:29:44.0860Z</time>
      </trkpt>
      <trkpt lat="45.55616" lon="3.78748">
        <ele>902.074157</ele>
        <time>2019-10-05T06:29:59.0590Z</time>
      </trkpt>
      <trkpt lat="45.55629" lon="3.78769">
        <ele>902.7767</ele>
        <time>2019-10-05T06:30:14.0830Z</time>
      </trkpt>
      <trkpt lat="45.55642" lon="3.78788">
        <ele>901.972207</ele>
        <time>2019-10-05T06:30:27.0850Z</time>
      </trkpt>
      <trkpt lat="45.55656" lon="3.78806">
        <ele>900.584482</ele>
        <time>2019-10-05T06:30:41.0880Z</time>
      </trkpt>
      <trkpt lat="45.5567" lon="3.78822">
        <ele>900.075563</ele>
        <time>2019-10-05T06:30:54.0930Z</time>
      </trkpt>
      <trkpt lat="45.55687" lon="3.78833">
        <ele>899.717614</ele>
        <time>2019-10-05T06:31:06.0770Z</time>
      </trkpt>
      <trkpt lat="45.55705" lon="3.78841">
        <ele>900.220759</ele>
        <time>2019-10-05T06:31:19.0910Z</time>
      </trkpt>
      <trkpt lat="45.55722" lon="3.78852">
        <ele>901.209539</ele>
        <time>2019-10-05T06:31:33.0920Z</time>
      </trkpt>
      <trkpt lat="45.55739" lon="3.78863">
        <ele>901.500815</ele>
        <time>2019-10-05T06:31:47.0890Z</time>
      </trkpt>
      <trkpt lat="45.55757" lon="3.78871">
        <ele>902.544637</ele>
        <time>2019-10-05T06:32:01.0900Z</time>
      </trkpt>
      <trkpt lat="45.55773" lon="3.78882">
        <ele>904.08553</ele>
        <time>2019-10-05T06:32:16.0920Z</time>
      </trkpt>
      <trkpt lat="45.55791" lon="3.78891">
        <ele>905.899631</ele>
        <time>2019-10-05T06:32:32.0950Z</time>
      </trkpt>
      <trkpt lat="45.5581" lon="3.78897">
        <ele>908.212611</ele>
        <time>2019-10-05T06:32:48.0890Z</time>
      </trkpt>
      <trkpt lat="45.55829" lon="3.78897">
        <ele>910.404983</ele>
        <time>2019-10-05T06:33:04.2190Z</time>
      </trkpt>
      <trkpt lat="45.55847" lon="3.789">
        <ele>912.665944</ele>
        <time>2019-10-05T06:33:20.0750Z</time>
      </trkpt>
      <trkpt lat="45.55865" lon="3.78909">
        <ele>914.07751</ele>
        <time>2019-10-05T06:33:36.0910Z</time>
      </trkpt>
      <trkpt lat="45.5588" lon="3.78925">
        <ele>914.695567</ele>
        <time>2019-10-05T06:33:51.0760Z</time>
      </trkpt>
      <trkpt lat="45.55895" lon="3.78937">
        <ele>916.2561</ele>
        <time>2019-10-05T06:34:06.0920Z</time>
      </trkpt>
      <trkpt lat="45.55911" lon="3.78953">
        <ele>918.43979</ele>
        <time>2019-10-05T06:34:23.0740Z</time>
      </trkpt>
      <trkpt lat="45.55926" lon="3.78968">
        <ele>920.624337</ele>
        <time>2019-10-05T06:34:40.0880Z</time>
      </trkpt>
      <trkpt lat="45.55937" lon="3.7899">
        <ele>924.085812</ele>
        <time>2019-10-05T06:35:00.0850Z</time>
      </trkpt>
      <trkpt lat="45.55952" lon="3.79005">
        <ele>926.739511</ele>
        <time>2019-10-05T06:35:19.0870Z</time>
      </trkpt>
      <trkpt lat="45.55962" lon="3.79027">
        <ele>929.589978</ele>
        <time>2019-10-05T06:35:37.0900Z</time>
      </trkpt>
      <trkpt lat="45.55974" lon="3.79047">
        <ele>932.414091</ele>
        <time>2019-10-05T06:35:55.0880Z</time>
      </trkpt>
      <trkpt lat="45.55983" lon="3.79069">
        <ele>934.723016</ele>
        <time>2019-10-05T06:36:10.0880Z</time>
      </trkpt>
      <trkpt lat="45.55996" lon="3.79088">
        <ele>936.988188</ele>
        <time>2019-10-05T06:36:26.0870Z</time>
      </trkpt>
      <trkpt lat="45.55991" lon="3.79114">
        <ele>938.602042</ele>
        <time>2019-10-05T06:36:40.0830Z</time>
      </trkpt>
      <trkpt lat="45.5599" lon="3.7914">
        <ele>941.20612</ele>
        <time>2019-10-05T06:36:56.0900Z</time>
      </trkpt>
      <trkpt lat="45.55984" lon="3.79166">
        <ele>943.378083</ele>
        <time>2019-10-05T06:37:12.0790Z</time>
      </trkpt>
      <trkpt lat="45.55998" lon="3.79184">
        <ele>943.754506</ele>
        <time>2019-10-05T06:37:25.0860Z</time>
      </trkpt>
      <trkpt lat="45.56011" lon="3.79203">
        <ele>945.571527</ele>
        <time>2019-10-05T06:37:40.0890Z</time>
      </trkpt>
      <trkpt lat="45.5602" lon="3.79226">
        <ele>948.307853</ele>
        <time>2019-10-05T06:37:56.0880Z</time>
      </trkpt>
      <trkpt lat="45.56032" lon="3.79246">
        <ele>949.544666</ele>
        <time>2019-10-05T06:38:11.0900Z</time>
      </trkpt>
      <trkpt lat="45.56041" lon="3.79271">
        <ele>951.759432</ele>
        <time>2019-10-05T06:38:26.0910Z</time>
      </trkpt>
      <trkpt lat="45.5605" lon="3.79294">
        <ele>953.446356</ele>
        <time>2019-10-05T06:38:41.0890Z</time>
      </trkpt>
      <trkpt lat="45.56062" lon="3.79315">
        <ele>955.071097</ele>
        <time>2019-10-05T06:38:56.0800Z</time>
      </trkpt>
      <trkpt lat="45.56079" lon="3.79326">
        <ele>956.767152</ele>
        <time>2019-10-05T06:39:11.0930Z</time>
      </trkpt>
      <trkpt lat="45.56095" lon="3.7934">
        <ele>957.805601</ele>
        <time>2019-10-05T06:39:27.0830Z</time>
      </trkpt>
      <trkpt lat="45.56109" lon="3.79359">
        <ele>958.440343</ele>
        <time>2019-10-05T06:39:41.0900Z</time>
      </trkpt>
      <trkpt lat="45.56123" lon="3.79375">
        <ele>959.552135</ele>
        <time>2019-10-05T06:39:54.1070Z</time>
      </trkpt>
      <trkpt lat="45.5614" lon="3.79386">
        <ele>961.344716</ele>
        <time>2019-10-05T06:40:06.0570Z</time>
      </trkpt>
      <trkpt lat="45.56159" lon="3.79389">
        <ele>964.895292</ele>
        <time>2019-10-05T06:40:23.0930Z</time>
      </trkpt>
      <trkpt lat="45.56176" lon="3.79395">
        <ele>967.745117</ele>
        <time>2019-10-05T06:40:39.0840Z</time>
      </trkpt>
      <trkpt lat="45.56195" lon="3.79394">
        <ele>970.305649</ele>
        <time>2019-10-05T06:40:58.0900Z</time>
      </trkpt>
      <trkpt lat="45.56213" lon="3.79389">
        <ele>973.896148</ele>
        <time>2019-10-05T06:41:13.0970Z</time>
      </trkpt>
      <trkpt lat="45.56232" lon="3.79387">
        <ele>977.189594</ele>
        <time>2019-10-05T06:41:30.0880Z</time>
      </trkpt>
      <trkpt lat="45.5625" lon="3.7939">
        <ele>980.52728</ele>
        <time>2019-10-05T06:41:48.0640Z</time>
      </trkpt>
      <trkpt lat="45.56245" lon="3.79414">
        <ele>980.94619</ele>
        <time>2019-10-05T06:43:01.0930Z</time>
      </trkpt>
      <trkpt lat="45.56238" lon="3.7944">
        <ele>980.119542</ele>
        <time>2019-10-05T06:43:18.0860Z</time>
      </trkpt>
      <trkpt lat="45.56233" lon="3.79465">
        <ele>979.722544</ele>
        <time>2019-10-05T06:43:36.0940Z</time>
      </trkpt>
      <trkpt lat="45.56237" lon="3.79491">
        <ele>978.743285</ele>
        <time>2019-10-05T06:43:53.0760Z</time>
      </trkpt>
      <trkpt lat="45.56243" lon="3.79517">
        <ele>978.816493</ele>
        <time>2019-10-05T06:44:06.0710Z</time>
      </trkpt>
      <trkpt lat="45.56248" lon="3.79543">
        <ele>978.075416</ele>
        <time>2019-10-05T06:44:19.0900Z</time>
      </trkpt>
      <trkpt lat="45.56247" lon="3.79572">
        <ele>977.074142</ele>
        <time>2019-10-05T06:44:35.0860Z</time>
      </trkpt>
      <trkpt lat="45.56247" lon="3.79597">
        <ele>976.071975</ele>
        <time>2019-10-05T06:44:46.0880Z</time>
      </trkpt>
      <trkpt lat="45.56256" lon="3.79621">
        <ele>976.679379</ele>
        <time>2019-10-05T06:45:00.0890Z</time>
      </trkpt>
      <trkpt lat="45.56259" lon="3.79649">
        <ele>978.618428</ele>
        <time>2019-10-05T06:45:15.0720Z</time>
      </trkpt>
      <trkpt lat="45.56262" lon="3.79674">
        <ele>980.135833</ele>
        <time>2019-10-05T06:45:31.0570Z</time>
      </trkpt>
      <trkpt lat="45.56264" lon="3.797">
        <ele>983.348255</ele>
        <time>2019-10-05T06:45:50.0840Z</time>
      </trkpt>
      <trkpt lat="45.56272" lon="3.79724">
        <ele>985.426186</ele>
        <time>2019-10-05T06:46:06.0830Z</time>
      </trkpt>
      <trkpt lat="45.56283" lon="3.79746">
        <ele>989.162428</ele>
        <time>2019-10-05T06:46:23.0750Z</time>
      </trkpt>
      <trkpt lat="45.56299" lon="3.79762">
        <ele>990.427663</ele>
        <time>2019-10-05T06:46:39.0720Z</time>
      </trkpt>
      <trkpt lat="45.56316" lon="3.79773">
        <ele>991.768249</ele>
        <time>2019-10-05T06:46:54.1150Z</time>
      </trkpt>
      <trkpt lat="45.56334" lon="3.79778">
        <ele>994.978392</ele>
        <time>2019-10-05T06:47:15.0800Z</time>
      </trkpt>
      <trkpt lat="45.56349" lon="3.79794">
        <ele>996.914639</ele>
        <time>2019-10-05T06:47:32.0880Z</time>
      </trkpt>
      <trkpt lat="45.56356" lon="3.79818">
        <ele>998.654229</ele>
        <time>2019-10-05T06:47:49.0810Z</time>
      </trkpt>
      <trkpt lat="45.56367" lon="3.7984">
        <ele>999.194935</ele>
        <time>2019-10-05T06:48:07.0840Z</time>
      </trkpt>
      <trkpt lat="45.56365" lon="3.79868">
        <ele>999.882273</ele>
        <time>2019-10-05T06:48:19.0700Z</time>
      </trkpt>
      <trkpt lat="45.56373" lon="3.79892">
        <ele>1000.765517</ele>
        <time>2019-10-05T06:48:32.0700Z</time>
      </trkpt>
      <trkpt lat="45.56389" lon="3.79907">
        <ele>1003.803882</ele>
        <time>2019-10-05T06:48:54.0660Z</time>
      </trkpt>
      <trkpt lat="45.56392" lon="3.79933">
        <ele>1006.367866</ele>
        <time>2019-10-05T06:49:09.0580Z</time>
      </trkpt>
      <trkpt lat="45.56402" lon="3.79955">
        <ele>1007.926105</ele>
        <time>2019-10-05T06:49:23.0610Z</time>
      </trkpt>
      <trkpt lat="45.56417" lon="3.79971">
        <ele>1010.415781</ele>
        <time>2019-10-05T06:49:41.0600Z</time>
      </trkpt>
      <trkpt lat="45.56427" lon="3.79994">
        <ele>1013.190387</ele>
        <time>2019-10-05T06:49:59.0560Z</time>
      </trkpt>
      <trkpt lat="45.56445" lon="3.80005">
        <ele>1015.779943</ele>
        <time>2019-10-05T06:50:14.0650Z</time>
      </trkpt>
      <trkpt lat="45.56459" lon="3.80023">
        <ele>1019.045139</ele>
        <time>2019-10-05T06:50:35.0870Z</time>
      </trkpt>
      <trkpt lat="45.56473" lon="3.80042">
        <ele>1020.093387</ele>
        <time>2019-10-05T06:50:51.0600Z</time>
      </trkpt>
      <trkpt lat="45.56486" lon="3.80061">
        <ele>1021.506778</ele>
        <time>2019-10-05T06:51:07.0550Z</time>
      </trkpt>
      <trkpt lat="45.56488" lon="3.80087">
        <ele>1022.139366</ele>
        <time>2019-10-05T06:51:21.0860Z</time>
      </trkpt>
      <trkpt lat="45.56493" lon="3.80112">
        <ele>1022.687244</ele>
        <time>2019-10-05T06:51:36.0660Z</time>
      </trkpt>
      <trkpt lat="45.56494" lon="3.80139">
        <ele>1023.946467</ele>
        <time>2019-10-05T06:51:51.0550Z</time>
      </trkpt>
      <trkpt lat="45.5649" lon="3.80165">
        <ele>1025.219185</ele>
        <time>2019-10-05T06:52:09.0580Z</time>
      </trkpt>
      <trkpt lat="45.56484" lon="3.8019">
        <ele>1025.921883</ele>
        <time>2019-10-05T06:52:21.0890Z</time>
      </trkpt>
      <trkpt lat="45.56475" lon="3.80213">
        <ele>1027.496855</ele>
        <time>2019-10-05T06:52:39.0560Z</time>
      </trkpt>
      <trkpt lat="45.56484" lon="3.80236">
        <ele>1028.860604</ele>
        <time>2019-10-05T06:52:52.0860Z</time>
      </trkpt>
      <trkpt lat="45.56496" lon="3.80256">
        <ele>1030.951774</ele>
        <time>2019-10-05T06:53:08.0900Z</time>
      </trkpt>
      <trkpt lat="45.5651" lon="3.80273">
        <ele>1033.019045</ele>
        <time>2019-10-05T06:53:26.0900Z</time>
      </trkpt>
      <trkpt lat="45.56523" lon="3.80292">
        <ele>1035.283011</ele>
        <time>2019-10-05T06:53:47.0540Z</time>
      </trkpt>
      <trkpt lat="45.56533" lon="3.80315">
        <ele>1037.534806</ele>
        <time>2019-10-05T06:54:05.0550Z</time>
      </trkpt>
      <trkpt lat="45.56532" lon="3.80341">
        <ele>1040.214365</ele>
        <time>2019-10-05T06:54:22.0610Z</time>
      </trkpt>
      <trkpt lat="45.56521" lon="3.80363">
        <ele>1042.379698</ele>
        <time>2019-10-05T06:54:40.0890Z</time>
      </trkpt>
      <trkpt lat="45.56503" lon="3.80366">
        <ele>1043.415318</ele>
        <time>2019-10-05T06:54:58.0910Z</time>
      </trkpt>
      <trkpt lat="45.56486" lon="3.80377">
        <ele>1044.474205</ele>
        <time>2019-10-05T06:55:15.0940Z</time>
      </trkpt>
      <trkpt lat="45.56487" lon="3.80404">
        <ele>1046.853578</ele>
        <time>2019-10-05T06:55:36.9190Z</time>
      </trkpt>
      <trkpt lat="45.56501" lon="3.80423">
        <ele>1048.52448</ele>
        <time>2019-10-05T06:55:58.1110Z</time>
      </trkpt>
      <trkpt lat="45.56518" lon="3.80434">
        <ele>1049.722356</ele>
        <time>2019-10-05T06:56:15.0760Z</time>
      </trkpt>
      <trkpt lat="45.56534" lon="3.80446">
        <ele>1051.550279</ele>
        <time>2019-10-05T06:56:33.0860Z</time>
      </trkpt>
      <trkpt lat="45.56551" lon="3.80455">
        <ele>1052.185365</ele>
        <time>2019-10-05T06:56:49.0790Z</time>
      </trkpt>
      <trkpt lat="45.56569" lon="3.80458">
        <ele>1054.091572</ele>
        <time>2019-10-05T06:57:03.0940Z</time>
      </trkpt>
      <trkpt lat="45.56588" lon="3.8046">
        <ele>1055.273203</ele>
        <time>2019-10-05T06:57:18.0710Z</time>
      </trkpt>
      <trkpt lat="45.56606" lon="3.80465">
        <ele>1056.91352</ele>
        <time>2019-10-05T06:57:32.0760Z</time>
      </trkpt>
      <trkpt lat="45.56624" lon="3.80466">
        <ele>1059.050219</ele>
        <time>2019-10-05T06:57:47.0620Z</time>
      </trkpt>
      <trkpt lat="45.56642" lon="3.8046">
        <ele>1061.200687</ele>
        <time>2019-10-05T06:58:04.0770Z</time>
      </trkpt>
      <trkpt lat="45.5666" lon="3.80457">
        <ele>1062.795741</ele>
        <time>2019-10-05T06:58:19.0840Z</time>
      </trkpt>
      <trkpt lat="45.56677" lon="3.80447">
        <ele>1064.485482</ele>
        <time>2019-10-05T06:58:34.0620Z</time>
      </trkpt>
      <trkpt lat="45.56691" lon="3.80431">
        <ele>1065.631069</ele>
        <time>2019-10-05T06:58:50.0680Z</time>
      </trkpt>
      <trkpt lat="45.56703" lon="3.8041">
        <ele>1067.032526</ele>
        <time>2019-10-05T06:59:05.0860Z</time>
      </trkpt>
      <trkpt lat="45.56717" lon="3.80394">
        <ele>1068.440547</ele>
        <time>2019-10-05T06:59:18.0810Z</time>
      </trkpt>
      <trkpt lat="45.56728" lon="3.80372">
        <ele>1069.385394</ele>
        <time>2019-10-05T06:59:33.0890Z</time>
      </trkpt>
      <trkpt lat="45.56743" lon="3.80356">
        <ele>1070.903821</ele>
        <time>2019-10-05T06:59:51.0870Z</time>
      </trkpt>
      <trkpt lat="45.5676" lon="3.80361">
        <ele>1072.316117</ele>
        <time>2019-10-05T07:00:08.0750Z</time>
      </trkpt>
      <trkpt lat="45.56778" lon="3.80369">
        <ele>1074.50778</ele>
        <time>2019-10-05T07:00:26.0850Z</time>
      </trkpt>
      <trkpt lat="45.56791" lon="3.80386">
        <ele>1075.821424</ele>
        <time>2019-10-05T07:00:40.0860Z</time>
      </trkpt>
      <trkpt lat="45.56797" lon="3.80412">
        <ele>1077.501813</ele>
        <time>2019-10-05T07:00:55.0860Z</time>
      </trkpt>
      <trkpt lat="45.56806" lon="3.80434">
        <ele>1078.670293</ele>
        <time>2019-10-05T07:01:11.0910Z</time>
      </trkpt>
      <trkpt lat="45.56813" lon="3.80459">
        <ele>1079.458179</ele>
        <time>2019-10-05T07:01:28.0840Z</time>
      </trkpt>
      <trkpt lat="45.56827" lon="3.80476">
        <ele>1079.044353</ele>
        <time>2019-10-05T07:01:56.0890Z</time>
      </trkpt>
      <trkpt lat="45.56845" lon="3.80469">
        <ele>1076.404029</ele>
        <time>2019-10-05T07:03:54.1130Z</time>
      </trkpt>
      <trkpt lat="45.5686" lon="3.80454">
        <ele>1074.366307</ele>
        <time>2019-10-05T07:04:14.0760Z</time>
      </trkpt>
      <trkpt lat="45.56878" lon="3.80444">
        <ele>1071.604459</ele>
        <time>2019-10-05T07:04:31.0730Z</time>
      </trkpt>
      <trkpt lat="45.56895" lon="3.80433">
        <ele>1067.817787</ele>
        <time>2019-10-05T07:04:47.0870Z</time>
      </trkpt>
      <trkpt lat="45.56913" lon="3.80421">
        <ele>1066.43146</ele>
        <time>2019-10-05T07:05:01.0580Z</time>
      </trkpt>
      <trkpt lat="45.56928" lon="3.80407">
        <ele>1064.62883</ele>
        <time>2019-10-05T07:05:20.0590Z</time>
      </trkpt>
      <trkpt lat="45.56946" lon="3.804">
        <ele>1061.976042</ele>
        <time>2019-10-05T07:05:37.0770Z</time>
      </trkpt>
      <trkpt lat="45.56964" lon="3.80391">
        <ele>1058.120201</ele>
        <time>2019-10-05T07:05:51.0560Z</time>
      </trkpt>
      <trkpt lat="45.56981" lon="3.80384">
        <ele>1056.198359</ele>
        <time>2019-10-05T07:06:06.0690Z</time>
      </trkpt>
      <trkpt lat="45.56993" lon="3.80364">
        <ele>1054.196628</ele>
        <time>2019-10-05T07:06:19.0900Z</time>
      </trkpt>
      <trkpt lat="45.57006" lon="3.80345">
        <ele>1053.066271</ele>
        <time>2019-10-05T07:06:27.0910Z</time>
      </trkpt>
      <trkpt lat="45.57023" lon="3.80334">
        <ele>1048.611083</ele>
        <time>2019-10-05T07:06:46.0540Z</time>
      </trkpt>
      <trkpt lat="45.57026" lon="3.80308">
        <ele>1046.618979</ele>
        <time>2019-10-05T07:07:03.0720Z</time>
      </trkpt>
      <trkpt lat="45.57039" lon="3.8029">
        <ele>1045.373012</ele>
        <time>2019-10-05T07:07:18.0590Z</time>
      </trkpt>
      <trkpt lat="45.57056" lon="3.80283">
        <ele>1045.02223</ele>
        <time>2019-10-05T07:07:37.0600Z</time>
      </trkpt>
      <trkpt lat="45.57074" lon="3.80279">
        <ele>1044.726808</ele>
        <time>2019-10-05T07:07:50.0630Z</time>
      </trkpt>
      <trkpt lat="45.57094" lon="3.80277">
        <ele>1044.047793</ele>
        <time>2019-10-05T07:08:07.0600Z</time>
      </trkpt>
      <trkpt lat="45.57112" lon="3.80276">
        <ele>1044.194954</ele>
        <time>2019-10-05T07:08:17.0820Z</time>
      </trkpt>
      <trkpt lat="45.5713" lon="3.80272">
        <ele>1043.968923</ele>
        <time>2019-10-05T07:08:31.0590Z</time>
      </trkpt>
      <trkpt lat="45.57147" lon="3.80264">
        <ele>1043.672432</ele>
        <time>2019-10-05T07:08:45.0550Z</time>
      </trkpt>
      <trkpt lat="45.57166" lon="3.80265">
        <ele>1044.301958</ele>
        <time>2019-10-05T07:09:01.0600Z</time>
      </trkpt>
      <trkpt lat="45.57183" lon="3.80256">
        <ele>1044.145441</ele>
        <time>2019-10-05T07:09:19.0750Z</time>
      </trkpt>
      <trkpt lat="45.57202" lon="3.80257">
        <ele>1045.557552</ele>
        <time>2019-10-05T07:09:45.0580Z</time>
      </trkpt>
      <trkpt lat="45.5721" lon="3.80232">
        <ele>1045.287588</ele>
        <time>2019-10-05T07:10:04.0680Z</time>
      </trkpt>
      <trkpt lat="45.57229" lon="3.80227">
        <ele>1044.64447</ele>
        <time>2019-10-05T07:10:17.0580Z</time>
      </trkpt>
      <trkpt lat="45.57247" lon="3.80218">
        <ele>1044.689816</ele>
        <time>2019-10-05T07:10:32.1020Z</time>
      </trkpt>
      <trkpt lat="45.57265" lon="3.80214">
        <ele>1043.825267</ele>
        <time>2019-10-05T07:10:45.0720Z</time>
      </trkpt>
      <trkpt lat="45.57283" lon="3.80218">
        <ele>1043.528012</ele>
        <time>2019-10-05T07:10:59.1280Z</time>
      </trkpt>
      <trkpt lat="45.57294" lon="3.80238">
        <ele>1043.0283</ele>
        <time>2019-10-05T07:11:16.1060Z</time>
      </trkpt>
      <trkpt lat="45.57312" lon="3.80232">
        <ele>1039.713993</ele>
        <time>2019-10-05T07:11:33.1280Z</time>
      </trkpt>
      <trkpt lat="45.5733" lon="3.80241">
        <ele>1037.847032</ele>
        <time>2019-10-05T07:11:45.0700Z</time>
      </trkpt>
      <trkpt lat="45.57348" lon="3.80241">
        <ele>1036.524105</ele>
        <time>2019-10-05T07:11:58.0610Z</time>
      </trkpt>
      <trkpt lat="45.57364" lon="3.80255">
        <ele>1034.126775</ele>
        <time>2019-10-05T07:12:14.0660Z</time>
      </trkpt>
      <trkpt lat="45.57377" lon="3.80272">
        <ele>1028.873956</ele>
        <time>2019-10-05T07:12:35.0630Z</time>
      </trkpt>
      <trkpt lat="45.57392" lon="3.80288">
        <ele>1026.458162</ele>
        <time>2019-10-05T07:12:48.1390Z</time>
      </trkpt>
      <trkpt lat="45.57409" lon="3.80296">
        <ele>1022.548902</ele>
        <time>2019-10-05T07:13:04.0860Z</time>
      </trkpt>
      <trkpt lat="45.57427" lon="3.80304">
        <ele>1019.015803</ele>
        <time>2019-10-05T07:13:17.0840Z</time>
      </trkpt>
      <trkpt lat="45.57446" lon="3.80312">
        <ele>1015.593377</ele>
        <time>2019-10-05T07:13:31.0830Z</time>
      </trkpt>
      <trkpt lat="45.57462" lon="3.80322">
        <ele>1011.553547</ele>
        <time>2019-10-05T07:13:48.0830Z</time>
      </trkpt>
      <trkpt lat="45.57481" lon="3.80324">
        <ele>1010.23127</ele>
        <time>2019-10-05T07:13:57.0860Z</time>
      </trkpt>
      <trkpt lat="45.575" lon="3.80327">
        <ele>1006.2902</ele>
        <time>2019-10-05T07:14:13.0920Z</time>
      </trkpt>
      <trkpt lat="45.57517" lon="3.80339">
        <ele>1003.598379</ele>
        <time>2019-10-05T07:14:25.0890Z</time>
      </trkpt>
      <trkpt lat="45.57534" lon="3.80349">
        <ele>1002.507366</ele>
        <time>2019-10-05T07:14:43.0820Z</time>
      </trkpt>
      <trkpt lat="45.57551" lon="3.80361">
        <ele>998.446415</ele>
        <time>2019-10-05T07:15:04.0800Z</time>
      </trkpt>
      <trkpt lat="45.57568" lon="3.80368">
        <ele>994.383036</ele>
        <time>2019-10-05T07:15:18.0880Z</time>
      </trkpt>
      <trkpt lat="45.57587" lon="3.80369">
        <ele>991.270032</ele>
        <time>2019-10-05T07:15:35.0920Z</time>
      </trkpt>
      <trkpt lat="45.57607" lon="3.80367">
        <ele>988.31771</ele>
        <time>2019-10-05T07:15:46.0850Z</time>
      </trkpt>
      <trkpt lat="45.57626" lon="3.80367">
        <ele>986.392262</ele>
        <time>2019-10-05T07:16:00.0880Z</time>
      </trkpt>
      <trkpt lat="45.57645" lon="3.80362">
        <ele>984.258758</ele>
        <time>2019-10-05T07:16:10.0750Z</time>
      </trkpt>
      <trkpt lat="45.57664" lon="3.80366">
        <ele>982.389986</ele>
        <time>2019-10-05T07:16:27.0910Z</time>
      </trkpt>
      <trkpt lat="45.57682" lon="3.80366">
        <ele>981.020618</ele>
        <time>2019-10-05T07:16:41.0620Z</time>
      </trkpt>
      <trkpt lat="45.57689" lon="3.8039">
        <ele>982.485262</ele>
        <time>2019-10-05T07:17:09.0780Z</time>
      </trkpt>
      <trkpt lat="45.57678" lon="3.80413">
        <ele>984.540046</ele>
        <time>2019-10-05T07:17:24.0880Z</time>
      </trkpt>
      <trkpt lat="45.57674" lon="3.8044">
        <ele>982.925355</ele>
        <time>2019-10-05T07:17:41.0560Z</time>
      </trkpt>
      <trkpt lat="45.57664" lon="3.80462">
        <ele>980.350404</ele>
        <time>2019-10-05T07:17:54.0850Z</time>
      </trkpt>
      <trkpt lat="45.5765" lon="3.80478">
        <ele>976.072575</ele>
        <time>2019-10-05T07:18:11.0860Z</time>
      </trkpt>
      <trkpt lat="45.57636" lon="3.80496">
        <ele>973.643148</ele>
        <time>2019-10-05T07:18:29.0850Z</time>
      </trkpt>
      <trkpt lat="45.57626" lon="3.80519">
        <ele>971.77929</ele>
        <time>2019-10-05T07:18:40.0900Z</time>
      </trkpt>
      <trkpt lat="45.57615" lon="3.80541">
        <ele>970.116017</ele>
        <time>2019-10-05T07:18:54.0590Z</time>
      </trkpt>
      <trkpt lat="45.57603" lon="3.80559">
        <ele>965.711671</ele>
        <time>2019-10-05T07:19:14.0870Z</time>
      </trkpt>
      <trkpt lat="45.57588" lon="3.80578">
        <ele>962.653715</ele>
        <time>2019-10-05T07:19:28.0750Z</time>
      </trkpt>
      <trkpt lat="45.57577" lon="3.80598">
        <ele>961.570508</ele>
        <time>2019-10-05T07:19:37.0660Z</time>
      </trkpt>
      <trkpt lat="45.57568" lon="3.80621">
        <ele>960.049583</ele>
        <time>2019-10-05T07:19:56.0870Z</time>
      </trkpt>
      <trkpt lat="45.57551" lon="3.80633">
        <ele>959.632752</ele>
        <time>2019-10-05T07:20:10.0830Z</time>
      </trkpt>
      <trkpt lat="45.57539" lon="3.80653">
        <ele>956.920259</ele>
        <time>2019-10-05T07:20:28.0840Z</time>
      </trkpt>
      <trkpt lat="45.57535" lon="3.80678">
        <ele>953.622685</ele>
        <time>2019-10-05T07:20:43.0880Z</time>
      </trkpt>
      <trkpt lat="45.57522" lon="3.807">
        <ele>950.394795</ele>
        <time>2019-10-05T07:20:55.0890Z</time>
      </trkpt>
      <trkpt lat="45.57515" lon="3.80726">
        <ele>946.381364</ele>
        <time>2019-10-05T07:21:11.0830Z</time>
      </trkpt>
      <trkpt lat="45.57518" lon="3.80752">
        <ele>939.987014</ele>
        <time>2019-10-05T07:21:38.0700Z</time>
      </trkpt>
      <trkpt lat="45.57519" lon="3.80778">
        <ele>936.657862</ele>
        <time>2019-10-05T07:21:57.0680Z</time>
      </trkpt>
      <trkpt lat="45.57526" lon="3.80802">
        <ele>934.213596</ele>
        <time>2019-10-05T07:22:11.0790Z</time>
      </trkpt>
      <trkpt lat="45.57529" lon="3.80828">
        <ele>932.939407</ele>
        <time>2019-10-05T07:22:24.0520Z</time>
      </trkpt>
      <trkpt lat="45.57526" lon="3.80856">
        <ele>932.176504</ele>
        <time>2019-10-05T07:22:36.0810Z</time>
      </trkpt>
      <trkpt lat="45.57514" lon="3.80876">
        <ele>930.26992</ele>
        <time>2019-10-05T07:22:49.0580Z</time>
      </trkpt>
      <trkpt lat="45.57504" lon="3.80898">
        <ele>926.303632</ele>
        <time>2019-10-05T07:23:08.0730Z</time>
      </trkpt>
      <trkpt lat="45.57494" lon="3.80922">
        <ele>923.496673</ele>
        <time>2019-10-05T07:23:26.0830Z</time>
      </trkpt>
      <trkpt lat="45.57479" lon="3.80937">
        <ele>921.204342</ele>
        <time>2019-10-05T07:23:41.0750Z</time>
      </trkpt>
      <trkpt lat="45.57465" lon="3.80954">
        <ele>920.779583</ele>
        <time>2019-10-05T07:23:53.0610Z</time>
      </trkpt>
      <trkpt lat="45.5745" lon="3.80969">
        <ele>919.667307</ele>
        <time>2019-10-05T07:24:09.0780Z</time>
      </trkpt>
      <trkpt lat="45.57448" lon="3.80995">
        <ele>918.368349</ele>
        <time>2019-10-05T07:24:25.0700Z</time>
      </trkpt>
      <trkpt lat="45.57463" lon="3.81009">
        <ele>917.958712</ele>
        <time>2019-10-05T07:24:41.0940Z</time>
      </trkpt>
      <trkpt lat="45.57482" lon="3.81005">
        <ele>920.860348</ele>
        <time>2019-10-05T07:25:08.0620Z</time>
      </trkpt>
      <trkpt lat="45.57498" lon="3.81018">
        <ele>924.411475</ele>
        <time>2019-10-05T07:25:31.0590Z</time>
      </trkpt>
      <trkpt lat="45.57515" lon="3.81029">
        <ele>927.852784</ele>
        <time>2019-10-05T07:25:49.0450Z</time>
      </trkpt>
      <trkpt lat="45.57532" lon="3.81039">
        <ele>930.380974</ele>
        <time>2019-10-05T07:26:04.0640Z</time>
      </trkpt>
      <trkpt lat="45.57549" lon="3.81049">
        <ele>933.799752</ele>
        <time>2019-10-05T07:26:23.0590Z</time>
      </trkpt>
      <trkpt lat="45.57568" lon="3.81054">
        <ele>937.220152</ele>
        <time>2019-10-05T07:26:45.0690Z</time>
      </trkpt>
      <trkpt lat="45.57586" lon="3.81058">
        <ele>939.105107</ele>
        <time>2019-10-05T07:27:05.0750Z</time>
      </trkpt>
      <trkpt lat="45.57605" lon="3.81061">
        <ele>940.102975</ele>
        <time>2019-10-05T07:27:17.0870Z</time>
      </trkpt>
      <trkpt lat="45.5762" lon="3.81076">
        <ele>942.607458</ele>
        <time>2019-10-05T07:27:33.0890Z</time>
      </trkpt>
      <trkpt lat="45.57611" lon="3.81099">
        <ele>946.442625</ele>
        <time>2019-10-05T07:27:57.0870Z</time>
      </trkpt>
      <trkpt lat="45.57602" lon="3.81123">
        <ele>949.462474</ele>
        <time>2019-10-05T07:28:17.0910Z</time>
      </trkpt>
      <trkpt lat="45.57597" lon="3.81148">
        <ele>951.957466</ele>
        <time>2019-10-05T07:28:36.0820Z</time>
      </trkpt>
      <trkpt lat="45.57595" lon="3.81173">
        <ele>953.57377</ele>
        <time>2019-10-05T07:28:52.1170Z</time>
      </trkpt>
      <trkpt lat="45.57589" lon="3.81198">
        <ele>953.970031</ele>
        <time>2019-10-05T07:29:08.1040Z</time>
      </trkpt>
      <trkpt lat="45.57588" lon="3.81225">
        <ele>954.758246</ele>
        <time>2019-10-05T07:29:23.0760Z</time>
      </trkpt>
      <trkpt lat="45.57585" lon="3.81252">
        <ele>955.651633</ele>
        <time>2019-10-05T07:29:36.0530Z</time>
      </trkpt>
      <trkpt lat="45.57583" lon="3.81278">
        <ele>955.991788</ele>
        <time>2019-10-05T07:29:51.0540Z</time>
      </trkpt>
      <trkpt lat="45.57582" lon="3.81304">
        <ele>957.072243</ele>
        <time>2019-10-05T07:30:07.0580Z</time>
      </trkpt>
      <trkpt lat="45.57589" lon="3.81328">
        <ele>957.767984</ele>
        <time>2019-10-05T07:30:22.1230Z</time>
      </trkpt>
      <trkpt lat="45.57602" lon="3.81348">
        <ele>959.515418</ele>
        <time>2019-10-05T07:30:37.0860Z</time>
      </trkpt>
      <trkpt lat="45.5761" lon="3.81371">
        <ele>958.66402</ele>
        <time>2019-10-05T07:30:51.0870Z</time>
      </trkpt>
      <trkpt lat="45.5762" lon="3.81392">
        <ele>956.838627</ele>
        <time>2019-10-05T07:31:04.0900Z</time>
      </trkpt>
      <trkpt lat="45.57637" lon="3.814">
        <ele>954.900186</ele>
        <time>2019-10-05T07:31:17.0850Z</time>
      </trkpt>
      <trkpt lat="45.57656" lon="3.81404">
        <ele>954.596696</ele>
        <time>2019-10-05T07:31:29.0900Z</time>
      </trkpt>
      <trkpt lat="45.57674" lon="3.81402">
        <ele>955.765046</ele>
        <time>2019-10-05T07:31:41.0850Z</time>
      </trkpt>
      <trkpt lat="45.57692" lon="3.81406">
        <ele>956.010729</ele>
        <time>2019-10-05T07:31:55.0900Z</time>
      </trkpt>
      <trkpt lat="45.57711" lon="3.81406">
        <ele>958.451755</ele>
        <time>2019-10-05T07:32:14.1090Z</time>
      </trkpt>
      <trkpt lat="45.57728" lon="3.81415">
        <ele>961.43987</ele>
        <time>2019-10-05T07:32:35.0940Z</time>
      </trkpt>
      <trkpt lat="45.57745" lon="3.81423">
        <ele>963.183505</ele>
        <time>2019-10-05T07:32:50.0890Z</time>
      </trkpt>
      <trkpt lat="45.57763" lon="3.8143">
        <ele>965.628682</ele>
        <time>2019-10-05T07:33:09.0870Z</time>
      </trkpt>
      <trkpt lat="45.5778" lon="3.81441">
        <ele>968.891263</ele>
        <time>2019-10-05T07:33:28.0930Z</time>
      </trkpt>
      <trkpt lat="45.578" lon="3.8144">
        <ele>971.392971</ele>
        <time>2019-10-05T07:33:47.0840Z</time>
      </trkpt>
      <trkpt lat="45.57819" lon="3.81441">
        <ele>973.448803</ele>
        <time>2019-10-05T07:33:58.0910Z</time>
      </trkpt>
      <trkpt lat="45.57838" lon="3.81442">
        <ele>975.342085</ele>
        <time>2019-10-05T07:34:16.0840Z</time>
      </trkpt>
      <trkpt lat="45.57856" lon="3.81443">
        <ele>977.615486</ele>
        <time>2019-10-05T07:34:33.0940Z</time>
      </trkpt>
      <trkpt lat="45.57875" lon="3.81446">
        <ele>979.128355</ele>
        <time>2019-10-05T07:34:49.0960Z</time>
      </trkpt>
      <trkpt lat="45.57893" lon="3.81453">
        <ele>982.628585</ele>
        <time>2019-10-05T07:35:07.0900Z</time>
      </trkpt>
      <trkpt lat="45.57912" lon="3.81454">
        <ele>986.475429</ele>
        <time>2019-10-05T07:35:29.0900Z</time>
      </trkpt>
      <trkpt lat="45.5793" lon="3.81458">
        <ele>988.942258</ele>
        <time>2019-10-05T07:35:45.0910Z</time>
      </trkpt>
      <trkpt lat="45.57949" lon="3.81461">
        <ele>991.015364</ele>
        <time>2019-10-05T07:35:57.0870Z</time>
      </trkpt>
      <trkpt lat="45.57966" lon="3.81471">
        <ele>992.283915</ele>
        <time>2019-10-05T07:36:09.0900Z</time>
      </trkpt>
      <trkpt lat="45.57983" lon="3.81479">
        <ele>994.10752</ele>
        <time>2019-10-05T07:36:24.0890Z</time>
      </trkpt>
      <trkpt lat="45.58001" lon="3.81487">
        <ele>996.340696</ele>
        <time>2019-10-05T07:36:42.1000Z</time>
      </trkpt>
      <trkpt lat="45.58018" lon="3.81498">
        <ele>998.20882</ele>
        <time>2019-10-05T07:37:01.0860Z</time>
      </trkpt>
      <trkpt lat="45.58021" lon="3.81523">
        <ele>998.421731</ele>
        <time>2019-10-05T07:37:20.1010Z</time>
      </trkpt>
      <trkpt lat="45.5802" lon="3.8155">
        <ele>997.971599</ele>
        <time>2019-10-05T07:37:34.1040Z</time>
      </trkpt>
      <trkpt lat="45.5801" lon="3.81574">
        <ele>997.55249</ele>
        <time>2019-10-05T07:37:49.0920Z</time>
      </trkpt>
      <trkpt lat="45.58" lon="3.81595">
        <ele>997.430611</ele>
        <time>2019-10-05T07:38:04.0580Z</time>
      </trkpt>
      <trkpt lat="45.57987" lon="3.81614">
        <ele>997.182752</ele>
        <time>2019-10-05T07:38:15.0790Z</time>
      </trkpt>
      <trkpt lat="45.57977" lon="3.81636">
        <ele>996.649647</ele>
        <time>2019-10-05T07:38:28.0820Z</time>
      </trkpt>
      <trkpt lat="45.57964" lon="3.81656">
        <ele>996.370533</ele>
        <time>2019-10-05T07:38:41.0850Z</time>
      </trkpt>
      <trkpt lat="45.57954" lon="3.8168">
        <ele>995.660837</ele>
        <time>2019-10-05T07:38:54.0860Z</time>
      </trkpt>
      <trkpt lat="45.57952" lon="3.81706">
        <ele>995.185726</ele>
        <time>2019-10-05T07:39:06.0820Z</time>
      </trkpt>
      <trkpt lat="45.57946" lon="3.81731">
        <ele>994.766094</ele>
        <time>2019-10-05T07:39:20.0970Z</time>
      </trkpt>
      <trkpt lat="45.57928" lon="3.81743">
        <ele>994.684835</ele>
        <time>2019-10-05T07:39:33.0830Z</time>
      </trkpt>
      <trkpt lat="45.57923" lon="3.8177">
        <ele>993.995589</ele>
        <time>2019-10-05T07:39:44.0880Z</time>
      </trkpt>
      <trkpt lat="45.57914" lon="3.81793">
        <ele>994.00967</ele>
        <time>2019-10-05T07:39:56.0810Z</time>
      </trkpt>
      <trkpt lat="45.57902" lon="3.81814">
        <ele>994.113705</ele>
        <time>2019-10-05T07:40:11.0820Z</time>
      </trkpt>
      <trkpt lat="45.57901" lon="3.8184">
        <ele>994.185042</ele>
        <time>2019-10-05T07:40:22.0950Z</time>
      </trkpt>
      <trkpt lat="45.57909" lon="3.81865">
        <ele>993.891191</ele>
        <time>2019-10-05T07:40:31.0900Z</time>
      </trkpt>
      <trkpt lat="45.5792" lon="3.81888">
        <ele>992.939642</ele>
        <time>2019-10-05T07:40:43.0860Z</time>
      </trkpt>
      <trkpt lat="45.57937" lon="3.81898">
        <ele>992.51104</ele>
        <time>2019-10-05T07:40:56.1010Z</time>
      </trkpt>
      <trkpt lat="45.57951" lon="3.8188">
        <ele>992.352128</ele>
        <time>2019-10-05T07:41:05.0910Z</time>
      </trkpt>
      <trkpt lat="45.57968" lon="3.8187">
        <ele>992.478053</ele>
        <time>2019-10-05T07:45:01.0780Z</time>
      </trkpt>
      <trkpt lat="45.57943" lon="3.81864">
        <ele>992.86965</ele>
        <time>2019-10-05T07:51:35.0640Z</time>
      </trkpt>
      <trkpt lat="45.57966" lon="3.81865">
        <ele>992.947355</ele>
        <time>2019-10-05T07:51:36.0620Z</time>
      </trkpt>
      <trkpt lat="45.57982" lon="3.81851">
        <ele>992.992804</ele>
        <time>2019-10-05T07:52:03.0650Z</time>
      </trkpt>
      <trkpt lat="45.57964" lon="3.81835">
        <ele>991.045389</ele>
        <time>2019-10-05T07:59:36.0780Z</time>
      </trkpt>
      <trkpt lat="45.57979" lon="3.81851">
        <ele>991.138615</ele>
        <time>2019-10-05T07:59:58.0640Z</time>
      </trkpt>
      <trkpt lat="45.57997" lon="3.81845">
        <ele>992.96902</ele>
        <time>2019-10-05T08:00:43.0760Z</time>
      </trkpt>
      <trkpt lat="45.57988" lon="3.81869">
        <ele>997.013714</ele>
        <time>2019-10-05T08:01:11.0690Z</time>
      </trkpt>
      <trkpt lat="45.57977" lon="3.8189">
        <ele>1000.548339</ele>
        <time>2019-10-05T08:01:28.0750Z</time>
      </trkpt>
      <trkpt lat="45.57987" lon="3.81912">
        <ele>1004.63656</ele>
        <time>2019-10-05T08:01:45.6610Z</time>
      </trkpt>
      <trkpt lat="45.58005" lon="3.81914">
        <ele>1010.200304</ele>
        <time>2019-10-05T08:02:08.0740Z</time>
      </trkpt>
      <trkpt lat="45.58021" lon="3.81901">
        <ele>1013.587531</ele>
        <time>2019-10-05T08:02:25.0740Z</time>
      </trkpt>
      <trkpt lat="45.58037" lon="3.81913">
        <ele>1016.732526</ele>
        <time>2019-10-05T08:02:44.0800Z</time>
      </trkpt>
      <trkpt lat="45.58022" lon="3.81928">
        <ele>1019.335637</ele>
        <time>2019-10-05T08:03:03.0820Z</time>
      </trkpt>
      <trkpt lat="45.58023" lon="3.81955">
        <ele>1023.14714</ele>
        <time>2019-10-05T08:03:23.0790Z</time>
      </trkpt>
      <trkpt lat="45.58027" lon="3.81981">
        <ele>1027.756771</ele>
        <time>2019-10-05T08:03:48.0980Z</time>
      </trkpt>
      <trkpt lat="45.58042" lon="3.81997">
        <ele>1030.334717</ele>
        <time>2019-10-05T08:04:03.0610Z</time>
      </trkpt>
      <trkpt lat="45.58057" lon="3.82013">
        <ele>1033.017153</ele>
        <time>2019-10-05T08:04:23.0940Z</time>
      </trkpt>
      <trkpt lat="45.58072" lon="3.82027">
        <ele>1035.264015</ele>
        <time>2019-10-05T08:04:38.0760Z</time>
      </trkpt>
      <trkpt lat="45.5809" lon="3.82032">
        <ele>1039.037242</ele>
        <time>2019-10-05T08:05:13.0620Z</time>
      </trkpt>
      <trkpt lat="45.58108" lon="3.82026">
        <ele>1042.286343</ele>
        <time>2019-10-05T08:05:29.0680Z</time>
      </trkpt>
      <trkpt lat="45.58126" lon="3.82024">
        <ele>1045.108595</ele>
        <time>2019-10-05T08:05:47.0750Z</time>
      </trkpt>
      <trkpt lat="45.58141" lon="3.82039">
        <ele>1048.821533</ele>
        <time>2019-10-05T08:06:07.0770Z</time>
      </trkpt>
      <trkpt lat="45.58137" lon="3.82065">
        <ele>1053.977804</ele>
        <time>2019-10-05T08:06:38.0870Z</time>
      </trkpt>
      <trkpt lat="45.58129" lon="3.82088">
        <ele>1056.416719</ele>
        <time>2019-10-05T08:07:00.0580Z</time>
      </trkpt>
      <trkpt lat="45.58123" lon="3.82113">
        <ele>1058.933816</ele>
        <time>2019-10-05T08:07:18.0770Z</time>
      </trkpt>
      <trkpt lat="45.58118" lon="3.82138">
        <ele>1061.575188</ele>
        <time>2019-10-05T08:07:36.1030Z</time>
      </trkpt>
      <trkpt lat="45.58107" lon="3.8216">
        <ele>1064.158487</ele>
        <time>2019-10-05T08:07:57.0750Z</time>
      </trkpt>
      <trkpt lat="45.58091" lon="3.82174">
        <ele>1067.480116</ele>
        <time>2019-10-05T08:08:17.0930Z</time>
      </trkpt>
      <trkpt lat="45.58077" lon="3.82191">
        <ele>1070.131299</ele>
        <time>2019-10-05T08:08:40.0900Z</time>
      </trkpt>
      <trkpt lat="45.58077" lon="3.82217">
        <ele>1073.281092</ele>
        <time>2019-10-05T08:08:58.0800Z</time>
      </trkpt>
      <trkpt lat="45.58071" lon="3.82244">
        <ele>1077.529015</ele>
        <time>2019-10-05T08:09:16.1000Z</time>
      </trkpt>
      <trkpt lat="45.58089" lon="3.82252">
        <ele>1081.912055</ele>
        <time>2019-10-05T08:09:39.0800Z</time>
      </trkpt>
      <trkpt lat="45.58105" lon="3.82267">
        <ele>1090.053804</ele>
        <time>2019-10-05T08:10:16.1000Z</time>
      </trkpt>
      <trkpt lat="45.58112" lon="3.82291">
        <ele>1094.194579</ele>
        <time>2019-10-05T08:10:36.0840Z</time>
      </trkpt>
      <trkpt lat="45.58111" lon="3.82316">
        <ele>1098.515357</ele>
        <time>2019-10-05T08:11:00.1100Z</time>
      </trkpt>
      <trkpt lat="45.58099" lon="3.82338">
        <ele>1105.265955</ele>
        <time>2019-10-05T08:11:26.0860Z</time>
      </trkpt>
      <trkpt lat="45.58116" lon="3.82348">
        <ele>1108.717803</ele>
        <time>2019-10-05T08:11:46.0690Z</time>
      </trkpt>
      <trkpt lat="45.58129" lon="3.82367">
        <ele>1112.211444</ele>
        <time>2019-10-05T08:12:02.0700Z</time>
      </trkpt>
      <trkpt lat="45.58148" lon="3.82366">
        <ele>1117.789337</ele>
        <time>2019-10-05T08:12:30.0770Z</time>
      </trkpt>
      <trkpt lat="45.58162" lon="3.8235">
        <ele>1119.33019</ele>
        <time>2019-10-05T08:12:45.0720Z</time>
      </trkpt>
      <trkpt lat="45.5818" lon="3.82343">
        <ele>1122.792836</ele>
        <time>2019-10-05T08:13:05.0850Z</time>
      </trkpt>
      <trkpt lat="45.58198" lon="3.82342">
        <ele>1123.584043</ele>
        <time>2019-10-05T08:13:17.0750Z</time>
      </trkpt>
      <trkpt lat="45.58215" lon="3.82352">
        <ele>1126.314079</ele>
        <time>2019-10-05T08:13:36.0930Z</time>
      </trkpt>
      <trkpt lat="45.58214" lon="3.82377">
        <ele>1130.473774</ele>
        <time>2019-10-05T08:13:56.1010Z</time>
      </trkpt>
      <trkpt lat="45.58202" lon="3.82397">
        <ele>1134.709936</ele>
        <time>2019-10-05T08:14:21.0850Z</time>
      </trkpt>
      <trkpt lat="45.58191" lon="3.82419">
        <ele>1138.114253</ele>
        <time>2019-10-05T08:14:40.0600Z</time>
      </trkpt>
      <trkpt lat="45.58185" lon="3.82443">
        <ele>1141.569605</ele>
        <time>2019-10-05T08:14:57.0590Z</time>
      </trkpt>
      <trkpt lat="45.5819" lon="3.82469">
        <ele>1144.61849</ele>
        <time>2019-10-05T08:15:13.0750Z</time>
      </trkpt>
      <trkpt lat="45.5818" lon="3.8249">
        <ele>1146.055216</ele>
        <time>2019-10-05T08:17:03.1010Z</time>
      </trkpt>
      <trkpt lat="45.58172" lon="3.82516">
        <ele>1149.326289</ele>
        <time>2019-10-05T08:17:25.0710Z</time>
      </trkpt>
      <trkpt lat="45.58166" lon="3.82542">
        <ele>1152.574486</ele>
        <time>2019-10-05T08:17:43.0770Z</time>
      </trkpt>
      <trkpt lat="45.58168" lon="3.82569">
        <ele>1156.211726</ele>
        <time>2019-10-05T08:18:04.0810Z</time>
      </trkpt>
      <trkpt lat="45.58175" lon="3.82593">
        <ele>1159.007905</ele>
        <time>2019-10-05T08:18:21.0700Z</time>
      </trkpt>
      <trkpt lat="45.58176" lon="3.8262">
        <ele>1162.607216</ele>
        <time>2019-10-05T08:18:48.0940Z</time>
      </trkpt>
      <trkpt lat="45.58175" lon="3.82646">
        <ele>1165.352574</ele>
        <time>2019-10-05T08:19:07.0740Z</time>
      </trkpt>
      <trkpt lat="45.58171" lon="3.82672">
        <ele>1168.409461</ele>
        <time>2019-10-05T08:19:29.0810Z</time>
      </trkpt>
      <trkpt lat="45.58178" lon="3.82696">
        <ele>1172.114351</ele>
        <time>2019-10-05T08:19:56.0960Z</time>
      </trkpt>
      <trkpt lat="45.58173" lon="3.82721">
        <ele>1177.483525</ele>
        <time>2019-10-05T08:20:23.0710Z</time>
      </trkpt>
      <trkpt lat="45.58173" lon="3.82747">
        <ele>1180.497419</ele>
        <time>2019-10-05T08:20:40.0760Z</time>
      </trkpt>
      <trkpt lat="45.58167" lon="3.82772">
        <ele>1187.070331</ele>
        <time>2019-10-05T08:21:13.0600Z</time>
      </trkpt>
      <trkpt lat="45.58155" lon="3.82792">
        <ele>1190.958746</ele>
        <time>2019-10-05T08:21:33.0780Z</time>
      </trkpt>
      <trkpt lat="45.5815" lon="3.82817">
        <ele>1195.154023</ele>
        <time>2019-10-05T08:22:03.0780Z</time>
      </trkpt>
      <trkpt lat="45.58141" lon="3.8284">
        <ele>1196.809163</ele>
        <time>2019-10-05T08:22:17.0750Z</time>
      </trkpt>
      <trkpt lat="45.58157" lon="3.82854">
        <ele>1199.866601</ele>
        <time>2019-10-05T08:22:33.0580Z</time>
      </trkpt>
      <trkpt lat="45.58175" lon="3.8286">
        <ele>1203.666905</ele>
        <time>2019-10-05T08:23:16.0770Z</time>
      </trkpt>
      <trkpt lat="45.58186" lon="3.82881">
        <ele>1207.555808</ele>
        <time>2019-10-05T08:23:36.0890Z</time>
      </trkpt>
      <trkpt lat="45.58202" lon="3.82893">
        <ele>1212.60992</ele>
        <time>2019-10-05T08:24:01.0530Z</time>
      </trkpt>
      <trkpt lat="45.58217" lon="3.82909">
        <ele>1213.867095</ele>
        <time>2019-10-05T08:24:15.0660Z</time>
      </trkpt>
      <trkpt lat="45.58234" lon="3.8292">
        <ele>1215.522094</ele>
        <time>2019-10-05T08:24:26.0700Z</time>
      </trkpt>
      <trkpt lat="45.58249" lon="3.82936">
        <ele>1218.30111</ele>
        <time>2019-10-05T08:24:46.0750Z</time>
      </trkpt>
      <trkpt lat="45.58264" lon="3.8295">
        <ele>1221.336584</ele>
        <time>2019-10-05T08:25:02.0650Z</time>
      </trkpt>
      <trkpt lat="45.58279" lon="3.82968">
        <ele>1224.635827</ele>
        <time>2019-10-05T08:25:24.0670Z</time>
      </trkpt>
      <trkpt lat="45.5829" lon="3.8299">
        <ele>1228.953408</ele>
        <time>2019-10-05T08:25:42.0730Z</time>
      </trkpt>
      <trkpt lat="45.58295" lon="3.83015">
        <ele>1232.995168</ele>
        <time>2019-10-05T08:26:04.0550Z</time>
      </trkpt>
      <trkpt lat="45.58304" lon="3.83038">
        <ele>1236.657678</ele>
        <time>2019-10-05T08:26:24.0710Z</time>
      </trkpt>
      <trkpt lat="45.58312" lon="3.83061">
        <ele>1241.37836</ele>
        <time>2019-10-05T08:26:46.0780Z</time>
      </trkpt>
      <trkpt lat="45.58322" lon="3.83084">
        <ele>1245.076341</ele>
        <time>2019-10-05T08:27:16.0650Z</time>
      </trkpt>
      <trkpt lat="45.58327" lon="3.83109">
        <ele>1248.645742</ele>
        <time>2019-10-05T08:27:33.0620Z</time>
      </trkpt>
      <trkpt lat="45.58343" lon="3.83124">
        <ele>1252.112561</ele>
        <time>2019-10-05T08:27:50.0700Z</time>
      </trkpt>
      <trkpt lat="45.58354" lon="3.83144">
        <ele>1257.235959</ele>
        <time>2019-10-05T08:28:15.0720Z</time>
      </trkpt>
      <trkpt lat="45.58347" lon="3.83168">
        <ele>1261.41655</ele>
        <time>2019-10-05T08:28:37.0760Z</time>
      </trkpt>
      <trkpt lat="45.58364" lon="3.8318">
        <ele>1264.366945</ele>
        <time>2019-10-05T08:28:54.0730Z</time>
      </trkpt>
      <trkpt lat="45.58377" lon="3.83199">
        <ele>1268.682051</ele>
        <time>2019-10-05T08:29:17.0740Z</time>
      </trkpt>
      <trkpt lat="45.58382" lon="3.83224">
        <ele>1273.400393</ele>
        <time>2019-10-05T08:29:44.0740Z</time>
      </trkpt>
      <trkpt lat="45.58389" lon="3.83248">
        <ele>1276.090585</ele>
        <time>2019-10-05T08:30:01.0710Z</time>
      </trkpt>
      <trkpt lat="45.58399" lon="3.83272">
        <ele>1278.915902</ele>
        <time>2019-10-05T08:30:15.0740Z</time>
      </trkpt>
      <trkpt lat="45.58401" lon="3.83299">
        <ele>1282.269457</ele>
        <time>2019-10-05T08:30:34.0730Z</time>
      </trkpt>
      <trkpt lat="45.58398" lon="3.83325">
        <ele>1284.782022</ele>
        <time>2019-10-05T08:30:51.0920Z</time>
      </trkpt>
      <trkpt lat="45.58405" lon="3.83351">
        <ele>1286.105174</ele>
        <time>2019-10-05T08:31:04.0710Z</time>
      </trkpt>
      <trkpt lat="45.584" lon="3.83376">
        <ele>1288.360395</ele>
        <time>2019-10-05T08:31:19.0630Z</time>
      </trkpt>
      <trkpt lat="45.58408" lon="3.834">
        <ele>1289.249034</ele>
        <time>2019-10-05T08:31:40.0610Z</time>
      </trkpt>
      <trkpt lat="45.58419" lon="3.83423">
        <ele>1293.257268</ele>
        <time>2019-10-05T08:32:01.0600Z</time>
      </trkpt>
      <trkpt lat="45.58423" lon="3.83449">
        <ele>1296.017144</ele>
        <time>2019-10-05T08:32:16.0840Z</time>
      </trkpt>
      <trkpt lat="45.58429" lon="3.83474">
        <ele>1298.204782</ele>
        <time>2019-10-05T08:32:33.0600Z</time>
      </trkpt>
      <trkpt lat="45.58446" lon="3.83485">
        <ele>1304.709855</ele>
        <time>2019-10-05T08:33:03.0580Z</time>
      </trkpt>
      <trkpt lat="45.58465" lon="3.83482">
        <ele>1308.181894</ele>
        <time>2019-10-05T08:33:22.0630Z</time>
      </trkpt>
      <trkpt lat="45.5848" lon="3.83468">
        <ele>1310.804251</ele>
        <time>2019-10-05T08:36:46.1010Z</time>
      </trkpt>
      <trkpt lat="45.58484" lon="3.83442">
        <ele>1309.761391</ele>
        <time>2019-10-05T08:37:01.0810Z</time>
      </trkpt>
      <trkpt lat="45.58493" lon="3.83419">
        <ele>1308.831918</ele>
        <time>2019-10-05T08:37:19.0950Z</time>
      </trkpt>
      <trkpt lat="45.58502" lon="3.83395">
        <ele>1307.537586</ele>
        <time>2019-10-05T08:37:35.0880Z</time>
      </trkpt>
      <trkpt lat="45.58516" lon="3.83377">
        <ele>1306.103528</ele>
        <time>2019-10-05T08:37:51.1080Z</time>
      </trkpt>
      <trkpt lat="45.58522" lon="3.83353">
        <ele>1302.782173</ele>
        <time>2019-10-05T08:38:06.0810Z</time>
      </trkpt>
      <trkpt lat="45.58523" lon="3.83327">
        <ele>1299.885602</ele>
        <time>2019-10-05T08:38:19.0750Z</time>
      </trkpt>
      <trkpt lat="45.58535" lon="3.83306">
        <ele>1296.516967</ele>
        <time>2019-10-05T08:38:32.0800Z</time>
      </trkpt>
      <trkpt lat="45.58538" lon="3.83279">
        <ele>1292.836768</ele>
        <time>2019-10-05T08:38:44.0920Z</time>
      </trkpt>
      <trkpt lat="45.58542" lon="3.83253">
        <ele>1289.571268</ele>
        <time>2019-10-05T08:38:55.1150Z</time>
      </trkpt>
      <trkpt lat="45.5854" lon="3.83227">
        <ele>1286.579998</ele>
        <time>2019-10-05T08:39:08.0940Z</time>
      </trkpt>
      <trkpt lat="45.58552" lon="3.83206">
        <ele>1285.036389</ele>
        <time>2019-10-05T08:39:33.0910Z</time>
      </trkpt>
      <trkpt lat="45.58568" lon="3.83193">
        <ele>1284.238184</ele>
        <time>2019-10-05T08:39:48.0910Z</time>
      </trkpt>
      <trkpt lat="45.58585" lon="3.83183">
        <ele>1283.969251</ele>
        <time>2019-10-05T08:40:02.0970Z</time>
      </trkpt>
      <trkpt lat="45.58601" lon="3.83172">
        <ele>1283.364897</ele>
        <time>2019-10-05T08:40:16.1930Z</time>
      </trkpt>
      <trkpt lat="45.58621" lon="3.83169">
        <ele>1285.277721</ele>
        <time>2019-10-05T08:40:29.0980Z</time>
      </trkpt>
      <trkpt lat="45.58639" lon="3.83169">
        <ele>1286.226011</ele>
        <time>2019-10-05T08:40:43.0890Z</time>
      </trkpt>
      <trkpt lat="45.58657" lon="3.83174">
        <ele>1285.936091</ele>
        <time>2019-10-05T08:40:56.1050Z</time>
      </trkpt>
      <trkpt lat="45.58675" lon="3.8318">
        <ele>1286.102448</ele>
        <time>2019-10-05T08:41:09.0920Z</time>
      </trkpt>
      <trkpt lat="45.58693" lon="3.83183">
        <ele>1286.020179</ele>
        <time>2019-10-05T08:41:22.0870Z</time>
      </trkpt>
      <trkpt lat="45.58711" lon="3.83188">
        <ele>1285.136445</ele>
        <time>2019-10-05T08:41:35.0940Z</time>
      </trkpt>
      <trkpt lat="45.5873" lon="3.8319">
        <ele>1285.3903</ele>
        <time>2019-10-05T08:41:47.1060Z</time>
      </trkpt>
      <trkpt lat="45.58748" lon="3.83194">
        <ele>1286.704388</ele>
        <time>2019-10-05T08:42:01.0860Z</time>
      </trkpt>
      <trkpt lat="45.58767" lon="3.832">
        <ele>1288.065515</ele>
        <time>2019-10-05T08:42:16.0930Z</time>
      </trkpt>
      <trkpt lat="45.58785" lon="3.83203">
        <ele>1290.316223</ele>
        <time>2019-10-05T08:42:31.0890Z</time>
      </trkpt>
      <trkpt lat="45.58803" lon="3.83212">
        <ele>1292.423689</ele>
        <time>2019-10-05T08:42:46.0970Z</time>
      </trkpt>
      <trkpt lat="45.58821" lon="3.8321">
        <ele>1294.914904</ele>
        <time>2019-10-05T08:43:01.0860Z</time>
      </trkpt>
      <trkpt lat="45.5884" lon="3.83209">
        <ele>1297.365786</ele>
        <time>2019-10-05T08:43:21.0750Z</time>
      </trkpt>
      <trkpt lat="45.58858" lon="3.83209">
        <ele>1300.118507</ele>
        <time>2019-10-05T08:43:39.0810Z</time>
      </trkpt>
      <trkpt lat="45.58876" lon="3.83215">
        <ele>1303.323299</ele>
        <time>2019-10-05T08:43:56.0930Z</time>
      </trkpt>
      <trkpt lat="45.58891" lon="3.83233">
        <ele>1306.230399</ele>
        <time>2019-10-05T08:44:13.0880Z</time>
      </trkpt>
      <trkpt lat="45.58907" lon="3.83247">
        <ele>1309.86285</ele>
        <time>2019-10-05T08:44:31.0870Z</time>
      </trkpt>
      <trkpt lat="45.58924" lon="3.83258">
        <ele>1313.361933</ele>
        <time>2019-10-05T08:44:49.0900Z</time>
      </trkpt>
      <trkpt lat="45.58941" lon="3.83268">
        <ele>1316.036604</ele>
        <time>2019-10-05T08:45:05.0900Z</time>
      </trkpt>
      <trkpt lat="45.58952" lon="3.83288">
        <ele>1321.067666</ele>
        <time>2019-10-05T08:45:28.0880Z</time>
      </trkpt>
      <trkpt lat="45.58966" lon="3.83306">
        <ele>1325.606647</ele>
        <time>2019-10-05T08:45:56.0900Z</time>
      </trkpt>
      <trkpt lat="45.58978" lon="3.83326">
        <ele>1328.346588</ele>
        <time>2019-10-05T08:46:15.0950Z</time>
      </trkpt>
      <trkpt lat="45.5899" lon="3.83348">
        <ele>1330.595718</ele>
        <time>2019-10-05T08:46:36.0870Z</time>
      </trkpt>
      <trkpt lat="45.58999" lon="3.8337">
        <ele>1333.714272</ele>
        <time>2019-10-05T08:46:57.0870Z</time>
      </trkpt>
      <trkpt lat="45.59004" lon="3.83395">
        <ele>1337.690184</ele>
        <time>2019-10-05T08:47:18.0820Z</time>
      </trkpt>
      <trkpt lat="45.59004" lon="3.83422">
        <ele>1340.990083</ele>
        <time>2019-10-05T08:47:36.1150Z</time>
      </trkpt>
      <trkpt lat="45.59002" lon="3.83448">
        <ele>1343.621171</ele>
        <time>2019-10-05T08:47:53.0880Z</time>
      </trkpt>
      <trkpt lat="45.59002" lon="3.83475">
        <ele>1346.945193</ele>
        <time>2019-10-05T08:48:08.0850Z</time>
      </trkpt>
      <trkpt lat="45.58992" lon="3.83497">
        <ele>1348.731937</ele>
        <time>2019-10-05T08:48:28.0910Z</time>
      </trkpt>
      <trkpt lat="45.58976" lon="3.83512">
        <ele>1349.270887</ele>
        <time>2019-10-05T08:48:56.0880Z</time>
      </trkpt>
      <trkpt lat="45.58964" lon="3.83533">
        <ele>1351.181299</ele>
        <time>2019-10-05T08:49:13.0940Z</time>
      </trkpt>
      <trkpt lat="45.58953" lon="3.83555">
        <ele>1352.175708</ele>
        <time>2019-10-05T08:49:31.0820Z</time>
      </trkpt>
      <trkpt lat="45.58942" lon="3.83576">
        <ele>1352.537348</ele>
        <time>2019-10-05T08:49:45.0900Z</time>
      </trkpt>
      <trkpt lat="45.58932" lon="3.836">
        <ele>1353.195464</ele>
        <time>2019-10-05T08:50:01.0930Z</time>
      </trkpt>
      <trkpt lat="45.58922" lon="3.83621">
        <ele>1353.184775</ele>
        <time>2019-10-05T08:50:16.0990Z</time>
      </trkpt>
      <trkpt lat="45.58913" lon="3.83644">
        <ele>1354.351393</ele>
        <time>2019-10-05T08:50:32.0980Z</time>
      </trkpt>
      <trkpt lat="45.58903" lon="3.83667">
        <ele>1355.029149</ele>
        <time>2019-10-05T08:50:48.0870Z</time>
      </trkpt>
      <trkpt lat="45.58907" lon="3.83693">
        <ele>1356.430625</ele>
        <time>2019-10-05T08:51:04.0890Z</time>
      </trkpt>
      <trkpt lat="45.58915" lon="3.83717">
        <ele>1357.74482</ele>
        <time>2019-10-05T08:51:19.1010Z</time>
      </trkpt>
      <trkpt lat="45.58922" lon="3.83742">
        <ele>1359.410552</ele>
        <time>2019-10-05T08:51:36.0990Z</time>
      </trkpt>
      <trkpt lat="45.58928" lon="3.83767">
        <ele>1360.580136</ele>
        <time>2019-10-05T08:51:51.1070Z</time>
      </trkpt>
      <trkpt lat="45.58929" lon="3.83795">
        <ele>1362.127161</ele>
        <time>2019-10-05T08:52:07.1170Z</time>
      </trkpt>
      <trkpt lat="45.58933" lon="3.83822">
        <ele>1364.026227</ele>
        <time>2019-10-05T08:52:23.0600Z</time>
      </trkpt>
      <trkpt lat="45.58945" lon="3.83841">
        <ele>1365.700921</ele>
        <time>2019-10-05T08:52:39.0950Z</time>
      </trkpt>
      <trkpt lat="45.58959" lon="3.83859">
        <ele>1367.73799</ele>
        <time>2019-10-05T08:52:56.1020Z</time>
      </trkpt>
      <trkpt lat="45.58975" lon="3.83874">
        <ele>1368.875617</ele>
        <time>2019-10-05T08:53:11.0980Z</time>
      </trkpt>
      <trkpt lat="45.5899" lon="3.83889">
        <ele>1369.565983</ele>
        <time>2019-10-05T08:53:25.0970Z</time>
      </trkpt>
      <trkpt lat="45.59003" lon="3.83908">
        <ele>1371.107559</ele>
        <time>2019-10-05T08:53:39.1370Z</time>
      </trkpt>
      <trkpt lat="45.59016" lon="3.83927">
        <ele>1371.415068</ele>
        <time>2019-10-05T08:53:54.0960Z</time>
      </trkpt>
      <trkpt lat="45.59029" lon="3.83946">
        <ele>1372.262965</ele>
        <time>2019-10-05T08:54:08.0920Z</time>
      </trkpt>
      <trkpt lat="45.59038" lon="3.8397">
        <ele>1372.53317</ele>
        <time>2019-10-05T08:54:23.0860Z</time>
      </trkpt>
      <trkpt lat="45.59048" lon="3.83993">
        <ele>1371.930487</ele>
        <time>2019-10-05T08:54:37.0910Z</time>
      </trkpt>
      <trkpt lat="45.59058" lon="3.84016">
        <ele>1372.205576</ele>
        <time>2019-10-05T08:54:51.0820Z</time>
      </trkpt>
      <trkpt lat="45.59066" lon="3.8404">
        <ele>1372.298207</ele>
        <time>2019-10-05T08:55:04.0980Z</time>
      </trkpt>
      <trkpt lat="45.59073" lon="3.84065">
        <ele>1371.844015</ele>
        <time>2019-10-05T08:55:18.0900Z</time>
      </trkpt>
      <trkpt lat="45.59079" lon="3.8409">
        <ele>1371.914512</ele>
        <time>2019-10-05T08:55:32.0880Z</time>
      </trkpt>
      <trkpt lat="45.59083" lon="3.84117">
        <ele>1371.977213</ele>
        <time>2019-10-05T08:55:46.1050Z</time>
      </trkpt>
      <trkpt lat="45.59089" lon="3.84143">
        <ele>1371.656813</ele>
        <time>2019-10-05T08:55:59.0940Z</time>
      </trkpt>
      <trkpt lat="45.59095" lon="3.84168">
        <ele>1370.725984</ele>
        <time>2019-10-05T08:56:12.0930Z</time>
      </trkpt>
      <trkpt lat="45.59098" lon="3.84194">
        <ele>1370.262506</ele>
        <time>2019-10-05T08:56:25.0960Z</time>
      </trkpt>
      <trkpt lat="45.59101" lon="3.8422">
        <ele>1369.855822</ele>
        <time>2019-10-05T08:56:38.0960Z</time>
      </trkpt>
      <trkpt lat="45.59104" lon="3.84246">
        <ele>1369.231315</ele>
        <time>2019-10-05T08:56:50.0650Z</time>
      </trkpt>
      <trkpt lat="45.5911" lon="3.84273">
        <ele>1368.378228</ele>
        <time>2019-10-05T08:57:03.0900Z</time>
      </trkpt>
      <trkpt lat="45.59117" lon="3.84297">
        <ele>1367.480535</ele>
        <time>2019-10-05T08:57:15.0970Z</time>
      </trkpt>
      <trkpt lat="45.59123" lon="3.84322">
        <ele>1366.245314</ele>
        <time>2019-10-05T08:57:28.0880Z</time>
      </trkpt>
      <trkpt lat="45.59131" lon="3.84347">
        <ele>1365.122819</ele>
        <time>2019-10-05T08:57:41.0950Z</time>
      </trkpt>
      <trkpt lat="45.59138" lon="3.84372">
        <ele>1363.953067</ele>
        <time>2019-10-05T08:57:54.3840Z</time>
      </trkpt>
      <trkpt lat="45.59146" lon="3.84396">
        <ele>1362.487521</ele>
        <time>2019-10-05T08:58:07.1000Z</time>
      </trkpt>
      <trkpt lat="45.59153" lon="3.84422">
        <ele>1360.954344</ele>
        <time>2019-10-05T08:58:20.0960Z</time>
      </trkpt>
      <trkpt lat="45.59157" lon="3.84449">
        <ele>1359.222682</ele>
        <time>2019-10-05T08:58:33.1080Z</time>
      </trkpt>
      <trkpt lat="45.59164" lon="3.84475">
        <ele>1357.921435</ele>
        <time>2019-10-05T08:58:46.1150Z</time>
      </trkpt>
      <trkpt lat="45.59171" lon="3.845">
        <ele>1356.070733</ele>
        <time>2019-10-05T08:58:59.1000Z</time>
      </trkpt>
      <trkpt lat="45.59178" lon="3.84526">
        <ele>1353.604945</ele>
        <time>2019-10-05T08:59:13.0890Z</time>
      </trkpt>
      <trkpt lat="45.5919" lon="3.84546">
        <ele>1352.322119</ele>
        <time>2019-10-05T08:59:26.1150Z</time>
      </trkpt>
      <trkpt lat="45.59205" lon="3.84561">
        <ele>1350.862938</ele>
        <time>2019-10-05T08:59:39.0810Z</time>
      </trkpt>
      <trkpt lat="45.59222" lon="3.84572">
        <ele>1349.979756</ele>
        <time>2019-10-05T08:59:54.0920Z</time>
      </trkpt>
      <trkpt lat="45.59241" lon="3.84572">
        <ele>1349.213728</ele>
        <time>2019-10-05T09:00:09.0570Z</time>
      </trkpt>
      <trkpt lat="45.59243" lon="3.84598">
        <ele>1349.27104</ele>
        <time>2019-10-05T09:00:26.1170Z</time>
      </trkpt>
      <trkpt lat="45.59236" lon="3.84623">
        <ele>1348.915113</ele>
        <time>2019-10-05T09:00:40.0590Z</time>
      </trkpt>
      <trkpt lat="45.59228" lon="3.84647">
        <ele>1348.125457</ele>
        <time>2019-10-05T09:00:53.0590Z</time>
      </trkpt>
      <trkpt lat="45.59215" lon="3.84665">
        <ele>1347.138366</ele>
        <time>2019-10-05T09:01:04.0560Z</time>
      </trkpt>
      <trkpt lat="45.59198" lon="3.84677">
        <ele>1345.540992</ele>
        <time>2019-10-05T09:01:16.0680Z</time>
      </trkpt>
      <trkpt lat="45.59181" lon="3.84686">
        <ele>1344.032985</ele>
        <time>2019-10-05T09:01:29.0610Z</time>
      </trkpt>
      <trkpt lat="45.59164" lon="3.84698">
        <ele>1342.477149</ele>
        <time>2019-10-05T09:01:41.0590Z</time>
      </trkpt>
      <trkpt lat="45.59154" lon="3.84721">
        <ele>1340.858455</ele>
        <time>2019-10-05T09:01:54.0570Z</time>
      </trkpt>
      <trkpt lat="45.59143" lon="3.84743">
        <ele>1339.696011</ele>
        <time>2019-10-05T09:02:07.0600Z</time>
      </trkpt>
      <trkpt lat="45.59133" lon="3.84766">
        <ele>1338.366693</ele>
        <time>2019-10-05T09:02:20.0620Z</time>
      </trkpt>
      <trkpt lat="45.59117" lon="3.84782">
        <ele>1336.968506</ele>
        <time>2019-10-05T09:02:33.0630Z</time>
      </trkpt>
      <trkpt lat="45.59101" lon="3.84797">
        <ele>1333.735755</ele>
        <time>2019-10-05T09:02:52.0600Z</time>
      </trkpt>
      <trkpt lat="45.59082" lon="3.84796">
        <ele>1328.356182</ele>
        <time>2019-10-05T09:03:13.0710Z</time>
      </trkpt>
      <trkpt lat="45.59064" lon="3.84797">
        <ele>1323.717708</ele>
        <time>2019-10-05T09:03:33.0840Z</time>
      </trkpt>
      <trkpt lat="45.59046" lon="3.84795">
        <ele>1316.036311</ele>
        <time>2019-10-05T09:03:55.0590Z</time>
      </trkpt>
      <trkpt lat="45.59027" lon="3.84795">
        <ele>1315.691389</ele>
        <time>2019-10-05T09:04:23.0730Z</time>
      </trkpt>
      <trkpt lat="45.59013" lon="3.84812">
        <ele>1316.70356</ele>
        <time>2019-10-05T09:04:44.0880Z</time>
      </trkpt>
      <trkpt lat="45.59008" lon="3.84837">
        <ele>1318.480592</ele>
        <time>2019-10-05T09:04:59.0660Z</time>
      </trkpt>
      <trkpt lat="45.59007" lon="3.84863">
        <ele>1321.038679</ele>
        <time>2019-10-05T09:05:18.0940Z</time>
      </trkpt>
      <trkpt lat="45.59001" lon="3.84889">
        <ele>1323.128245</ele>
        <time>2019-10-05T09:05:35.0640Z</time>
      </trkpt>
      <trkpt lat="45.58995" lon="3.84914">
        <ele>1325.745875</ele>
        <time>2019-10-05T09:05:52.0570Z</time>
      </trkpt>
      <trkpt lat="45.5899" lon="3.8494">
        <ele>1327.596398</ele>
        <time>2019-10-05T09:06:10.0570Z</time>
      </trkpt>
      <trkpt lat="45.58983" lon="3.84964">
        <ele>1329.496316</ele>
        <time>2019-10-05T09:06:25.0860Z</time>
      </trkpt>
      <trkpt lat="45.5898" lon="3.8499">
        <ele>1331.595396</ele>
        <time>2019-10-05T09:06:41.0590Z</time>
      </trkpt>
      <trkpt lat="45.58977" lon="3.85016">
        <ele>1332.231772</ele>
        <time>2019-10-05T09:06:55.0840Z</time>
      </trkpt>
      <trkpt lat="45.58979" lon="3.85043">
        <ele>1330.702689</ele>
        <time>2019-10-05T09:07:10.0860Z</time>
      </trkpt>
      <trkpt lat="45.58978" lon="3.85069">
        <ele>1328.769694</ele>
        <time>2019-10-05T09:07:25.0830Z</time>
      </trkpt>
      <trkpt lat="45.5898" lon="3.85095">
        <ele>1327.497942</ele>
        <time>2019-10-05T09:07:42.0850Z</time>
      </trkpt>
      <trkpt lat="45.58976" lon="3.85122">
        <ele>1326.638907</ele>
        <time>2019-10-05T09:07:55.0730Z</time>
      </trkpt>
      <trkpt lat="45.58975" lon="3.85147">
        <ele>1325.869957</ele>
        <time>2019-10-05T09:08:09.0920Z</time>
      </trkpt>
      <trkpt lat="45.58976" lon="3.85175">
        <ele>1325.032247</ele>
        <time>2019-10-05T09:08:22.0930Z</time>
      </trkpt>
      <trkpt lat="45.58978" lon="3.85202">
        <ele>1324.492219</ele>
        <time>2019-10-05T09:08:36.1540Z</time>
      </trkpt>
      <trkpt lat="45.58978" lon="3.85228">
        <ele>1323.991056</ele>
        <time>2019-10-05T09:08:52.0960Z</time>
      </trkpt>
      <trkpt lat="45.58974" lon="3.85254">
        <ele>1323.521921</ele>
        <time>2019-10-05T09:09:06.0990Z</time>
      </trkpt>
      <trkpt lat="45.58977" lon="3.8528">
        <ele>1323.97071</ele>
        <time>2019-10-05T09:09:18.0650Z</time>
      </trkpt>
      <trkpt lat="45.58982" lon="3.85307">
        <ele>1323.629953</ele>
        <time>2019-10-05T09:09:31.0720Z</time>
      </trkpt>
      <trkpt lat="45.58986" lon="3.85333">
        <ele>1323.783961</ele>
        <time>2019-10-05T09:09:44.0590Z</time>
      </trkpt>
      <trkpt lat="45.58988" lon="3.8536">
        <ele>1323.621995</ele>
        <time>2019-10-05T09:09:59.0920Z</time>
      </trkpt>
      <trkpt lat="45.5899" lon="3.85386">
        <ele>1323.977419</ele>
        <time>2019-10-05T09:10:12.0940Z</time>
      </trkpt>
      <trkpt lat="45.58986" lon="3.85411">
        <ele>1324.450845</ele>
        <time>2019-10-05T09:10:25.0750Z</time>
      </trkpt>
      <trkpt lat="45.58984" lon="3.85438">
        <ele>1324.986494</ele>
        <time>2019-10-05T09:10:40.0570Z</time>
      </trkpt>
      <trkpt lat="45.58986" lon="3.85465">
        <ele>1324.000946</ele>
        <time>2019-10-05T09:10:55.0580Z</time>
      </trkpt>
      <trkpt lat="45.58993" lon="3.85489">
        <ele>1321.63535</ele>
        <time>2019-10-05T09:11:11.0710Z</time>
      </trkpt>
      <trkpt lat="45.58998" lon="3.85516">
        <ele>1319.454557</ele>
        <time>2019-10-05T09:11:26.0900Z</time>
      </trkpt>
      <trkpt lat="45.58994" lon="3.85541">
        <ele>1316.974095</ele>
        <time>2019-10-05T09:11:39.1210Z</time>
      </trkpt>
      <trkpt lat="45.58991" lon="3.85568">
        <ele>1314.476163</ele>
        <time>2019-10-05T09:11:53.0570Z</time>
      </trkpt>
      <trkpt lat="45.58991" lon="3.85595">
        <ele>1313.44012</ele>
        <time>2019-10-05T09:12:04.0630Z</time>
      </trkpt>
      <trkpt lat="45.58985" lon="3.8562">
        <ele>1313.454686</ele>
        <time>2019-10-05T09:12:17.2880Z</time>
      </trkpt>
      <trkpt lat="45.58978" lon="3.85645">
        <ele>1313.466698</ele>
        <time>2019-10-05T09:12:32.0590Z</time>
      </trkpt>
      <trkpt lat="45.5897" lon="3.8567">
        <ele>1312.477214</ele>
        <time>2019-10-05T09:12:47.0630Z</time>
      </trkpt>
      <trkpt lat="45.58961" lon="3.85694">
        <ele>1310.263409</ele>
        <time>2019-10-05T09:13:01.0600Z</time>
      </trkpt>
      <trkpt lat="45.58953" lon="3.85719">
        <ele>1307.652099</ele>
        <time>2019-10-05T09:13:14.0650Z</time>
      </trkpt>
      <trkpt lat="45.58941" lon="3.85739">
        <ele>1305.047479</ele>
        <time>2019-10-05T09:13:28.0990Z</time>
      </trkpt>
      <trkpt lat="45.58932" lon="3.85763">
        <ele>1301.326398</ele>
        <time>2019-10-05T09:13:42.0570Z</time>
      </trkpt>
      <trkpt lat="45.58922" lon="3.85785">
        <ele>1299.790728</ele>
        <time>2019-10-05T09:13:55.0720Z</time>
      </trkpt>
      <trkpt lat="45.58911" lon="3.85806">
        <ele>1298.490256</ele>
        <time>2019-10-05T09:14:08.0960Z</time>
      </trkpt>
      <trkpt lat="45.58898" lon="3.85824">
        <ele>1296.16595</ele>
        <time>2019-10-05T09:14:20.0590Z</time>
      </trkpt>
      <trkpt lat="45.58887" lon="3.85845">
        <ele>1294.831181</ele>
        <time>2019-10-05T09:14:33.0780Z</time>
      </trkpt>
      <trkpt lat="45.5888" lon="3.85869">
        <ele>1293.222953</ele>
        <time>2019-10-05T09:14:46.0630Z</time>
      </trkpt>
      <trkpt lat="45.58872" lon="3.85894">
        <ele>1290.691723</ele>
        <time>2019-10-05T09:14:59.0620Z</time>
      </trkpt>
      <trkpt lat="45.58865" lon="3.8592">
        <ele>1289.533382</ele>
        <time>2019-10-05T09:15:12.0980Z</time>
      </trkpt>
      <trkpt lat="45.5886" lon="3.85946">
        <ele>1287.635179</ele>
        <time>2019-10-05T09:15:25.0890Z</time>
      </trkpt>
      <trkpt lat="45.58857" lon="3.85972">
        <ele>1287.352299</ele>
        <time>2019-10-05T09:15:37.0770Z</time>
      </trkpt>
      <trkpt lat="45.58871" lon="3.85988">
        <ele>1285.883105</ele>
        <time>2019-10-05T09:15:58.3540Z</time>
      </trkpt>
      <trkpt lat="45.58888" lon="3.85979">
        <ele>1285.479266</ele>
        <time>2019-10-05T09:16:12.0870Z</time>
      </trkpt>
      <trkpt lat="45.58906" lon="3.85969">
        <ele>1284.817264</ele>
        <time>2019-10-05T09:16:26.0950Z</time>
      </trkpt>
      <trkpt lat="45.58925" lon="3.85967">
        <ele>1281.617896</ele>
        <time>2019-10-05T09:16:40.0880Z</time>
      </trkpt>
      <trkpt lat="45.58938" lon="3.85987">
        <ele>1278.629653</ele>
        <time>2019-10-05T09:16:55.0960Z</time>
      </trkpt>
      <trkpt lat="45.58942" lon="3.86014">
        <ele>1275.993439</ele>
        <time>2019-10-05T09:17:09.0950Z</time>
      </trkpt>
      <trkpt lat="45.58943" lon="3.8604">
        <ele>1274.573144</ele>
        <time>2019-10-05T09:17:22.0850Z</time>
      </trkpt>
      <trkpt lat="45.58937" lon="3.86067">
        <ele>1273.52312</ele>
        <time>2019-10-05T09:17:36.1190Z</time>
      </trkpt>
      <trkpt lat="45.5893" lon="3.86092">
        <ele>1272.556977</ele>
        <time>2019-10-05T09:17:50.0920Z</time>
      </trkpt>
      <trkpt lat="45.58921" lon="3.86116">
        <ele>1271.764404</ele>
        <time>2019-10-05T09:18:04.1050Z</time>
      </trkpt>
      <trkpt lat="45.58919" lon="3.86142">
        <ele>1268.521266</ele>
        <time>2019-10-05T09:18:20.0940Z</time>
      </trkpt>
      <trkpt lat="45.5892" lon="3.86168">
        <ele>1265.807268</ele>
        <time>2019-10-05T09:18:32.0890Z</time>
      </trkpt>
      <trkpt lat="45.58917" lon="3.86195">
        <ele>1264.835831</ele>
        <time>2019-10-05T09:18:46.0960Z</time>
      </trkpt>
      <trkpt lat="45.58923" lon="3.86221">
        <ele>1262.086882</ele>
        <time>2019-10-05T09:19:01.0800Z</time>
      </trkpt>
      <trkpt lat="45.58919" lon="3.86247">
        <ele>1261.889784</ele>
        <time>2019-10-05T09:19:16.1460Z</time>
      </trkpt>
      <trkpt lat="45.58917" lon="3.86274">
        <ele>1260.759599</ele>
        <time>2019-10-05T09:19:28.0620Z</time>
      </trkpt>
      <trkpt lat="45.58922" lon="3.86299">
        <ele>1258.920038</ele>
        <time>2019-10-05T09:19:42.0660Z</time>
      </trkpt>
      <trkpt lat="45.58913" lon="3.86324">
        <ele>1259.349683</ele>
        <time>2019-10-05T09:19:57.0590Z</time>
      </trkpt>
      <trkpt lat="45.58904" lon="3.86348">
        <ele>1258.192915</ele>
        <time>2019-10-05T09:20:11.0640Z</time>
      </trkpt>
      <trkpt lat="45.58901" lon="3.86374">
        <ele>1254.980816</ele>
        <time>2019-10-05T09:20:26.0710Z</time>
      </trkpt>
      <trkpt lat="45.58908" lon="3.86399">
        <ele>1272.349209</ele>
        <time>2019-10-05T09:20:42.0600Z</time>
      </trkpt>
      <trkpt lat="45.58916" lon="3.86424">
        <ele>1250.869051</ele>
        <time>2019-10-05T09:20:55.0730Z</time>
      </trkpt>
      <trkpt lat="45.58922" lon="3.8645">
        <ele>1269.577969</ele>
        <time>2019-10-05T09:21:08.0630Z</time>
      </trkpt>
      <trkpt lat="45.5893" lon="3.86474">
        <ele>1248.207743</ele>
        <time>2019-10-05T09:21:21.0640Z</time>
      </trkpt>
      <trkpt lat="45.5894" lon="3.86496">
        <ele>1246.891943</ele>
        <time>2019-10-05T09:21:34.1030Z</time>
      </trkpt>
      <trkpt lat="45.58929" lon="3.8652">
        <ele>1245.379159</ele>
        <time>2019-10-05T09:21:50.0610Z</time>
      </trkpt>
      <trkpt lat="45.58912" lon="3.86531">
        <ele>1244.191836</ele>
        <time>2019-10-05T09:22:04.0600Z</time>
      </trkpt>
      <trkpt lat="45.58895" lon="3.86545">
        <ele>1261.29855</ele>
        <time>2019-10-05T09:22:17.0610Z</time>
      </trkpt>
      <trkpt lat="45.58877" lon="3.86552">
        <ele>1260.864956</ele>
        <time>2019-10-05T09:22:30.0590Z</time>
      </trkpt>
      <trkpt lat="45.58858" lon="3.86557">
        <ele>1260.59042</ele>
        <time>2019-10-05T09:22:42.0600Z</time>
      </trkpt>
      <trkpt lat="45.5884" lon="3.86565">
        <ele>1259.334927</ele>
        <time>2019-10-05T09:22:54.0830Z</time>
      </trkpt>
      <trkpt lat="45.58824" lon="3.86577">
        <ele>1259.900845</ele>
        <time>2019-10-05T09:23:06.0670Z</time>
      </trkpt>
      <trkpt lat="45.58808" lon="3.86589">
        <ele>1259.199673</ele>
        <time>2019-10-05T09:23:19.0650Z</time>
      </trkpt>
      <trkpt lat="45.58792" lon="3.86606">
        <ele>1258.154385</ele>
        <time>2019-10-05T09:23:33.0590Z</time>
      </trkpt>
      <trkpt lat="45.58783" lon="3.86629">
        <ele>1256.607754</ele>
        <time>2019-10-05T09:23:45.0640Z</time>
      </trkpt>
      <trkpt lat="45.58775" lon="3.86653">
        <ele>1254.391201</ele>
        <time>2019-10-05T09:23:58.0830Z</time>
      </trkpt>
      <trkpt lat="45.58766" lon="3.86678">
        <ele>1251.752773</ele>
        <time>2019-10-05T09:24:11.0920Z</time>
      </trkpt>
      <trkpt lat="45.58751" lon="3.86694">
        <ele>1250.994839</ele>
        <time>2019-10-05T09:24:26.6000Z</time>
      </trkpt>
      <trkpt lat="45.58732" lon="3.86697">
        <ele>1249.646938</ele>
        <time>2019-10-05T09:24:39.0610Z</time>
      </trkpt>
      <trkpt lat="45.58713" lon="3.86695">
        <ele>1248.468349</ele>
        <time>2019-10-05T09:24:51.0940Z</time>
      </trkpt>
      <trkpt lat="45.58695" lon="3.86697">
        <ele>1246.611172</ele>
        <time>2019-10-05T09:25:03.0980Z</time>
      </trkpt>
      <trkpt lat="45.58676" lon="3.867">
        <ele>1245.833462</ele>
        <time>2019-10-05T09:25:15.0900Z</time>
      </trkpt>
      <trkpt lat="45.58657" lon="3.86702">
        <ele>1245.65646</ele>
        <time>2019-10-05T09:25:28.0910Z</time>
      </trkpt>
      <trkpt lat="45.58638" lon="3.86703">
        <ele>1245.127529</ele>
        <time>2019-10-05T09:25:41.0620Z</time>
      </trkpt>
      <trkpt lat="45.5862" lon="3.86712">
        <ele>1242.853481</ele>
        <time>2019-10-05T09:25:54.0800Z</time>
      </trkpt>
      <trkpt lat="45.58601" lon="3.86718">
        <ele>1242.123501</ele>
        <time>2019-10-05T09:26:07.1060Z</time>
      </trkpt>
      <trkpt lat="45.58584" lon="3.86728">
        <ele>1240.881557</ele>
        <time>2019-10-05T09:26:19.0640Z</time>
      </trkpt>
      <trkpt lat="45.58565" lon="3.86737">
        <ele>1239.534267</ele>
        <time>2019-10-05T09:26:32.0590Z</time>
      </trkpt>
      <trkpt lat="45.58547" lon="3.86743">
        <ele>1238.876553</ele>
        <time>2019-10-05T09:26:45.0590Z</time>
      </trkpt>
      <trkpt lat="45.5853" lon="3.86752">
        <ele>1237.072598</ele>
        <time>2019-10-05T09:26:58.0900Z</time>
      </trkpt>
      <trkpt lat="45.58511" lon="3.86756">
        <ele>1234.902554</ele>
        <time>2019-10-05T09:27:12.0750Z</time>
      </trkpt>
      <trkpt lat="45.58493" lon="3.86762">
        <ele>1232.681728</ele>
        <time>2019-10-05T09:27:25.0810Z</time>
      </trkpt>
      <trkpt lat="45.58474" lon="3.86769">
        <ele>1230.911709</ele>
        <time>2019-10-05T09:27:38.0630Z</time>
      </trkpt>
      <trkpt lat="45.58463" lon="3.8679">
        <ele>1228.8027</ele>
        <time>2019-10-05T09:27:51.0630Z</time>
      </trkpt>
      <trkpt lat="45.58452" lon="3.8681">
        <ele>1226.284634</ele>
        <time>2019-10-05T09:28:05.0600Z</time>
      </trkpt>
      <trkpt lat="45.58441" lon="3.8683">
        <ele>1224.012539</ele>
        <time>2019-10-05T09:28:19.0670Z</time>
      </trkpt>
      <trkpt lat="45.58425" lon="3.86844">
        <ele>1223.481045</ele>
        <time>2019-10-05T09:28:33.0560Z</time>
      </trkpt>
      <trkpt lat="45.58406" lon="3.86844">
        <ele>1221.803188</ele>
        <time>2019-10-05T09:28:47.0610Z</time>
      </trkpt>
      <trkpt lat="45.58387" lon="3.86843">
        <ele>1220.890591</ele>
        <time>2019-10-05T09:29:01.0610Z</time>
      </trkpt>
      <trkpt lat="45.58369" lon="3.86842">
        <ele>1218.689175</ele>
        <time>2019-10-05T09:29:15.0660Z</time>
      </trkpt>
      <trkpt lat="45.5835" lon="3.86847">
        <ele>1215.640957</ele>
        <time>2019-10-05T09:29:29.0590Z</time>
      </trkpt>
      <trkpt lat="45.58345" lon="3.86874">
        <ele>1213.386562</ele>
        <time>2019-10-05T09:29:42.0620Z</time>
      </trkpt>
      <trkpt lat="45.58344" lon="3.86899">
        <ele>1210.825649</ele>
        <time>2019-10-05T09:30:01.0590Z</time>
      </trkpt>
      <trkpt lat="45.5834" lon="3.86925">
        <ele>1208.066128</ele>
        <time>2019-10-05T09:30:18.0600Z</time>
      </trkpt>
      <trkpt lat="45.58344" lon="3.86952">
        <ele>1205.776699</ele>
        <time>2019-10-05T09:30:34.0580Z</time>
      </trkpt>
      <trkpt lat="45.58356" lon="3.86973">
        <ele>1204.850185</ele>
        <time>2019-10-05T09:30:50.0840Z</time>
      </trkpt>
      <trkpt lat="45.58363" lon="3.86997">
        <ele>1203.981411</ele>
        <time>2019-10-05T09:31:07.0820Z</time>
      </trkpt>
      <trkpt lat="45.5835" lon="3.87014">
        <ele>1200.969814</ele>
        <time>2019-10-05T09:31:27.0570Z</time>
      </trkpt>
      <trkpt lat="45.58337" lon="3.87034">
        <ele>1199.718594</ele>
        <time>2019-10-05T09:31:39.0940Z</time>
      </trkpt>
      <trkpt lat="45.5833" lon="3.87059">
        <ele>1197.628872</ele>
        <time>2019-10-05T09:31:54.0900Z</time>
      </trkpt>
      <trkpt lat="45.58321" lon="3.87083">
        <ele>1192.316494</ele>
        <time>2019-10-05T09:32:06.0980Z</time>
      </trkpt>
      <trkpt lat="45.58305" lon="3.87099">
        <ele>1191.627163</ele>
        <time>2019-10-05T09:32:17.0870Z</time>
      </trkpt>
      <trkpt lat="45.58301" lon="3.87124">
        <ele>1189.226162</ele>
        <time>2019-10-05T09:32:31.0810Z</time>
      </trkpt>
      <trkpt lat="45.5829" lon="3.87145">
        <ele>1187.732754</ele>
        <time>2019-10-05T09:32:44.0960Z</time>
      </trkpt>
      <trkpt lat="45.58273" lon="3.87155">
        <ele>1182.712856</ele>
        <time>2019-10-05T09:33:02.0900Z</time>
      </trkpt>
      <trkpt lat="45.58266" lon="3.87179">
        <ele>1180.914272</ele>
        <time>2019-10-05T09:33:15.0960Z</time>
      </trkpt>
      <trkpt lat="45.58249" lon="3.87189">
        <ele>1178.570644</ele>
        <time>2019-10-05T09:33:29.0610Z</time>
      </trkpt>
      <trkpt lat="45.58231" lon="3.87194">
        <ele>1176.678677</ele>
        <time>2019-10-05T09:33:43.0680Z</time>
      </trkpt>
      <trkpt lat="45.58215" lon="3.87207">
        <ele>1174.39291</ele>
        <time>2019-10-05T09:33:56.1030Z</time>
      </trkpt>
      <trkpt lat="45.58198" lon="3.87218">
        <ele>1173.178432</ele>
        <time>2019-10-05T09:34:09.0980Z</time>
      </trkpt>
      <trkpt lat="45.58181" lon="3.87228">
        <ele>1172.579922</ele>
        <time>2019-10-05T09:34:22.0810Z</time>
      </trkpt>
      <trkpt lat="45.58163" lon="3.87238">
        <ele>1173.008877</ele>
        <time>2019-10-05T09:34:36.0900Z</time>
      </trkpt>
      <trkpt lat="45.58147" lon="3.87253">
        <ele>1173.672085</ele>
        <time>2019-10-05T09:34:50.0770Z</time>
      </trkpt>
      <trkpt lat="45.58129" lon="3.87254">
        <ele>1174.281582</ele>
        <time>2019-10-05T09:35:05.0950Z</time>
      </trkpt>
      <trkpt lat="45.58111" lon="3.87259">
        <ele>1173.865932</ele>
        <time>2019-10-05T09:35:17.0950Z</time>
      </trkpt>
      <trkpt lat="45.58094" lon="3.8727">
        <ele>1173.621548</ele>
        <time>2019-10-05T09:35:32.0610Z</time>
      </trkpt>
      <trkpt lat="45.58077" lon="3.87282">
        <ele>1174.147182</ele>
        <time>2019-10-05T09:35:46.1000Z</time>
      </trkpt>
      <trkpt lat="45.58061" lon="3.87297">
        <ele>1175.49667</ele>
        <time>2019-10-05T09:36:03.1120Z</time>
      </trkpt>
      <trkpt lat="45.58043" lon="3.87305">
        <ele>1178.245693</ele>
        <time>2019-10-05T09:36:21.0900Z</time>
      </trkpt>
      <trkpt lat="45.58027" lon="3.87317">
        <ele>1179.837368</ele>
        <time>2019-10-05T09:36:38.0920Z</time>
      </trkpt>
      <trkpt lat="45.58009" lon="3.87327">
        <ele>1181.96603</ele>
        <time>2019-10-05T09:36:55.0940Z</time>
      </trkpt>
      <trkpt lat="45.57993" lon="3.8734">
        <ele>1182.620205</ele>
        <time>2019-10-05T09:37:13.0910Z</time>
      </trkpt>
      <trkpt lat="45.58" lon="3.87363">
        <ele>1185.966518</ele>
        <time>2019-10-05T09:37:36.1170Z</time>
      </trkpt>
      <trkpt lat="45.58015" lon="3.8738">
        <ele>1187.68832</ele>
        <time>2019-10-05T09:37:53.0900Z</time>
      </trkpt>
      <trkpt lat="45.58026" lon="3.874">
        <ele>1189.211269</ele>
        <time>2019-10-05T09:38:08.0880Z</time>
      </trkpt>
      <trkpt lat="45.58038" lon="3.8742">
        <ele>1191.308071</ele>
        <time>2019-10-05T09:38:24.0930Z</time>
      </trkpt>
      <trkpt lat="45.58047" lon="3.87444">
        <ele>1194.928677</ele>
        <time>2019-10-05T09:38:39.0930Z</time>
      </trkpt>
      <trkpt lat="45.58053" lon="3.87469">
        <ele>1196.369106</ele>
        <time>2019-10-05T09:38:54.0890Z</time>
      </trkpt>
      <trkpt lat="45.58056" lon="3.87496">
        <ele>1197.982265</ele>
        <time>2019-10-05T09:39:09.0930Z</time>
      </trkpt>
      <trkpt lat="45.58054" lon="3.87522">
        <ele>1200.112392</ele>
        <time>2019-10-05T09:39:25.0910Z</time>
      </trkpt>
      <trkpt lat="45.58051" lon="3.87547">
        <ele>1203.005337</ele>
        <time>2019-10-05T09:39:39.0990Z</time>
      </trkpt>
      <trkpt lat="45.58049" lon="3.87573">
        <ele>1205.634365</ele>
        <time>2019-10-05T09:39:53.0680Z</time>
      </trkpt>
      <trkpt lat="45.58048" lon="3.876">
        <ele>1206.275478</ele>
        <time>2019-10-05T09:40:07.0630Z</time>
      </trkpt>
      <trkpt lat="45.58046" lon="3.87627">
        <ele>1206.944546</ele>
        <time>2019-10-05T09:40:21.0610Z</time>
      </trkpt>
      <trkpt lat="45.58041" lon="3.87652">
        <ele>1207.140469</ele>
        <time>2019-10-05T09:40:34.0610Z</time>
      </trkpt>
      <trkpt lat="45.58032" lon="3.87676">
        <ele>1208.369106</ele>
        <time>2019-10-05T09:40:47.0910Z</time>
      </trkpt>
      <trkpt lat="45.58026" lon="3.87701">
        <ele>1209.19772</ele>
        <time>2019-10-05T09:41:00.0940Z</time>
      </trkpt>
      <trkpt lat="45.58018" lon="3.87725">
        <ele>1209.891811</ele>
        <time>2019-10-05T09:41:13.0620Z</time>
      </trkpt>
      <trkpt lat="45.58007" lon="3.87747">
        <ele>1210.528286</ele>
        <time>2019-10-05T09:41:26.1240Z</time>
      </trkpt>
      <trkpt lat="45.57995" lon="3.87768">
        <ele>1211.731411</ele>
        <time>2019-10-05T09:41:39.0620Z</time>
      </trkpt>
      <trkpt lat="45.57984" lon="3.87788">
        <ele>1213.75375</ele>
        <time>2019-10-05T09:41:52.1010Z</time>
      </trkpt>
      <trkpt lat="45.57974" lon="3.87812">
        <ele>1213.622402</ele>
        <time>2019-10-05T09:42:06.0700Z</time>
      </trkpt>
      <trkpt lat="45.57964" lon="3.87836">
        <ele>1214.512295</ele>
        <time>2019-10-05T09:42:19.0650Z</time>
      </trkpt>
      <trkpt lat="45.57957" lon="3.8786">
        <ele>1215.117764</ele>
        <time>2019-10-05T09:42:32.0600Z</time>
      </trkpt>
      <trkpt lat="45.57948" lon="3.87884">
        <ele>1216.313808</ele>
        <time>2019-10-05T09:42:46.0610Z</time>
      </trkpt>
      <trkpt lat="45.57941" lon="3.8791">
        <ele>1218.045986</ele>
        <time>2019-10-05T09:42:59.0640Z</time>
      </trkpt>
      <trkpt lat="45.57939" lon="3.87936">
        <ele>1218.236172</ele>
        <time>2019-10-05T09:43:12.0610Z</time>
      </trkpt>
      <trkpt lat="45.57934" lon="3.87962">
        <ele>1220.181362</ele>
        <time>2019-10-05T09:43:25.0600Z</time>
      </trkpt>
      <trkpt lat="45.57929" lon="3.87987">
        <ele>1222.100552</ele>
        <time>2019-10-05T09:43:37.0600Z</time>
      </trkpt>
      <trkpt lat="45.57926" lon="3.88013">
        <ele>1223.815517</ele>
        <time>2019-10-05T09:43:51.0710Z</time>
      </trkpt>
      <trkpt lat="45.57923" lon="3.88038">
        <ele>1225.304775</ele>
        <time>2019-10-05T09:44:04.0570Z</time>
      </trkpt>
      <trkpt lat="45.57919" lon="3.88065">
        <ele>1226.359341</ele>
        <time>2019-10-05T09:44:17.0580Z</time>
      </trkpt>
      <trkpt lat="45.57913" lon="3.88091">
        <ele>1227.378628</ele>
        <time>2019-10-05T09:44:30.0570Z</time>
      </trkpt>
      <trkpt lat="45.5791" lon="3.88118">
        <ele>1227.46957</ele>
        <time>2019-10-05T09:44:44.0580Z</time>
      </trkpt>
      <trkpt lat="45.57904" lon="3.88143">
        <ele>1231.443691</ele>
        <time>2019-10-05T09:46:26.0640Z</time>
      </trkpt>
      <trkpt lat="45.57905" lon="3.88169">
        <ele>1232.906948</ele>
        <time>2019-10-05T09:46:41.0560Z</time>
      </trkpt>
      <trkpt lat="45.5791" lon="3.88195">
        <ele>1234.716518</ele>
        <time>2019-10-05T09:46:55.0910Z</time>
      </trkpt>
      <trkpt lat="45.57919" lon="3.88218">
        <ele>1234.779995</ele>
        <time>2019-10-05T09:47:10.0580Z</time>
      </trkpt>
      <trkpt lat="45.57933" lon="3.88237">
        <ele>1236.040371</ele>
        <time>2019-10-05T09:47:23.0670Z</time>
      </trkpt>
      <trkpt lat="45.57942" lon="3.8826">
        <ele>1235.645596</ele>
        <time>2019-10-05T09:47:35.0710Z</time>
      </trkpt>
      <trkpt lat="45.57955" lon="3.8828">
        <ele>1236.005459</ele>
        <time>2019-10-05T09:47:48.0890Z</time>
      </trkpt>
      <trkpt lat="45.5797" lon="3.88295">
        <ele>1235.563808</ele>
        <time>2019-10-05T09:48:02.0890Z</time>
      </trkpt>
      <trkpt lat="45.57973" lon="3.88321">
        <ele>1235.977893</ele>
        <time>2019-10-05T09:48:18.0800Z</time>
      </trkpt>
      <trkpt lat="45.57956" lon="3.88336">
        <ele>1237.25021</ele>
        <time>2019-10-05T09:48:33.0610Z</time>
      </trkpt>
      <trkpt lat="45.57944" lon="3.88354">
        <ele>1239.597913</ele>
        <time>2019-10-05T09:48:49.0640Z</time>
      </trkpt>
      <trkpt lat="45.57931" lon="3.88374">
        <ele>1242.435115</ele>
        <time>2019-10-05T09:49:08.0590Z</time>
      </trkpt>
      <trkpt lat="45.57922" lon="3.88398">
        <ele>1244.540708</ele>
        <time>2019-10-05T09:49:25.0710Z</time>
      </trkpt>
      <trkpt lat="45.57922" lon="3.88423">
        <ele>1245.879963</ele>
        <time>2019-10-05T09:49:40.0600Z</time>
      </trkpt>
      <trkpt lat="45.5794" lon="3.88417">
        <ele>1249.247634</ele>
        <time>2019-10-05T09:50:17.1100Z</time>
      </trkpt>
      <trkpt lat="45.57959" lon="3.88413">
        <ele>1250.115793</ele>
        <time>2019-10-05T09:50:32.1250Z</time>
      </trkpt>
      <trkpt lat="45.57952" lon="3.88438">
        <ele>1249.387227</ele>
        <time>2019-10-05T09:50:55.0710Z</time>
      </trkpt>
      <trkpt lat="45.5794" lon="3.88459">
        <ele>1248.965561</ele>
        <time>2019-10-05T09:51:10.0780Z</time>
      </trkpt>
      <trkpt lat="45.57931" lon="3.88483">
        <ele>1250.51524</ele>
        <time>2019-10-05T09:51:24.0590Z</time>
      </trkpt>
      <trkpt lat="45.57926" lon="3.88507">
        <ele>1251.993615</ele>
        <time>2019-10-05T09:51:38.0590Z</time>
      </trkpt>
      <trkpt lat="45.5792" lon="3.88533">
        <ele>1253.258232</ele>
        <time>2019-10-05T09:51:52.0590Z</time>
      </trkpt>
      <trkpt lat="45.57916" lon="3.88559">
        <ele>1254.687658</ele>
        <time>2019-10-05T09:52:07.0590Z</time>
      </trkpt>
      <trkpt lat="45.5791" lon="3.88583">
        <ele>1257.466499</ele>
        <time>2019-10-05T09:52:24.0650Z</time>
      </trkpt>
      <trkpt lat="45.57901" lon="3.88607">
        <ele>1259.479303</ele>
        <time>2019-10-05T09:52:40.0860Z</time>
      </trkpt>
      <trkpt lat="45.57895" lon="3.88631">
        <ele>1261.75171</ele>
        <time>2019-10-05T09:52:55.0860Z</time>
      </trkpt>
      <trkpt lat="45.57887" lon="3.88655">
        <ele>1263.77835</ele>
        <time>2019-10-05T09:53:11.0890Z</time>
      </trkpt>
      <trkpt lat="45.57881" lon="3.88679">
        <ele>1266.193726</ele>
        <time>2019-10-05T09:53:28.0600Z</time>
      </trkpt>
      <trkpt lat="45.57872" lon="3.88703">
        <ele>1267.842316</ele>
        <time>2019-10-05T09:53:43.0920Z</time>
      </trkpt>
      <trkpt lat="45.57862" lon="3.88725">
        <ele>1269.899847</ele>
        <time>2019-10-05T09:53:58.0900Z</time>
      </trkpt>
      <trkpt lat="45.57852" lon="3.88748">
        <ele>1271.276846</ele>
        <time>2019-10-05T09:54:13.0920Z</time>
      </trkpt>
      <trkpt lat="45.57851" lon="3.88773">
        <ele>1273.169088</ele>
        <time>2019-10-05T09:54:29.0930Z</time>
      </trkpt>
      <trkpt lat="45.57845" lon="3.88798">
        <ele>1274.922993</ele>
        <time>2019-10-05T09:54:44.0900Z</time>
      </trkpt>
      <trkpt lat="45.57844" lon="3.88825">
        <ele>1276.31244</ele>
        <time>2019-10-05T09:54:59.1070Z</time>
      </trkpt>
      <trkpt lat="45.5784" lon="3.88851">
        <ele>1277.434955</ele>
        <time>2019-10-05T09:55:14.0920Z</time>
      </trkpt>
      <trkpt lat="45.57837" lon="3.88877">
        <ele>1278.784031</ele>
        <time>2019-10-05T09:55:29.0960Z</time>
      </trkpt>
      <trkpt lat="45.5784" lon="3.88905">
        <ele>1280.229966</ele>
        <time>2019-10-05T09:55:45.0880Z</time>
      </trkpt>
      <trkpt lat="45.57838" lon="3.88931">
        <ele>1280.688984</ele>
        <time>2019-10-05T09:56:00.0880Z</time>
      </trkpt>
      <trkpt lat="45.57837" lon="3.88957">
        <ele>1281.170443</ele>
        <time>2019-10-05T09:56:15.3650Z</time>
      </trkpt>
      <trkpt lat="45.57842" lon="3.88982">
        <ele>1282.01397</ele>
        <time>2019-10-05T09:56:30.0580Z</time>
      </trkpt>
      <trkpt lat="45.57847" lon="3.89009">
        <ele>1282.982799</ele>
        <time>2019-10-05T09:56:48.0620Z</time>
      </trkpt>
      <trkpt lat="45.57853" lon="3.89035">
        <ele>1284.022778</ele>
        <time>2019-10-05T09:57:02.0910Z</time>
      </trkpt>
      <trkpt lat="45.57856" lon="3.8906">
        <ele>1285.084505</ele>
        <time>2019-10-05T09:57:16.0990Z</time>
      </trkpt>
      <trkpt lat="45.57861" lon="3.89086">
        <ele>1285.304192</ele>
        <time>2019-10-05T09:57:31.0990Z</time>
      </trkpt>
      <trkpt lat="45.57863" lon="3.89113">
        <ele>1284.327373</ele>
        <time>2019-10-05T09:57:45.0710Z</time>
      </trkpt>
      <trkpt lat="45.57867" lon="3.89138">
        <ele>1282.976887</ele>
        <time>2019-10-05T09:57:57.0990Z</time>
      </trkpt>
      <trkpt lat="45.57871" lon="3.89163">
        <ele>1281.82789</ele>
        <time>2019-10-05T09:58:10.0820Z</time>
      </trkpt>
      <trkpt lat="45.57878" lon="3.89189">
        <ele>1281.011343</ele>
        <time>2019-10-05T09:58:24.0860Z</time>
      </trkpt>
      <trkpt lat="45.57889" lon="3.89212">
        <ele>1280.034936</ele>
        <time>2019-10-05T09:58:37.0910Z</time>
      </trkpt>
      <trkpt lat="45.57898" lon="3.89234">
        <ele>1279.120983</ele>
        <time>2019-10-05T09:58:51.0850Z</time>
      </trkpt>
      <trkpt lat="45.57907" lon="3.89258">
        <ele>1277.842565</ele>
        <time>2019-10-05T09:59:05.0820Z</time>
      </trkpt>
      <trkpt lat="45.57918" lon="3.89281">
        <ele>1277.336269</ele>
        <time>2019-10-05T09:59:19.0880Z</time>
      </trkpt>
      <trkpt lat="45.57928" lon="3.89303">
        <ele>1276.60244</ele>
        <time>2019-10-05T09:59:33.0900Z</time>
      </trkpt>
      <trkpt lat="45.5794" lon="3.89324">
        <ele>1276.22782</ele>
        <time>2019-10-05T09:59:46.0940Z</time>
      </trkpt>
      <trkpt lat="45.57951" lon="3.89345">
        <ele>1275.962711</ele>
        <time>2019-10-05T09:59:59.0650Z</time>
      </trkpt>
      <trkpt lat="45.57962" lon="3.89366">
        <ele>1274.957109</ele>
        <time>2019-10-05T10:00:13.0990Z</time>
      </trkpt>
      <trkpt lat="45.57974" lon="3.89386">
        <ele>1274.639515</ele>
        <time>2019-10-05T10:00:26.0740Z</time>
      </trkpt>
      <trkpt lat="45.57988" lon="3.89405">
        <ele>1273.463665</ele>
        <time>2019-10-05T10:00:40.0750Z</time>
      </trkpt>
      <trkpt lat="45.57999" lon="3.89427">
        <ele>1271.740339</ele>
        <time>2019-10-05T10:00:55.0870Z</time>
      </trkpt>
      <trkpt lat="45.5801" lon="3.89448">
        <ele>1278.057565</ele>
        <time>2019-10-05T10:01:08.0860Z</time>
      </trkpt>
      <trkpt lat="45.58021" lon="3.89469">
        <ele>1277.507103</ele>
        <time>2019-10-05T10:01:21.0870Z</time>
      </trkpt>
      <trkpt lat="45.58033" lon="3.89488">
        <ele>1274.657002</ele>
        <time>2019-10-05T10:01:37.0570Z</time>
      </trkpt>
      <trkpt lat="45.58043" lon="3.8951">
        <ele>1272.439903</ele>
        <time>2019-10-05T10:01:51.4830Z</time>
      </trkpt>
      <trkpt lat="45.58048" lon="3.89535">
        <ele>1269.65394</ele>
        <time>2019-10-05T10:02:07.0580Z</time>
      </trkpt>
      <trkpt lat="45.58051" lon="3.89562">
        <ele>1266.479518</ele>
        <time>2019-10-05T10:02:20.0870Z</time>
      </trkpt>
      <trkpt lat="45.58046" lon="3.89588">
        <ele>1263.104882</ele>
        <time>2019-10-05T10:02:34.0600Z</time>
      </trkpt>
      <trkpt lat="45.58028" lon="3.89581">
        <ele>1260.118997</ele>
        <time>2019-10-05T10:02:52.0630Z</time>
      </trkpt>
      <trkpt lat="45.5801" lon="3.89575">
        <ele>1257.665702</ele>
        <time>2019-10-05T10:03:04.0610Z</time>
      </trkpt>
      <trkpt lat="45.5802" lon="3.89598">
        <ele>1256.850613</ele>
        <time>2019-10-05T10:03:19.0610Z</time>
      </trkpt>
      <trkpt lat="45.58031" lon="3.89618">
        <ele>1256.739253</ele>
        <time>2019-10-05T10:03:34.0610Z</time>
      </trkpt>
      <trkpt lat="45.58046" lon="3.89637">
        <ele>1256.957933</ele>
        <time>2019-10-05T10:03:50.0890Z</time>
      </trkpt>
      <trkpt lat="45.58061" lon="3.89651">
        <ele>1257.694415</ele>
        <time>2019-10-05T10:04:05.0900Z</time>
      </trkpt>
      <trkpt lat="45.58077" lon="3.89661">
        <ele>1257.763467</ele>
        <time>2019-10-05T10:04:19.0940Z</time>
      </trkpt>
      <trkpt lat="45.58087" lon="3.89684">
        <ele>1256.992672</ele>
        <time>2019-10-05T10:04:33.0840Z</time>
      </trkpt>
      <trkpt lat="45.58091" lon="3.89711">
        <ele>1256.056824</ele>
        <time>2019-10-05T10:04:47.0810Z</time>
      </trkpt>
      <trkpt lat="45.58093" lon="3.89737">
        <ele>1255.517651</ele>
        <time>2019-10-05T10:05:01.0830Z</time>
      </trkpt>
      <trkpt lat="45.58093" lon="3.89764">
        <ele>1256.533866</ele>
        <time>2019-10-05T10:05:15.0940Z</time>
      </trkpt>
      <trkpt lat="45.58094" lon="3.8979">
        <ele>1257.007821</ele>
        <time>2019-10-05T10:05:30.0910Z</time>
      </trkpt>
      <trkpt lat="45.58098" lon="3.89815">
        <ele>1257.753299</ele>
        <time>2019-10-05T10:05:45.0920Z</time>
      </trkpt>
      <trkpt lat="45.58101" lon="3.89842">
        <ele>1258.930795</ele>
        <time>2019-10-05T10:05:59.0900Z</time>
      </trkpt>
      <trkpt lat="45.58107" lon="3.89867">
        <ele>1259.658348</ele>
        <time>2019-10-05T10:06:14.0910Z</time>
      </trkpt>
      <trkpt lat="45.58117" lon="3.89889">
        <ele>1260.432314</ele>
        <time>2019-10-05T10:06:29.0970Z</time>
      </trkpt>
      <trkpt lat="45.58129" lon="3.89908">
        <ele>1260.698979</ele>
        <time>2019-10-05T10:06:43.0840Z</time>
      </trkpt>
      <trkpt lat="45.58146" lon="3.8992">
        <ele>1261.130731</ele>
        <time>2019-10-05T10:06:58.0860Z</time>
      </trkpt>
      <trkpt lat="45.58163" lon="3.89928">
        <ele>1261.410232</ele>
        <time>2019-10-05T10:07:13.0670Z</time>
      </trkpt>
      <trkpt lat="45.58182" lon="3.89934">
        <ele>1260.880333</ele>
        <time>2019-10-05T10:07:30.0910Z</time>
      </trkpt>
      <trkpt lat="45.58201" lon="3.89933">
        <ele>1260.219221</ele>
        <time>2019-10-05T10:07:45.0870Z</time>
      </trkpt>
      <trkpt lat="45.58219" lon="3.89931">
        <ele>1259.7842</ele>
        <time>2019-10-05T10:07:59.0880Z</time>
      </trkpt>
      <trkpt lat="45.58238" lon="3.89934">
        <ele>1258.745175</ele>
        <time>2019-10-05T10:08:13.0850Z</time>
      </trkpt>
      <trkpt lat="45.58256" lon="3.89935">
        <ele>1258.139099</ele>
        <time>2019-10-05T10:08:27.0920Z</time>
      </trkpt>
      <trkpt lat="45.58274" lon="3.89934">
        <ele>1257.515527</ele>
        <time>2019-10-05T10:08:42.0900Z</time>
      </trkpt>
      <trkpt lat="45.58293" lon="3.89926">
        <ele>1256.598862</ele>
        <time>2019-10-05T10:08:57.0900Z</time>
      </trkpt>
      <trkpt lat="45.58309" lon="3.89915">
        <ele>1255.707322</ele>
        <time>2019-10-05T10:09:14.0980Z</time>
      </trkpt>
      <trkpt lat="45.58327" lon="3.89904">
        <ele>1255.588879</ele>
        <time>2019-10-05T10:09:30.0920Z</time>
      </trkpt>
      <trkpt lat="45.58344" lon="3.89895">
        <ele>1254.539318</ele>
        <time>2019-10-05T10:09:47.0610Z</time>
      </trkpt>
      <trkpt lat="45.58362" lon="3.89883">
        <ele>1254.008484</ele>
        <time>2019-10-05T10:10:01.0590Z</time>
      </trkpt>
      <trkpt lat="45.58378" lon="3.8987">
        <ele>1253.355846</ele>
        <time>2019-10-05T10:10:15.0620Z</time>
      </trkpt>
      <trkpt lat="45.58396" lon="3.89866">
        <ele>1252.848899</ele>
        <time>2019-10-05T10:10:30.0600Z</time>
      </trkpt>
      <trkpt lat="45.58413" lon="3.89853">
        <ele>1252.036903</ele>
        <time>2019-10-05T10:10:48.0570Z</time>
      </trkpt>
      <trkpt lat="45.58432" lon="3.8985">
        <ele>1251.154043</ele>
        <time>2019-10-05T10:11:00.1120Z</time>
      </trkpt>
      <trkpt lat="45.58449" lon="3.89862">
        <ele>1250.328787</ele>
        <time>2019-10-05T10:11:15.0930Z</time>
      </trkpt>
      <trkpt lat="45.5846" lon="3.89884">
        <ele>1251.232119</ele>
        <time>2019-10-05T10:11:31.0850Z</time>
      </trkpt>
      <trkpt lat="45.58464" lon="3.8991">
        <ele>1254.964733</ele>
        <time>2019-10-05T10:11:51.0670Z</time>
      </trkpt>
      <trkpt lat="45.58472" lon="3.89935">
        <ele>1258.274647</ele>
        <time>2019-10-05T10:12:13.0770Z</time>
      </trkpt>
      <trkpt lat="45.58485" lon="3.89951">
        <ele>1261.794173</ele>
        <time>2019-10-05T10:12:31.0780Z</time>
      </trkpt>
      <trkpt lat="45.585" lon="3.89966">
        <ele>1264.522297</ele>
        <time>2019-10-05T10:12:47.0920Z</time>
      </trkpt>
      <trkpt lat="45.58515" lon="3.89982">
        <ele>1267.135814</ele>
        <time>2019-10-05T10:13:05.0580Z</time>
      </trkpt>
      <trkpt lat="45.58531" lon="3.89993">
        <ele>1269.850626</ele>
        <time>2019-10-05T10:13:23.0600Z</time>
      </trkpt>
      <trkpt lat="45.58546" lon="3.90008">
        <ele>1271.838016</ele>
        <time>2019-10-05T10:13:37.0920Z</time>
      </trkpt>
      <trkpt lat="45.58562" lon="3.90022">
        <ele>1274.922915</ele>
        <time>2019-10-05T10:13:56.0590Z</time>
      </trkpt>
      <trkpt lat="45.5858" lon="3.9003">
        <ele>1277.514969</ele>
        <time>2019-10-05T10:14:14.0730Z</time>
      </trkpt>
      <trkpt lat="45.58597" lon="3.90043">
        <ele>1279.270463</ele>
        <time>2019-10-05T10:14:28.0560Z</time>
      </trkpt>
      <trkpt lat="45.58611" lon="3.9006">
        <ele>1280.018285</ele>
        <time>2019-10-05T10:14:42.0580Z</time>
      </trkpt>
      <trkpt lat="45.58628" lon="3.90071">
        <ele>1280.374092</ele>
        <time>2019-10-05T10:14:56.0580Z</time>
      </trkpt>
      <trkpt lat="45.58645" lon="3.90082">
        <ele>1280.247046</ele>
        <time>2019-10-05T10:15:11.0560Z</time>
      </trkpt>
      <trkpt lat="45.5866" lon="3.90096">
        <ele>1280.12384</ele>
        <time>2019-10-05T10:15:24.0590Z</time>
      </trkpt>
      <trkpt lat="45.58671" lon="3.90119">
        <ele>1279.535306</ele>
        <time>2019-10-05T10:15:38.0560Z</time>
      </trkpt>
      <trkpt lat="45.58676" lon="3.90146">
        <ele>1280.138093</ele>
        <time>2019-10-05T10:15:52.0690Z</time>
      </trkpt>
      <trkpt lat="45.58682" lon="3.90172">
        <ele>1280.967011</ele>
        <time>2019-10-05T10:16:08.1230Z</time>
      </trkpt>
      <trkpt lat="45.58687" lon="3.90197">
        <ele>1280.62695</ele>
        <time>2019-10-05T10:16:25.0450Z</time>
      </trkpt>
      <trkpt lat="45.58703" lon="3.90213">
        <ele>1273.775019</ele>
        <time>2019-10-05T10:41:02.0650Z</time>
      </trkpt>
      <trkpt lat="45.58715" lon="3.90232">
        <ele>1274.439845</ele>
        <time>2019-10-05T10:41:17.0910Z</time>
      </trkpt>
      <trkpt lat="45.58728" lon="3.9025">
        <ele>1274.870569</ele>
        <time>2019-10-05T10:41:31.0910Z</time>
      </trkpt>
      <trkpt lat="45.58743" lon="3.90266">
        <ele>1274.857596</ele>
        <time>2019-10-05T10:41:46.0660Z</time>
      </trkpt>
      <trkpt lat="45.58755" lon="3.90285">
        <ele>1275.46944</ele>
        <time>2019-10-05T10:41:59.7270Z</time>
      </trkpt>
      <trkpt lat="45.58764" lon="3.90308">
        <ele>1276.206406</ele>
        <time>2019-10-05T10:42:13.0610Z</time>
      </trkpt>
      <trkpt lat="45.58774" lon="3.90331">
        <ele>1276.59891</ele>
        <time>2019-10-05T10:42:28.0570Z</time>
      </trkpt>
      <trkpt lat="45.58787" lon="3.90351">
        <ele>1277.597486</ele>
        <time>2019-10-05T10:42:43.0860Z</time>
      </trkpt>
      <trkpt lat="45.58799" lon="3.90372">
        <ele>1278.633808</ele>
        <time>2019-10-05T10:42:58.0880Z</time>
      </trkpt>
      <trkpt lat="45.58812" lon="3.90392">
        <ele>1280.973498</ele>
        <time>2019-10-05T10:43:13.0670Z</time>
      </trkpt>
      <trkpt lat="45.58826" lon="3.90409">
        <ele>1282.688572</ele>
        <time>2019-10-05T10:43:27.0560Z</time>
      </trkpt>
      <trkpt lat="45.58838" lon="3.90429">
        <ele>1283.407461</ele>
        <time>2019-10-05T10:43:41.0570Z</time>
      </trkpt>
      <trkpt lat="45.58851" lon="3.90449">
        <ele>1285.051604</ele>
        <time>2019-10-05T10:43:56.0870Z</time>
      </trkpt>
      <trkpt lat="45.58865" lon="3.90467">
        <ele>1285.892041</ele>
        <time>2019-10-05T10:44:10.0920Z</time>
      </trkpt>
      <trkpt lat="45.58877" lon="3.90487">
        <ele>1286.434246</ele>
        <time>2019-10-05T10:44:23.1190Z</time>
      </trkpt>
      <trkpt lat="45.5889" lon="3.90506">
        <ele>1287.475722</ele>
        <time>2019-10-05T10:44:36.1000Z</time>
      </trkpt>
      <trkpt lat="45.58903" lon="3.90526">
        <ele>1287.921351</ele>
        <time>2019-10-05T10:44:50.0580Z</time>
      </trkpt>
      <trkpt lat="45.58915" lon="3.90545">
        <ele>1288.159889</ele>
        <time>2019-10-05T10:45:03.0830Z</time>
      </trkpt>
      <trkpt lat="45.58926" lon="3.90566">
        <ele>1289.297806</ele>
        <time>2019-10-05T10:45:16.0870Z</time>
      </trkpt>
      <trkpt lat="45.5894" lon="3.90585">
        <ele>1289.92189</ele>
        <time>2019-10-05T10:45:31.0770Z</time>
      </trkpt>
      <trkpt lat="45.58952" lon="3.90606">
        <ele>1290.57835</ele>
        <time>2019-10-05T10:45:46.0650Z</time>
      </trkpt>
      <trkpt lat="45.58967" lon="3.90623">
        <ele>1290.621507</ele>
        <time>2019-10-05T10:45:59.0640Z</time>
      </trkpt>
      <trkpt lat="45.5898" lon="3.90642">
        <ele>1291.149663</ele>
        <time>2019-10-05T10:46:13.0630Z</time>
      </trkpt>
      <trkpt lat="45.58992" lon="3.90662">
        <ele>1291.822687</ele>
        <time>2019-10-05T10:46:26.0740Z</time>
      </trkpt>
      <trkpt lat="45.59" lon="3.90687">
        <ele>1292.027443</ele>
        <time>2019-10-05T10:46:40.0600Z</time>
      </trkpt>
      <trkpt lat="45.59013" lon="3.90708">
        <ele>1291.352385</ele>
        <time>2019-10-05T10:46:53.0600Z</time>
      </trkpt>
      <trkpt lat="45.5902" lon="3.90733">
        <ele>1290.790975</ele>
        <time>2019-10-05T10:47:06.0870Z</time>
      </trkpt>
      <trkpt lat="45.59029" lon="3.90756">
        <ele>1290.064823</ele>
        <time>2019-10-05T10:47:19.0840Z</time>
      </trkpt>
      <trkpt lat="45.59037" lon="3.90779">
        <ele>1289.626717</ele>
        <time>2019-10-05T10:47:29.0590Z</time>
      </trkpt>
      <trkpt lat="45.59053" lon="3.90792">
        <ele>1287.700027</ele>
        <time>2019-10-05T10:47:43.0600Z</time>
      </trkpt>
      <trkpt lat="45.5907" lon="3.90804">
        <ele>1286.308492</ele>
        <time>2019-10-05T10:47:57.0590Z</time>
      </trkpt>
      <trkpt lat="45.59086" lon="3.90816">
        <ele>1285.212634</ele>
        <time>2019-10-05T10:48:11.2320Z</time>
      </trkpt>
      <trkpt lat="45.59105" lon="3.90821">
        <ele>1284.836733</ele>
        <time>2019-10-05T10:48:24.0570Z</time>
      </trkpt>
      <trkpt lat="45.59122" lon="3.90826">
        <ele>1283.906229</ele>
        <time>2019-10-05T10:48:38.0820Z</time>
      </trkpt>
      <trkpt lat="45.59139" lon="3.90838">
        <ele>1283.488379</ele>
        <time>2019-10-05T10:48:53.0860Z</time>
      </trkpt>
      <trkpt lat="45.59151" lon="3.90859">
        <ele>1284.673365</ele>
        <time>2019-10-05T10:49:07.0920Z</time>
      </trkpt>
      <trkpt lat="45.59158" lon="3.90884">
        <ele>1286.721086</ele>
        <time>2019-10-05T10:49:23.0580Z</time>
      </trkpt>
      <trkpt lat="45.59163" lon="3.9091">
        <ele>1288.632333</ele>
        <time>2019-10-05T10:49:38.0870Z</time>
      </trkpt>
      <trkpt lat="45.59174" lon="3.90931">
        <ele>1290.496631</ele>
        <time>2019-10-05T10:49:53.0870Z</time>
      </trkpt>
      <trkpt lat="45.59185" lon="3.90953">
        <ele>1292.037845</ele>
        <time>2019-10-05T10:50:08.0850Z</time>
      </trkpt>
      <trkpt lat="45.59196" lon="3.90975">
        <ele>1294.6583</ele>
        <time>2019-10-05T10:50:23.0600Z</time>
      </trkpt>
      <trkpt lat="45.59209" lon="3.90994">
        <ele>1297.402118</ele>
        <time>2019-10-05T10:50:37.0590Z</time>
      </trkpt>
      <trkpt lat="45.59224" lon="3.91008">
        <ele>1298.892755</ele>
        <time>2019-10-05T10:50:51.0880Z</time>
      </trkpt>
      <trkpt lat="45.59237" lon="3.91027">
        <ele>1300.643871</ele>
        <time>2019-10-05T10:51:04.0900Z</time>
      </trkpt>
      <trkpt lat="45.59256" lon="3.91034">
        <ele>1302.452551</ele>
        <time>2019-10-05T10:51:18.0910Z</time>
      </trkpt>
      <trkpt lat="45.59274" lon="3.91032">
        <ele>1303.79507</ele>
        <time>2019-10-05T10:51:31.0670Z</time>
      </trkpt>
      <trkpt lat="45.59286" lon="3.91011">
        <ele>1304.99182</ele>
        <time>2019-10-05T10:51:46.1120Z</time>
      </trkpt>
      <trkpt lat="45.59297" lon="3.9099">
        <ele>1305.197855</ele>
        <time>2019-10-05T10:52:00.0890Z</time>
      </trkpt>
      <trkpt lat="45.59308" lon="3.90969">
        <ele>1307.655294</ele>
        <time>2019-10-05T10:52:15.0600Z</time>
      </trkpt>
      <trkpt lat="45.59326" lon="3.90959">
        <ele>1310.472196</ele>
        <time>2019-10-05T10:52:30.0590Z</time>
      </trkpt>
      <trkpt lat="45.59344" lon="3.90958">
        <ele>1311.790283</ele>
        <time>2019-10-05T10:52:45.0910Z</time>
      </trkpt>
      <trkpt lat="45.59363" lon="3.90958">
        <ele>1313.421765</ele>
        <time>2019-10-05T10:52:58.0590Z</time>
      </trkpt>
      <trkpt lat="45.59382" lon="3.90956">
        <ele>1314.090387</ele>
        <time>2019-10-05T10:53:11.0710Z</time>
      </trkpt>
      <trkpt lat="45.594" lon="3.90954">
        <ele>1314.888891</ele>
        <time>2019-10-05T10:53:25.1690Z</time>
      </trkpt>
      <trkpt lat="45.59418" lon="3.90946">
        <ele>1314.975822</ele>
        <time>2019-10-05T10:53:38.0610Z</time>
      </trkpt>
      <trkpt lat="45.59436" lon="3.90936">
        <ele>1315.19633</ele>
        <time>2019-10-05T10:53:51.0560Z</time>
      </trkpt>
      <trkpt lat="45.59452" lon="3.90926">
        <ele>1315.486757</ele>
        <time>2019-10-05T10:54:03.0620Z</time>
      </trkpt>
      <trkpt lat="45.59469" lon="3.90916">
        <ele>1314.940525</ele>
        <time>2019-10-05T10:54:15.0590Z</time>
      </trkpt>
      <trkpt lat="45.59488" lon="3.90907">
        <ele>1315.565219</ele>
        <time>2019-10-05T10:54:28.0710Z</time>
      </trkpt>
      <trkpt lat="45.59506" lon="3.90899">
        <ele>1314.730905</ele>
        <time>2019-10-05T10:54:42.0900Z</time>
      </trkpt>
      <trkpt lat="45.59524" lon="3.90889">
        <ele>1315.201236</ele>
        <time>2019-10-05T10:54:55.0680Z</time>
      </trkpt>
      <trkpt lat="45.59542" lon="3.9088">
        <ele>1315.533312</ele>
        <time>2019-10-05T10:55:08.0570Z</time>
      </trkpt>
      <trkpt lat="45.59559" lon="3.9087">
        <ele>1315.753399</ele>
        <time>2019-10-05T10:55:21.0570Z</time>
      </trkpt>
      <trkpt lat="45.59577" lon="3.90862">
        <ele>1316.01986</ele>
        <time>2019-10-05T10:55:34.0580Z</time>
      </trkpt>
      <trkpt lat="45.59596" lon="3.90859">
        <ele>1317.123764</ele>
        <time>2019-10-05T10:55:48.0570Z</time>
      </trkpt>
      <trkpt lat="45.59615" lon="3.90854">
        <ele>1317.934161</ele>
        <time>2019-10-05T10:56:02.0600Z</time>
      </trkpt>
      <trkpt lat="45.59633" lon="3.90847">
        <ele>1318.752717</ele>
        <time>2019-10-05T10:56:15.0600Z</time>
      </trkpt>
      <trkpt lat="45.5965" lon="3.90837">
        <ele>1319.325295</ele>
        <time>2019-10-05T10:56:29.0630Z</time>
      </trkpt>
      <trkpt lat="45.59667" lon="3.90826">
        <ele>1319.681047</ele>
        <time>2019-10-05T10:56:42.0630Z</time>
      </trkpt>
      <trkpt lat="45.59684" lon="3.90835">
        <ele>1321.624309</ele>
        <time>2019-10-05T10:56:56.0670Z</time>
      </trkpt>
      <trkpt lat="45.59703" lon="3.90844">
        <ele>1323.486794</ele>
        <time>2019-10-05T10:57:11.0580Z</time>
      </trkpt>
      <trkpt lat="45.59719" lon="3.90855">
        <ele>1325.557361</ele>
        <time>2019-10-05T10:57:26.0640Z</time>
      </trkpt>
      <trkpt lat="45.59738" lon="3.90851">
        <ele>1327.525681</ele>
        <time>2019-10-05T10:57:44.0590Z</time>
      </trkpt>
      <trkpt lat="45.5975" lon="3.90832">
        <ele>1327.953249</ele>
        <time>2019-10-05T10:57:59.0760Z</time>
      </trkpt>
      <trkpt lat="45.59769" lon="3.90833">
        <ele>1329.229263</ele>
        <time>2019-10-05T10:58:15.0820Z</time>
      </trkpt>
      <trkpt lat="45.59788" lon="3.90834">
        <ele>1330.607329</ele>
        <time>2019-10-05T10:58:32.0590Z</time>
      </trkpt>
      <trkpt lat="45.59805" lon="3.90824">
        <ele>1331.518834</ele>
        <time>2019-10-05T10:58:46.0610Z</time>
      </trkpt>
      <trkpt lat="45.59822" lon="3.90812">
        <ele>1332.546818</ele>
        <time>2019-10-05T10:59:00.0590Z</time>
      </trkpt>
      <trkpt lat="45.59836" lon="3.90794">
        <ele>1333.606626</ele>
        <time>2019-10-05T10:59:14.0600Z</time>
      </trkpt>
      <trkpt lat="45.59854" lon="3.90793">
        <ele>1333.972281</ele>
        <time>2019-10-05T10:59:27.0600Z</time>
      </trkpt>
      <trkpt lat="45.59871" lon="3.90807">
        <ele>1333.822687</ele>
        <time>2019-10-05T10:59:42.0620Z</time>
      </trkpt>
      <trkpt lat="45.59887" lon="3.9082">
        <ele>1334.166867</ele>
        <time>2019-10-05T10:59:55.0590Z</time>
      </trkpt>
      <trkpt lat="45.59903" lon="3.90831">
        <ele>1334.627103</ele>
        <time>2019-10-05T11:00:08.0560Z</time>
      </trkpt>
      <trkpt lat="45.59918" lon="3.9085">
        <ele>1334.976607</ele>
        <time>2019-10-05T11:00:21.0660Z</time>
      </trkpt>
      <trkpt lat="45.59934" lon="3.90865">
        <ele>1335.2449</ele>
        <time>2019-10-05T11:00:33.0620Z</time>
      </trkpt>
      <trkpt lat="45.59947" lon="3.90885">
        <ele>1335.798388</ele>
        <time>2019-10-05T11:00:49.0650Z</time>
      </trkpt>
      <trkpt lat="45.59965" lon="3.90895">
        <ele>1336.333135</ele>
        <time>2019-10-05T11:01:00.0570Z</time>
      </trkpt>
      <trkpt lat="45.59982" lon="3.90909">
        <ele>1336.873647</ele>
        <time>2019-10-05T11:01:12.0640Z</time>
      </trkpt>
      <trkpt lat="45.59999" lon="3.90921">
        <ele>1337.473233</ele>
        <time>2019-10-05T11:01:28.0650Z</time>
      </trkpt>
      <trkpt lat="45.60016" lon="3.90932">
        <ele>1338.246721</ele>
        <time>2019-10-05T11:01:43.0610Z</time>
      </trkpt>
      <trkpt lat="45.60033" lon="3.90947">
        <ele>1339.133307</ele>
        <time>2019-10-05T11:01:56.0720Z</time>
      </trkpt>
      <trkpt lat="45.60049" lon="3.90962">
        <ele>1339.676733</ele>
        <time>2019-10-05T11:02:08.0570Z</time>
      </trkpt>
      <trkpt lat="45.60065" lon="3.90973">
        <ele>1340.707867</ele>
        <time>2019-10-05T11:02:20.0610Z</time>
      </trkpt>
      <trkpt lat="45.60081" lon="3.90988">
        <ele>1341.024774</ele>
        <time>2019-10-05T11:02:34.0590Z</time>
      </trkpt>
      <trkpt lat="45.6009" lon="3.91012">
        <ele>1340.899075</ele>
        <time>2019-10-05T11:02:49.0630Z</time>
      </trkpt>
      <trkpt lat="45.60099" lon="3.91037">
        <ele>1339.161443</ele>
        <time>2019-10-05T11:03:05.0580Z</time>
      </trkpt>
      <trkpt lat="45.60101" lon="3.91064">
        <ele>1338.685705</ele>
        <time>2019-10-05T11:03:17.0640Z</time>
      </trkpt>
      <trkpt lat="45.60109" lon="3.91089">
        <ele>1338.262776</ele>
        <time>2019-10-05T11:03:30.0610Z</time>
      </trkpt>
      <trkpt lat="45.60121" lon="3.91111">
        <ele>1337.560864</ele>
        <time>2019-10-05T11:03:43.0570Z</time>
      </trkpt>
      <trkpt lat="45.60128" lon="3.91135">
        <ele>1336.736909</ele>
        <time>2019-10-05T11:03:55.0630Z</time>
      </trkpt>
      <trkpt lat="45.60138" lon="3.91158">
        <ele>1335.599099</ele>
        <time>2019-10-05T11:04:07.0650Z</time>
      </trkpt>
      <trkpt lat="45.60148" lon="3.9118">
        <ele>1334.521465</ele>
        <time>2019-10-05T11:04:21.0620Z</time>
      </trkpt>
      <trkpt lat="45.60154" lon="3.91204">
        <ele>1333.398503</ele>
        <time>2019-10-05T11:04:34.0560Z</time>
      </trkpt>
      <trkpt lat="45.60157" lon="3.91229">
        <ele>1332.116741</ele>
        <time>2019-10-05T11:04:47.0820Z</time>
      </trkpt>
      <trkpt lat="45.60161" lon="3.91257">
        <ele>1331.086661</ele>
        <time>2019-10-05T11:05:00.0570Z</time>
      </trkpt>
      <trkpt lat="45.60162" lon="3.91282">
        <ele>1329.542532</ele>
        <time>2019-10-05T11:05:13.0800Z</time>
      </trkpt>
      <trkpt lat="45.60153" lon="3.91306">
        <ele>1327.374275</ele>
        <time>2019-10-05T11:05:30.0610Z</time>
      </trkpt>
      <trkpt lat="45.6015" lon="3.91334">
        <ele>1325.847435</ele>
        <time>2019-10-05T11:05:42.0580Z</time>
      </trkpt>
      <trkpt lat="45.60151" lon="3.9136">
        <ele>1325.009616</ele>
        <time>2019-10-05T11:05:55.0570Z</time>
      </trkpt>
      <trkpt lat="45.60155" lon="3.91386">
        <ele>1323.990871</ele>
        <time>2019-10-05T11:06:09.0560Z</time>
      </trkpt>
      <trkpt lat="45.60162" lon="3.91412">
        <ele>1323.253361</ele>
        <time>2019-10-05T11:06:24.0720Z</time>
      </trkpt>
      <trkpt lat="45.6017" lon="3.91435">
        <ele>1323.36439</ele>
        <time>2019-10-05T11:06:36.0880Z</time>
      </trkpt>
      <trkpt lat="45.60173" lon="3.91462">
        <ele>1322.596672</ele>
        <time>2019-10-05T11:06:50.0900Z</time>
      </trkpt>
      <trkpt lat="45.60176" lon="3.91487">
        <ele>1320.722806</ele>
        <time>2019-10-05T11:07:04.0580Z</time>
      </trkpt>
      <trkpt lat="45.60184" lon="3.91512">
        <ele>1321.255163</ele>
        <time>2019-10-05T11:07:17.0590Z</time>
      </trkpt>
      <trkpt lat="45.60195" lon="3.91534">
        <ele>1319.851185</ele>
        <time>2019-10-05T11:07:28.0730Z</time>
      </trkpt>
      <trkpt lat="45.60202" lon="3.91557">
        <ele>1319.718677</ele>
        <time>2019-10-05T11:07:41.0610Z</time>
      </trkpt>
      <trkpt lat="45.60201" lon="3.91583">
        <ele>1319.397027</ele>
        <time>2019-10-05T11:07:52.0990Z</time>
      </trkpt>
      <trkpt lat="45.60203" lon="3.91609">
        <ele>1317.719303</ele>
        <time>2019-10-05T11:08:04.0780Z</time>
      </trkpt>
      <trkpt lat="45.60203" lon="3.91636">
        <ele>1315.683298</ele>
        <time>2019-10-05T11:08:17.0810Z</time>
      </trkpt>
      <trkpt lat="45.602" lon="3.91663">
        <ele>1313.83354</ele>
        <time>2019-10-05T11:08:30.0760Z</time>
      </trkpt>
      <trkpt lat="45.60208" lon="3.91688">
        <ele>1312.425539</ele>
        <time>2019-10-05T11:08:43.0600Z</time>
      </trkpt>
      <trkpt lat="45.60212" lon="3.91715">
        <ele>1311.001681</ele>
        <time>2019-10-05T11:08:57.0590Z</time>
      </trkpt>
      <trkpt lat="45.60219" lon="3.91739">
        <ele>1310.054499</ele>
        <time>2019-10-05T11:09:08.0560Z</time>
      </trkpt>
      <trkpt lat="45.60232" lon="3.91759">
        <ele>1309.070999</ele>
        <time>2019-10-05T11:09:20.0560Z</time>
      </trkpt>
      <trkpt lat="45.60248" lon="3.91773">
        <ele>1307.495145</ele>
        <time>2019-10-05T11:09:33.0600Z</time>
      </trkpt>
      <trkpt lat="45.60263" lon="3.91791">
        <ele>1304.616231</ele>
        <time>2019-10-05T11:09:47.0630Z</time>
      </trkpt>
      <trkpt lat="45.60277" lon="3.91812">
        <ele>1302.307211</ele>
        <time>2019-10-05T11:09:59.0610Z</time>
      </trkpt>
      <trkpt lat="45.60293" lon="3.91824">
        <ele>1300.747032</ele>
        <time>2019-10-05T11:10:12.0600Z</time>
      </trkpt>
      <trkpt lat="45.60308" lon="3.91838">
        <ele>1298.401509</ele>
        <time>2019-10-05T11:10:25.0590Z</time>
      </trkpt>
      <trkpt lat="45.60322" lon="3.91855">
        <ele>1296.083981</ele>
        <time>2019-10-05T11:10:38.0600Z</time>
      </trkpt>
      <trkpt lat="45.60334" lon="3.91875">
        <ele>1293.053398</ele>
        <time>2019-10-05T11:10:50.0570Z</time>
      </trkpt>
      <trkpt lat="45.60347" lon="3.91896">
        <ele>1291.582097</ele>
        <time>2019-10-05T11:11:03.0610Z</time>
      </trkpt>
      <trkpt lat="45.60359" lon="3.91917">
        <ele>1290.261059</ele>
        <time>2019-10-05T11:11:18.0590Z</time>
      </trkpt>
      <trkpt lat="45.60339" lon="3.91917">
        <ele>1290.080351</ele>
        <time>2019-10-05T11:11:32.0660Z</time>
      </trkpt>
      <trkpt lat="45.60332" lon="3.91942">
        <ele>1289.007991</ele>
        <time>2019-10-05T11:11:46.0850Z</time>
      </trkpt>
      <trkpt lat="45.60335" lon="3.91968">
        <ele>1287.927233</ele>
        <time>2019-10-05T11:11:58.0570Z</time>
      </trkpt>
      <trkpt lat="45.60334" lon="3.91995">
        <ele>1286.8582</ele>
        <time>2019-10-05T11:12:12.0990Z</time>
      </trkpt>
      <trkpt lat="45.60335" lon="3.92023">
        <ele>1286.16921</ele>
        <time>2019-10-05T11:12:28.0590Z</time>
      </trkpt>
      <trkpt lat="45.60333" lon="3.9205">
        <ele>1285.498535</ele>
        <time>2019-10-05T11:12:41.0570Z</time>
      </trkpt>
      <trkpt lat="45.60328" lon="3.92075">
        <ele>1284.887899</ele>
        <time>2019-10-05T11:12:53.0570Z</time>
      </trkpt>
      <trkpt lat="45.60322" lon="3.92101">
        <ele>1284.131476</ele>
        <time>2019-10-05T11:13:06.0650Z</time>
      </trkpt>
      <trkpt lat="45.60313" lon="3.92123">
        <ele>1284.502681</ele>
        <time>2019-10-05T11:13:21.0570Z</time>
      </trkpt>
      <trkpt lat="45.60303" lon="3.92146">
        <ele>1284.882993</ele>
        <time>2019-10-05T11:13:33.0590Z</time>
      </trkpt>
      <trkpt lat="45.60295" lon="3.9217">
        <ele>1283.906001</ele>
        <time>2019-10-05T11:13:45.0970Z</time>
      </trkpt>
      <trkpt lat="45.60286" lon="3.92193">
        <ele>1284.787053</ele>
        <time>2019-10-05T11:14:02.0560Z</time>
      </trkpt>
      <trkpt lat="45.60278" lon="3.92217">
        <ele>1283.628635</ele>
        <time>2019-10-05T11:14:17.0590Z</time>
      </trkpt>
      <trkpt lat="45.60262" lon="3.9223">
        <ele>1282.506996</ele>
        <time>2019-10-05T11:14:30.0660Z</time>
      </trkpt>
      <trkpt lat="45.60251" lon="3.92251">
        <ele>1281.535004</ele>
        <time>2019-10-05T11:14:42.0610Z</time>
      </trkpt>
      <trkpt lat="45.60242" lon="3.92275">
        <ele>1280.210864</ele>
        <time>2019-10-05T11:14:55.0710Z</time>
      </trkpt>
      <trkpt lat="45.60232" lon="3.92299">
        <ele>1279.759894</ele>
        <time>2019-10-05T11:15:09.0600Z</time>
      </trkpt>
      <trkpt lat="45.60225" lon="3.92323">
        <ele>1277.950595</ele>
        <time>2019-10-05T11:15:21.0590Z</time>
      </trkpt>
      <trkpt lat="45.60216" lon="3.92348">
        <ele>1276.879928</ele>
        <time>2019-10-05T11:15:34.0560Z</time>
      </trkpt>
      <trkpt lat="45.60212" lon="3.92374">
        <ele>1275.775824</ele>
        <time>2019-10-05T11:15:49.0600Z</time>
      </trkpt>
      <trkpt lat="45.60211" lon="3.92401">
        <ele>1274.006667</ele>
        <time>2019-10-05T11:16:01.0610Z</time>
      </trkpt>
      <trkpt lat="45.6021" lon="3.92427">
        <ele>1273.601608</ele>
        <time>2019-10-05T11:16:14.0600Z</time>
      </trkpt>
      <trkpt lat="45.60199" lon="3.92448">
        <ele>1272.972613</ele>
        <time>2019-10-05T11:16:27.0610Z</time>
      </trkpt>
      <trkpt lat="45.60181" lon="3.92454">
        <ele>1273.333671</ele>
        <time>2019-10-05T11:16:40.0600Z</time>
      </trkpt>
      <trkpt lat="45.60173" lon="3.92477">
        <ele>1273.51081</ele>
        <time>2019-10-05T11:16:56.0850Z</time>
      </trkpt>
      <trkpt lat="45.60159" lon="3.92495">
        <ele>1273.220514</ele>
        <time>2019-10-05T11:17:10.0590Z</time>
      </trkpt>
      <trkpt lat="45.60157" lon="3.92522">
        <ele>1272.965824</ele>
        <time>2019-10-05T11:17:24.0620Z</time>
      </trkpt>
      <trkpt lat="45.60166" lon="3.92547">
        <ele>1272.776798</ele>
        <time>2019-10-05T11:17:38.0630Z</time>
      </trkpt>
      <trkpt lat="45.60178" lon="3.92568">
        <ele>1272.565095</ele>
        <time>2019-10-05T11:17:51.0910Z</time>
      </trkpt>
      <trkpt lat="45.60189" lon="3.92588">
        <ele>1271.809664</ele>
        <time>2019-10-05T11:18:05.0900Z</time>
      </trkpt>
      <trkpt lat="45.60202" lon="3.92606">
        <ele>1272.209922</ele>
        <time>2019-10-05T11:18:21.0610Z</time>
      </trkpt>
      <trkpt lat="45.60214" lon="3.92628">
        <ele>1272.747752</ele>
        <time>2019-10-05T11:18:35.0580Z</time>
      </trkpt>
      <trkpt lat="45.6022" lon="3.92654">
        <ele>1272.933059</ele>
        <time>2019-10-05T11:18:49.0900Z</time>
      </trkpt>
      <trkpt lat="45.60233" lon="3.92672">
        <ele>1272.589605</ele>
        <time>2019-10-05T11:19:00.0930Z</time>
      </trkpt>
      <trkpt lat="45.6024" lon="3.92697">
        <ele>1272.312684</ele>
        <time>2019-10-05T11:19:13.0710Z</time>
      </trkpt>
      <trkpt lat="45.60252" lon="3.92718">
        <ele>1271.848655</ele>
        <time>2019-10-05T11:19:28.0570Z</time>
      </trkpt>
      <trkpt lat="45.6025" lon="3.92743">
        <ele>1272.535271</ele>
        <time>2019-10-05T11:20:19.0850Z</time>
      </trkpt>
      <trkpt lat="45.60249" lon="3.9277">
        <ele>1270.914889</ele>
        <time>2019-10-05T11:21:55.0930Z</time>
      </trkpt>
      <trkpt lat="45.60242" lon="3.92795">
        <ele>1270.853088</ele>
        <time>2019-10-05T11:22:09.0600Z</time>
      </trkpt>
      <trkpt lat="45.60234" lon="3.92821">
        <ele>1270.678524</ele>
        <time>2019-10-05T11:22:23.0520Z</time>
      </trkpt>
      <trkpt lat="45.60232" lon="3.92846">
        <ele>1268.874136</ele>
        <time>2019-10-05T11:22:34.0970Z</time>
      </trkpt>
      <trkpt lat="45.60227" lon="3.92873">
        <ele>1267.543739</ele>
        <time>2019-10-05T11:22:48.0600Z</time>
      </trkpt>
      <trkpt lat="45.60229" lon="3.92899">
        <ele>1266.189751</ele>
        <time>2019-10-05T11:22:58.0630Z</time>
      </trkpt>
      <trkpt lat="45.60231" lon="3.92925">
        <ele>1264.793982</ele>
        <time>2019-10-05T11:23:10.0650Z</time>
      </trkpt>
      <trkpt lat="45.60229" lon="3.92952">
        <ele>1263.086034</ele>
        <time>2019-10-05T11:23:22.0600Z</time>
      </trkpt>
      <trkpt lat="45.60239" lon="3.92973">
        <ele>1260.78081</ele>
        <time>2019-10-05T11:23:31.0650Z</time>
      </trkpt>
      <trkpt lat="45.60247" lon="3.92997">
        <ele>1259.450537</ele>
        <time>2019-10-05T11:23:41.0620Z</time>
      </trkpt>
      <trkpt lat="45.6026" lon="3.93016">
        <ele>1257.89286</ele>
        <time>2019-10-05T11:23:52.0600Z</time>
      </trkpt>
      <trkpt lat="45.60271" lon="3.93037">
        <ele>1256.444461</ele>
        <time>2019-10-05T11:24:04.0910Z</time>
      </trkpt>
      <trkpt lat="45.60277" lon="3.93062">
        <ele>1256.373976</ele>
        <time>2019-10-05T11:24:17.0950Z</time>
      </trkpt>
      <trkpt lat="45.60258" lon="3.93069">
        <ele>1258.178761</ele>
        <time>2019-10-05T11:24:31.0640Z</time>
      </trkpt>
      <trkpt lat="45.60239" lon="3.93068">
        <ele>1258.19572</ele>
        <time>2019-10-05T11:24:46.0680Z</time>
      </trkpt>
      <trkpt lat="45.60221" lon="3.9306">
        <ele>1258.526257</ele>
        <time>2019-10-05T11:25:01.0630Z</time>
      </trkpt>
      <trkpt lat="45.60204" lon="3.93053">
        <ele>1258.78968</ele>
        <time>2019-10-05T11:25:15.0580Z</time>
      </trkpt>
      <trkpt lat="45.60186" lon="3.93048">
        <ele>1257.350492</ele>
        <time>2019-10-05T11:25:29.0930Z</time>
      </trkpt>
      <trkpt lat="45.60168" lon="3.93039">
        <ele>1256.559757</ele>
        <time>2019-10-05T11:25:43.0940Z</time>
      </trkpt>
      <trkpt lat="45.60149" lon="3.93032">
        <ele>1255.721819</ele>
        <time>2019-10-05T11:26:07.0580Z</time>
      </trkpt>
      <trkpt lat="45.60132" lon="3.93023">
        <ele>1255.421343</ele>
        <time>2019-10-05T11:26:20.0570Z</time>
      </trkpt>
      <trkpt lat="45.60115" lon="3.9301">
        <ele>1256.048631</ele>
        <time>2019-10-05T11:26:37.0590Z</time>
      </trkpt>
      <trkpt lat="45.60098" lon="3.93">
        <ele>1254.801525</ele>
        <time>2019-10-05T11:26:52.0570Z</time>
      </trkpt>
      <trkpt lat="45.60081" lon="3.92995">
        <ele>1254.756749</ele>
        <time>2019-10-05T11:27:04.0600Z</time>
      </trkpt>
      <trkpt lat="45.60064" lon="3.92985">
        <ele>1254.784519</ele>
        <time>2019-10-05T11:27:16.0150Z</time>
      </trkpt>
      <trkpt lat="45.60046" lon="3.92975">
        <ele>1254.02104</ele>
        <time>2019-10-05T11:27:29.0590Z</time>
      </trkpt>
      <trkpt lat="45.60027" lon="3.9297">
        <ele>1254.651487</ele>
        <time>2019-10-05T11:27:42.0770Z</time>
      </trkpt>
      <trkpt lat="45.60009" lon="3.92962">
        <ele>1255.226217</ele>
        <time>2019-10-05T11:27:56.0980Z</time>
      </trkpt>
      <trkpt lat="45.59991" lon="3.92955">
        <ele>1254.161338</ele>
        <time>2019-10-05T11:28:11.0630Z</time>
      </trkpt>
      <trkpt lat="45.59974" lon="3.92947">
        <ele>1254.508552</ele>
        <time>2019-10-05T11:28:28.0840Z</time>
      </trkpt>
      <trkpt lat="45.59957" lon="3.92938">
        <ele>1256.009993</ele>
        <time>2019-10-05T11:28:40.0850Z</time>
      </trkpt>
      <trkpt lat="45.59938" lon="3.92932">
        <ele>1256.623544</ele>
        <time>2019-10-05T11:28:53.0930Z</time>
      </trkpt>
      <trkpt lat="45.59919" lon="3.92926">
        <ele>1256.173055</ele>
        <time>2019-10-05T11:29:07.0790Z</time>
      </trkpt>
      <trkpt lat="45.59902" lon="3.92917">
        <ele>1255.959889</ele>
        <time>2019-10-05T11:29:20.0740Z</time>
      </trkpt>
      <trkpt lat="45.59884" lon="3.92907">
        <ele>1255.667351</ele>
        <time>2019-10-05T11:29:32.0720Z</time>
      </trkpt>
      <trkpt lat="45.59867" lon="3.92895">
        <ele>1254.318744</ele>
        <time>2019-10-05T11:29:47.0590Z</time>
      </trkpt>
      <trkpt lat="45.59849" lon="3.92897">
        <ele>1253.068747</ele>
        <time>2019-10-05T11:29:58.0590Z</time>
      </trkpt>
      <trkpt lat="45.5983" lon="3.92892">
        <ele>1251.004092</ele>
        <time>2019-10-05T11:30:10.0750Z</time>
      </trkpt>
      <trkpt lat="45.59812" lon="3.92893">
        <ele>1249.979888</ele>
        <time>2019-10-05T11:30:24.0760Z</time>
      </trkpt>
      <trkpt lat="45.59793" lon="3.92885">
        <ele>1247.948952</ele>
        <time>2019-10-05T11:30:40.0810Z</time>
      </trkpt>
      <trkpt lat="45.59775" lon="3.92883">
        <ele>1249.053325</ele>
        <time>2019-10-05T11:30:55.0650Z</time>
      </trkpt>
      <trkpt lat="45.59758" lon="3.92893">
        <ele>1249.180842</ele>
        <time>2019-10-05T11:31:10.0700Z</time>
      </trkpt>
      <trkpt lat="45.59741" lon="3.92903">
        <ele>1249.452597</ele>
        <time>2019-10-05T11:31:22.0590Z</time>
      </trkpt>
      <trkpt lat="45.59722" lon="3.92902">
        <ele>1249.34827</ele>
        <time>2019-10-05T11:31:37.0580Z</time>
      </trkpt>
      <trkpt lat="45.59705" lon="3.92911">
        <ele>1248.848776</ele>
        <time>2019-10-05T11:31:50.0590Z</time>
      </trkpt>
      <trkpt lat="45.59687" lon="3.92911">
        <ele>1248.267013</ele>
        <time>2019-10-05T11:32:03.0580Z</time>
      </trkpt>
      <trkpt lat="45.59668" lon="3.9291">
        <ele>1248.971332</ele>
        <time>2019-10-05T11:32:18.0600Z</time>
      </trkpt>
      <trkpt lat="45.5965" lon="3.92905">
        <ele>1248.247191</ele>
        <time>2019-10-05T11:32:30.0580Z</time>
      </trkpt>
      <trkpt lat="45.59632" lon="3.92902">
        <ele>1247.679955</ele>
        <time>2019-10-05T11:32:46.0680Z</time>
      </trkpt>
      <trkpt lat="45.59613" lon="3.92908">
        <ele>1247.21686</ele>
        <time>2019-10-05T11:32:57.0670Z</time>
      </trkpt>
      <trkpt lat="45.59599" lon="3.92926">
        <ele>1245.477698</ele>
        <time>2019-10-05T11:33:11.0700Z</time>
      </trkpt>
      <trkpt lat="45.59585" lon="3.92944">
        <ele>1243.634485</ele>
        <time>2019-10-05T11:33:23.0890Z</time>
      </trkpt>
      <trkpt lat="45.59579" lon="3.9297">
        <ele>1242.45221</ele>
        <time>2019-10-05T11:33:34.0850Z</time>
      </trkpt>
      <trkpt lat="45.59575" lon="3.92997">
        <ele>1240.152173</ele>
        <time>2019-10-05T11:33:48.0730Z</time>
      </trkpt>
      <trkpt lat="45.5957" lon="3.93023">
        <ele>1237.040542</ele>
        <time>2019-10-05T11:34:04.0600Z</time>
      </trkpt>
      <trkpt lat="45.59578" lon="3.93049">
        <ele>1235.792636</ele>
        <time>2019-10-05T11:34:16.0710Z</time>
      </trkpt>
      <trkpt lat="45.59577" lon="3.93076">
        <ele>1232.301812</ele>
        <time>2019-10-05T11:34:33.0680Z</time>
      </trkpt>
      <trkpt lat="45.59575" lon="3.93103">
        <ele>1230.383386</ele>
        <time>2019-10-05T11:34:46.0700Z</time>
      </trkpt>
      <trkpt lat="45.59575" lon="3.9313">
        <ele>1228.587306</ele>
        <time>2019-10-05T11:34:59.0590Z</time>
      </trkpt>
      <trkpt lat="45.59578" lon="3.93155">
        <ele>1226.911082</ele>
        <time>2019-10-05T11:35:12.0590Z</time>
      </trkpt>
      <trkpt lat="45.59588" lon="3.93178">
        <ele>1226.176766</ele>
        <time>2019-10-05T11:35:23.0670Z</time>
      </trkpt>
      <trkpt lat="45.59603" lon="3.93194">
        <ele>1224.389411</ele>
        <time>2019-10-05T11:35:38.0590Z</time>
      </trkpt>
      <trkpt lat="45.59615" lon="3.93214">
        <ele>1222.509249</ele>
        <time>2019-10-05T11:35:51.0690Z</time>
      </trkpt>
      <trkpt lat="45.5963" lon="3.93229">
        <ele>1221.797292</ele>
        <time>2019-10-05T11:36:04.0630Z</time>
      </trkpt>
      <trkpt lat="45.59647" lon="3.93242">
        <ele>1221.381745</ele>
        <time>2019-10-05T11:36:17.0590Z</time>
      </trkpt>
      <trkpt lat="45.59666" lon="3.93246">
        <ele>1220.592732</ele>
        <time>2019-10-05T11:36:30.0730Z</time>
      </trkpt>
      <trkpt lat="45.59684" lon="3.93253">
        <ele>1218.733387</ele>
        <time>2019-10-05T11:36:44.0640Z</time>
      </trkpt>
      <trkpt lat="45.59701" lon="3.93259">
        <ele>1216.742322</ele>
        <time>2019-10-05T11:36:58.0580Z</time>
      </trkpt>
      <trkpt lat="45.5972" lon="3.93255">
        <ele>1215.913279</ele>
        <time>2019-10-05T11:37:09.0790Z</time>
      </trkpt>
      <trkpt lat="45.59738" lon="3.93248">
        <ele>1216.447721</ele>
        <time>2019-10-05T11:37:23.1470Z</time>
      </trkpt>
      <trkpt lat="45.59756" lon="3.93241">
        <ele>1215.733594</ele>
        <time>2019-10-05T11:37:37.0570Z</time>
      </trkpt>
      <trkpt lat="45.59774" lon="3.93237">
        <ele>1213.649336</ele>
        <time>2019-10-05T11:37:53.0700Z</time>
      </trkpt>
      <trkpt lat="45.59792" lon="3.93237">
        <ele>1211.805708</ele>
        <time>2019-10-05T11:38:06.0990Z</time>
      </trkpt>
      <trkpt lat="45.59811" lon="3.93237">
        <ele>1209.758314</ele>
        <time>2019-10-05T11:38:17.0730Z</time>
      </trkpt>
      <trkpt lat="45.59828" lon="3.9323">
        <ele>1206.324966</ele>
        <time>2019-10-05T11:38:31.0950Z</time>
      </trkpt>
      <trkpt lat="45.59845" lon="3.93218">
        <ele>1204.262749</ele>
        <time>2019-10-05T11:38:46.0650Z</time>
      </trkpt>
      <trkpt lat="45.59863" lon="3.93229">
        <ele>1204.920678</ele>
        <time>2019-10-05T11:39:05.0840Z</time>
      </trkpt>
      <trkpt lat="45.5988" lon="3.9324">
        <ele>1201.370696</ele>
        <time>2019-10-05T11:39:21.0850Z</time>
      </trkpt>
      <trkpt lat="45.59898" lon="3.93245">
        <ele>1200.091379</ele>
        <time>2019-10-05T11:39:37.0720Z</time>
      </trkpt>
      <trkpt lat="45.59912" lon="3.93263">
        <ele>1199.759325</ele>
        <time>2019-10-05T11:39:49.0870Z</time>
      </trkpt>
      <trkpt lat="45.59926" lon="3.9328">
        <ele>1198.593679</ele>
        <time>2019-10-05T11:40:02.0920Z</time>
      </trkpt>
      <trkpt lat="45.59938" lon="3.93299">
        <ele>1196.461987</ele>
        <time>2019-10-05T11:40:15.0620Z</time>
      </trkpt>
      <trkpt lat="45.59951" lon="3.93318">
        <ele>1195.107202</ele>
        <time>2019-10-05T11:40:29.0900Z</time>
      </trkpt>
      <trkpt lat="45.59963" lon="3.9334">
        <ele>1193.998348</ele>
        <time>2019-10-05T11:40:45.0900Z</time>
      </trkpt>
      <trkpt lat="45.59974" lon="3.93363">
        <ele>1192.224514</ele>
        <time>2019-10-05T11:40:59.0580Z</time>
      </trkpt>
      <trkpt lat="45.59984" lon="3.93387">
        <ele>1192.134094</ele>
        <time>2019-10-05T11:41:12.0830Z</time>
      </trkpt>
      <trkpt lat="45.59995" lon="3.93408">
        <ele>1189.65434</ele>
        <time>2019-10-05T11:41:25.0860Z</time>
      </trkpt>
      <trkpt lat="45.60006" lon="3.9343">
        <ele>1188.751192</ele>
        <time>2019-10-05T11:41:38.0730Z</time>
      </trkpt>
      <trkpt lat="45.60021" lon="3.93444">
        <ele>1189.226912</ele>
        <time>2019-10-05T11:41:51.0920Z</time>
      </trkpt>
      <trkpt lat="45.60034" lon="3.93463">
        <ele>1191.127611</ele>
        <time>2019-10-05T11:43:51.0600Z</time>
      </trkpt>
      <trkpt lat="45.6005" lon="3.93476">
        <ele>1189.55155</ele>
        <time>2019-10-05T11:44:06.0630Z</time>
      </trkpt>
      <trkpt lat="45.60068" lon="3.93484">
        <ele>1188.536483</ele>
        <time>2019-10-05T11:44:21.0980Z</time>
      </trkpt>
      <trkpt lat="45.60086" lon="3.93495">
        <ele>1187.119858</ele>
        <time>2019-10-05T11:44:33.0810Z</time>
      </trkpt>
      <trkpt lat="45.60103" lon="3.93504">
        <ele>1187.09459</ele>
        <time>2019-10-05T11:44:45.1780Z</time>
      </trkpt>
      <trkpt lat="45.60121" lon="3.93514">
        <ele>1187.137722</ele>
        <time>2019-10-05T11:45:01.0500Z</time>
      </trkpt>
      <trkpt lat="45.60139" lon="3.93513">
        <ele>1186.370993</ele>
        <time>2019-10-05T11:45:16.0910Z</time>
      </trkpt>
      <trkpt lat="45.60155" lon="3.93527">
        <ele>1185.329127</ele>
        <time>2019-10-05T11:45:27.0620Z</time>
      </trkpt>
      <trkpt lat="45.60166" lon="3.93548">
        <ele>1183.296559</ele>
        <time>2019-10-05T11:45:43.0780Z</time>
      </trkpt>
      <trkpt lat="45.60181" lon="3.93563">
        <ele>1182.445778</ele>
        <time>2019-10-05T11:45:56.0870Z</time>
      </trkpt>
      <trkpt lat="45.60195" lon="3.9358">
        <ele>1181.21132</ele>
        <time>2019-10-05T11:46:07.0930Z</time>
      </trkpt>
      <trkpt lat="45.60209" lon="3.93596">
        <ele>1180.57489</ele>
        <time>2019-10-05T11:46:19.0760Z</time>
      </trkpt>
      <trkpt lat="45.60218" lon="3.9362">
        <ele>1178.377576</ele>
        <time>2019-10-05T11:46:32.0830Z</time>
      </trkpt>
      <trkpt lat="45.60231" lon="3.9364">
        <ele>1176.427585</ele>
        <time>2019-10-05T11:46:46.0920Z</time>
      </trkpt>
      <trkpt lat="45.60241" lon="3.93662">
        <ele>1174.105351</ele>
        <time>2019-10-05T11:47:00.0870Z</time>
      </trkpt>
      <trkpt lat="45.60256" lon="3.93679">
        <ele>1171.740289</ele>
        <time>2019-10-05T11:47:15.0650Z</time>
      </trkpt>
      <trkpt lat="45.60266" lon="3.93703">
        <ele>1168.853845</ele>
        <time>2019-10-05T11:47:27.0790Z</time>
      </trkpt>
      <trkpt lat="45.6027" lon="3.93729">
        <ele>1166.025286</ele>
        <time>2019-10-05T11:47:39.0940Z</time>
      </trkpt>
      <trkpt lat="45.60283" lon="3.9375">
        <ele>1164.10708</ele>
        <time>2019-10-05T11:47:52.0570Z</time>
      </trkpt>
      <trkpt lat="45.60295" lon="3.9377">
        <ele>1162.394526</ele>
        <time>2019-10-05T11:48:05.0910Z</time>
      </trkpt>
      <trkpt lat="45.60308" lon="3.93788">
        <ele>1159.194812</ele>
        <time>2019-10-05T11:48:21.0540Z</time>
      </trkpt>
      <trkpt lat="45.60318" lon="3.93809">
        <ele>1156.534663</ele>
        <time>2019-10-05T11:48:37.0740Z</time>
      </trkpt>
      <trkpt lat="45.60332" lon="3.93826">
        <ele>1151.819978</ele>
        <time>2019-10-05T11:48:53.0710Z</time>
      </trkpt>
      <trkpt lat="45.60346" lon="3.93844">
        <ele>1147.844299</ele>
        <time>2019-10-05T11:49:09.0800Z</time>
      </trkpt>
      <trkpt lat="45.60361" lon="3.93861">
        <ele>1144.508759</ele>
        <time>2019-10-05T11:49:21.0630Z</time>
      </trkpt>
      <trkpt lat="45.60369" lon="3.93884">
        <ele>1140.171317</ele>
        <time>2019-10-05T11:49:39.0680Z</time>
      </trkpt>
      <trkpt lat="45.60385" lon="3.93898">
        <ele>1137.521324</ele>
        <time>2019-10-05T11:49:50.0560Z</time>
      </trkpt>
      <trkpt lat="45.60401" lon="3.93911">
        <ele>1135.233311</ele>
        <time>2019-10-05T11:49:59.0830Z</time>
      </trkpt>
      <trkpt lat="45.60418" lon="3.93921">
        <ele>1132.399424</ele>
        <time>2019-10-05T11:50:12.0750Z</time>
      </trkpt>
      <trkpt lat="45.60433" lon="3.93937">
        <ele>1128.874603</ele>
        <time>2019-10-05T11:50:26.0730Z</time>
      </trkpt>
      <trkpt lat="45.60451" lon="3.93944">
        <ele>1123.641408</ele>
        <time>2019-10-05T11:50:53.0730Z</time>
      </trkpt>
      <trkpt lat="45.60466" lon="3.9396">
        <ele>1119.918094</ele>
        <time>2019-10-05T11:51:07.1010Z</time>
      </trkpt>
      <trkpt lat="45.60478" lon="3.93981">
        <ele>1114.965575</ele>
        <time>2019-10-05T11:51:22.0870Z</time>
      </trkpt>
      <trkpt lat="45.60495" lon="3.93993">
        <ele>1111.543783</ele>
        <time>2019-10-05T11:51:36.0950Z</time>
      </trkpt>
      <trkpt lat="45.60509" lon="3.94011">
        <ele>1106.686711</ele>
        <time>2019-10-05T11:51:53.0730Z</time>
      </trkpt>
      <trkpt lat="45.6049" lon="3.9402">
        <ele>1099.298538</ele>
        <time>2019-10-05T11:52:25.0810Z</time>
      </trkpt>
      <trkpt lat="45.60487" lon="3.94046">
        <ele>1094.467713</ele>
        <time>2019-10-05T11:52:38.0910Z</time>
      </trkpt>
      <trkpt lat="45.60494" lon="3.9407">
        <ele>1092.113092</ele>
        <time>2019-10-05T11:52:49.0700Z</time>
      </trkpt>
      <trkpt lat="45.60505" lon="3.94093">
        <ele>1088.283097</ele>
        <time>2019-10-05T11:53:02.0740Z</time>
      </trkpt>
      <trkpt lat="45.60514" lon="3.94117">
        <ele>1083.66355</ele>
        <time>2019-10-05T11:53:17.0740Z</time>
      </trkpt>
      <trkpt lat="45.60527" lon="3.94135">
        <ele>1077.752679</ele>
        <time>2019-10-05T11:53:32.0750Z</time>
      </trkpt>
      <trkpt lat="45.60529" lon="3.94161">
        <ele>1072.201607</ele>
        <time>2019-10-05T11:54:08.0750Z</time>
      </trkpt>
      <trkpt lat="45.60522" lon="3.94186">
        <ele>1069.171268</ele>
        <time>2019-10-05T11:54:24.0660Z</time>
      </trkpt>
      <trkpt lat="45.60512" lon="3.94209">
        <ele>1066.732787</ele>
        <time>2019-10-05T11:54:39.0640Z</time>
      </trkpt>
      <trkpt lat="45.60496" lon="3.94223">
        <ele>1065.125708</ele>
        <time>2019-10-05T11:54:58.0580Z</time>
      </trkpt>
      <trkpt lat="45.60479" lon="3.94211">
        <ele>1065.171512</ele>
        <time>2019-10-05T11:55:19.0690Z</time>
      </trkpt>
      <trkpt lat="45.60462" lon="3.942">
        <ele>1065.788442</ele>
        <time>2019-10-05T11:55:33.0720Z</time>
      </trkpt>
      <trkpt lat="45.60452" lon="3.94177">
        <ele>1065.590629</ele>
        <time>2019-10-05T11:55:49.4970Z</time>
      </trkpt>
      <trkpt lat="45.60437" lon="3.94162">
        <ele>1065.88694</ele>
        <time>2019-10-05T11:56:02.0790Z</time>
      </trkpt>
      <trkpt lat="45.60423" lon="3.94144">
        <ele>1066.133543</ele>
        <time>2019-10-05T11:56:15.0710Z</time>
      </trkpt>
      <trkpt lat="45.60414" lon="3.9412">
        <ele>1068.731811</ele>
        <time>2019-10-05T11:56:31.0560Z</time>
      </trkpt>
      <trkpt lat="45.60401" lon="3.941">
        <ele>1070.21601</ele>
        <time>2019-10-05T11:56:49.0610Z</time>
      </trkpt>
      <trkpt lat="45.60387" lon="3.94081">
        <ele>1071.379352</ele>
        <time>2019-10-05T11:57:03.0610Z</time>
      </trkpt>
      <trkpt lat="45.60372" lon="3.94066">
        <ele>1073.089082</ele>
        <time>2019-10-05T11:57:16.0730Z</time>
      </trkpt>
      <trkpt lat="45.60359" lon="3.94048">
        <ele>1074.646597</ele>
        <time>2019-10-05T11:57:29.0810Z</time>
      </trkpt>
      <trkpt lat="45.60341" lon="3.94043">
        <ele>1074.119574</ele>
        <time>2019-10-05T11:57:45.0760Z</time>
      </trkpt>
      <trkpt lat="45.60323" lon="3.9404">
        <ele>1073.002349</ele>
        <time>2019-10-05T11:57:54.0740Z</time>
      </trkpt>
      <trkpt lat="45.60303" lon="3.9404">
        <ele>1072.889999</ele>
        <time>2019-10-05T11:58:06.0960Z</time>
      </trkpt>
      <trkpt lat="45.60284" lon="3.94038">
        <ele>1072.431826</ele>
        <time>2019-10-05T11:58:18.0760Z</time>
      </trkpt>
      <trkpt lat="45.60267" lon="3.94028">
        <ele>1071.932428</ele>
        <time>2019-10-05T11:58:32.0750Z</time>
      </trkpt>
      <trkpt lat="45.60254" lon="3.9401">
        <ele>1071.837675</ele>
        <time>2019-10-05T11:58:48.0750Z</time>
      </trkpt>
      <trkpt lat="45.60238" lon="3.93995">
        <ele>1073.7402</ele>
        <time>2019-10-05T11:59:03.0780Z</time>
      </trkpt>
      <trkpt lat="45.60226" lon="3.93976">
        <ele>1074.447219</ele>
        <time>2019-10-05T11:59:14.0670Z</time>
      </trkpt>
      <trkpt lat="45.60208" lon="3.93975">
        <ele>1076.123542</ele>
        <time>2019-10-05T11:59:28.0780Z</time>
      </trkpt>
      <trkpt lat="45.60189" lon="3.9397">
        <ele>1078.131246</ele>
        <time>2019-10-05T11:59:43.0780Z</time>
      </trkpt>
      <trkpt lat="45.6017" lon="3.93966">
        <ele>1076.626265</ele>
        <time>2019-10-05T11:59:56.0810Z</time>
      </trkpt>
      <trkpt lat="45.60153" lon="3.9396">
        <ele>1075.325312</ele>
        <time>2019-10-05T12:00:07.0750Z</time>
      </trkpt>
      <trkpt lat="45.60133" lon="3.93957">
        <ele>1074.350979</ele>
        <time>2019-10-05T12:00:16.0840Z</time>
      </trkpt>
      <trkpt lat="45.60116" lon="3.9395">
        <ele>1074.373216</ele>
        <time>2019-10-05T12:00:26.1120Z</time>
      </trkpt>
      <trkpt lat="45.60097" lon="3.93945">
        <ele>1074.818747</ele>
        <time>2019-10-05T12:00:40.0750Z</time>
      </trkpt>
      <trkpt lat="45.60079" lon="3.93943">
        <ele>1074.408598</ele>
        <time>2019-10-05T12:00:55.0740Z</time>
      </trkpt>
      <trkpt lat="45.6006" lon="3.93936">
        <ele>1074.258396</ele>
        <time>2019-10-05T12:01:11.0910Z</time>
      </trkpt>
      <trkpt lat="45.60042" lon="3.93929">
        <ele>1074.80435</ele>
        <time>2019-10-05T12:01:26.0830Z</time>
      </trkpt>
      <trkpt lat="45.60025" lon="3.93922">
        <ele>1075.814721</ele>
        <time>2019-10-05T12:01:40.0880Z</time>
      </trkpt>
      <trkpt lat="45.60008" lon="3.9391">
        <ele>1076.886689</ele>
        <time>2019-10-05T12:01:54.0840Z</time>
      </trkpt>
      <trkpt lat="45.59992" lon="3.93896">
        <ele>1077.064045</ele>
        <time>2019-10-05T12:02:09.0600Z</time>
      </trkpt>
      <trkpt lat="45.59977" lon="3.93881">
        <ele>1078.950581</ele>
        <time>2019-10-05T12:02:28.0930Z</time>
      </trkpt>
      <trkpt lat="45.59962" lon="3.93865">
        <ele>1080.842829</ele>
        <time>2019-10-05T12:02:45.0880Z</time>
      </trkpt>
      <trkpt lat="45.59945" lon="3.93856">
        <ele>1082.224841</ele>
        <time>2019-10-05T12:03:01.0900Z</time>
      </trkpt>
      <trkpt lat="45.59928" lon="3.93846">
        <ele>1083.840813</ele>
        <time>2019-10-05T12:03:13.0690Z</time>
      </trkpt>
      <trkpt lat="45.5991" lon="3.93848">
        <ele>1084.628904</ele>
        <time>2019-10-05T12:03:31.0790Z</time>
      </trkpt>
      <trkpt lat="45.59892" lon="3.9386">
        <ele>1086.587452</ele>
        <time>2019-10-05T12:03:45.0590Z</time>
      </trkpt>
      <trkpt lat="45.59876" lon="3.93872">
        <ele>1087.977902</ele>
        <time>2019-10-05T12:04:00.0840Z</time>
      </trkpt>
      <trkpt lat="45.59859" lon="3.9388">
        <ele>1089.51295</ele>
        <time>2019-10-05T12:04:17.0610Z</time>
      </trkpt>
      <trkpt lat="45.59841" lon="3.93876">
        <ele>1090.287281</ele>
        <time>2019-10-05T12:04:28.0690Z</time>
      </trkpt>
      <trkpt lat="45.59823" lon="3.93871">
        <ele>1092.650623</ele>
        <time>2019-10-05T12:04:43.0620Z</time>
      </trkpt>
      <trkpt lat="45.59804" lon="3.93874">
        <ele>1093.771189</ele>
        <time>2019-10-05T12:04:59.0870Z</time>
      </trkpt>
      <trkpt lat="45.59786" lon="3.93877">
        <ele>1094.099994</ele>
        <time>2019-10-05T12:05:13.0930Z</time>
      </trkpt>
      <trkpt lat="45.59768" lon="3.93871">
        <ele>1094.757065</ele>
        <time>2019-10-05T12:05:32.0940Z</time>
      </trkpt>
      <trkpt lat="45.5975" lon="3.93864">
        <ele>1095.298776</ele>
        <time>2019-10-05T12:05:46.0860Z</time>
      </trkpt>
      <trkpt lat="45.59731" lon="3.93862">
        <ele>1095.88818</ele>
        <time>2019-10-05T12:06:01.0940Z</time>
      </trkpt>
      <trkpt lat="45.59713" lon="3.93858">
        <ele>1094.987066</ele>
        <time>2019-10-05T12:06:14.0850Z</time>
      </trkpt>
      <trkpt lat="45.59694" lon="3.93852">
        <ele>1093.340672</ele>
        <time>2019-10-05T12:06:28.0940Z</time>
      </trkpt>
      <trkpt lat="45.59676" lon="3.93858">
        <ele>1092.344472</ele>
        <time>2019-10-05T12:06:41.0800Z</time>
      </trkpt>
      <trkpt lat="45.59664" lon="3.93878">
        <ele>1091.428886</ele>
        <time>2019-10-05T12:06:56.1130Z</time>
      </trkpt>
      <trkpt lat="45.59651" lon="3.93896">
        <ele>1091.833594</ele>
        <time>2019-10-05T12:07:10.0930Z</time>
      </trkpt>
      <trkpt lat="45.59636" lon="3.93913">
        <ele>1092.423118</ele>
        <time>2019-10-05T12:07:25.0790Z</time>
      </trkpt>
      <trkpt lat="45.59626" lon="3.93936">
        <ele>1093.37687</ele>
        <time>2019-10-05T12:07:39.0890Z</time>
      </trkpt>
      <trkpt lat="45.5961" lon="3.93949">
        <ele>1092.828266</ele>
        <time>2019-10-05T12:07:52.0920Z</time>
      </trkpt>
      <trkpt lat="45.59596" lon="3.93967">
        <ele>1088.656203</ele>
        <time>2019-10-05T12:08:14.0860Z</time>
      </trkpt>
      <trkpt lat="45.59578" lon="3.93966">
        <ele>1084.909983</ele>
        <time>2019-10-05T12:08:32.0610Z</time>
      </trkpt>
      <trkpt lat="45.5956" lon="3.93969">
        <ele>1081.866717</ele>
        <time>2019-10-05T12:08:45.0590Z</time>
      </trkpt>
      <trkpt lat="45.59541" lon="3.93971">
        <ele>1080.292028</ele>
        <time>2019-10-05T12:09:03.0600Z</time>
      </trkpt>
      <trkpt lat="45.59523" lon="3.93962">
        <ele>1076.178275</ele>
        <time>2019-10-05T12:09:22.0600Z</time>
      </trkpt>
      <trkpt lat="45.59507" lon="3.93944">
        <ele>1074.21041</ele>
        <time>2019-10-05T12:09:35.0580Z</time>
      </trkpt>
      <trkpt lat="45.59488" lon="3.93944">
        <ele>1074.223979</ele>
        <time>2019-10-05T12:09:47.0570Z</time>
      </trkpt>
      <trkpt lat="45.59484" lon="3.93969">
        <ele>1076.667562</ele>
        <time>2019-10-05T12:10:17.0580Z</time>
      </trkpt>
      <trkpt lat="45.59485" lon="3.93996">
        <ele>1077.345556</ele>
        <time>2019-10-05T12:10:31.0570Z</time>
      </trkpt>
      <trkpt lat="45.59493" lon="3.94021">
        <ele>1078.519743</ele>
        <time>2019-10-05T12:10:46.0750Z</time>
      </trkpt>
      <trkpt lat="45.59507" lon="3.94038">
        <ele>1078.754244</ele>
        <time>2019-10-05T12:10:58.0570Z</time>
      </trkpt>
      <trkpt lat="45.59519" lon="3.94059">
        <ele>1079.005685</ele>
        <time>2019-10-05T12:11:12.0820Z</time>
      </trkpt>
      <trkpt lat="45.59531" lon="3.9408">
        <ele>1079.642077</ele>
        <time>2019-10-05T12:11:23.0750Z</time>
      </trkpt>
      <trkpt lat="45.59546" lon="3.94096">
        <ele>1079.636458</ele>
        <time>2019-10-05T12:11:38.0600Z</time>
      </trkpt>
      <trkpt lat="45.59557" lon="3.94118">
        <ele>1081.703832</ele>
        <time>2019-10-05T12:11:54.0620Z</time>
      </trkpt>
      <trkpt lat="45.59566" lon="3.9414">
        <ele>1083.905388</ele>
        <time>2019-10-05T12:12:08.0590Z</time>
      </trkpt>
      <trkpt lat="45.59578" lon="3.94161">
        <ele>1087.505092</ele>
        <time>2019-10-05T12:12:25.4510Z</time>
      </trkpt>
      <trkpt lat="45.59584" lon="3.94185">
        <ele>1088.370807</ele>
        <time>2019-10-05T12:12:40.0600Z</time>
      </trkpt>
      <trkpt lat="45.59585" lon="3.94212">
        <ele>1088.893665</ele>
        <time>2019-10-05T12:12:58.0580Z</time>
      </trkpt>
      <trkpt lat="45.59579" lon="3.94237">
        <ele>1088.874973</ele>
        <time>2019-10-05T12:13:10.0600Z</time>
      </trkpt>
      <trkpt lat="45.59573" lon="3.94262">
        <ele>1088.638437</ele>
        <time>2019-10-05T12:13:25.0580Z</time>
      </trkpt>
      <trkpt lat="45.59578" lon="3.94288">
        <ele>1086.664806</ele>
        <time>2019-10-05T12:13:38.1660Z</time>
      </trkpt>
      <trkpt lat="45.5958" lon="3.94315">
        <ele>1085.359627</ele>
        <time>2019-10-05T12:13:53.0750Z</time>
      </trkpt>
      <trkpt lat="45.59583" lon="3.94341">
        <ele>1083.616807</ele>
        <time>2019-10-05T12:14:06.1030Z</time>
      </trkpt>
      <trkpt lat="45.59592" lon="3.94364">
        <ele>1080.444904</ele>
        <time>2019-10-05T12:14:19.0600Z</time>
      </trkpt>
      <trkpt lat="45.59608" lon="3.94379">
        <ele>1079.08966</ele>
        <time>2019-10-05T12:14:32.0570Z</time>
      </trkpt>
      <trkpt lat="45.59624" lon="3.94395">
        <ele>1077.278381</ele>
        <time>2019-10-05T12:14:46.0640Z</time>
      </trkpt>
      <trkpt lat="45.59638" lon="3.94413">
        <ele>1075.583566</ele>
        <time>2019-10-05T12:15:00.0960Z</time>
      </trkpt>
      <trkpt lat="45.5965" lon="3.94433">
        <ele>1074.31907</ele>
        <time>2019-10-05T12:15:14.0920Z</time>
      </trkpt>
      <trkpt lat="45.59659" lon="3.94456">
        <ele>1072.691292</ele>
        <time>2019-10-05T12:15:28.0860Z</time>
      </trkpt>
      <trkpt lat="45.59677" lon="3.94461">
        <ele>1070.948635</ele>
        <time>2019-10-05T12:15:40.1030Z</time>
      </trkpt>
      <trkpt lat="45.59693" lon="3.94474">
        <ele>1068.685515</ele>
        <time>2019-10-05T12:15:53.0890Z</time>
      </trkpt>
      <trkpt lat="45.59707" lon="3.9449">
        <ele>1067.841651</ele>
        <time>2019-10-05T12:16:06.0960Z</time>
      </trkpt>
      <trkpt lat="45.59723" lon="3.94504">
        <ele>1066.480572</ele>
        <time>2019-10-05T12:16:20.0790Z</time>
      </trkpt>
      <trkpt lat="45.59738" lon="3.94521">
        <ele>1065.759752</ele>
        <time>2019-10-05T12:16:32.0860Z</time>
      </trkpt>
      <trkpt lat="45.59754" lon="3.94534">
        <ele>1063.131831</ele>
        <time>2019-10-05T12:16:46.0770Z</time>
      </trkpt>
      <trkpt lat="45.59766" lon="3.94554">
        <ele>1060.427296</ele>
        <time>2019-10-05T12:16:59.0630Z</time>
      </trkpt>
      <trkpt lat="45.59777" lon="3.94576">
        <ele>1057.500966</ele>
        <time>2019-10-05T12:17:12.0870Z</time>
      </trkpt>
      <trkpt lat="45.59788" lon="3.94597">
        <ele>1055.825623</ele>
        <time>2019-10-05T12:17:25.1300Z</time>
      </trkpt>
      <trkpt lat="45.598" lon="3.94619">
        <ele>1053.200163</ele>
        <time>2019-10-05T12:17:39.0800Z</time>
      </trkpt>
      <trkpt lat="45.59812" lon="3.94638">
        <ele>1050.908462</ele>
        <time>2019-10-05T12:17:51.0910Z</time>
      </trkpt>
      <trkpt lat="45.59825" lon="3.94658">
        <ele>1048.07923</ele>
        <time>2019-10-05T12:18:05.0930Z</time>
      </trkpt>
      <trkpt lat="45.59838" lon="3.94678">
        <ele>1045.696387</ele>
        <time>2019-10-05T12:18:19.0920Z</time>
      </trkpt>
      <trkpt lat="45.59849" lon="3.94699">
        <ele>1043.293735</ele>
        <time>2019-10-05T12:18:32.8550Z</time>
      </trkpt>
      <trkpt lat="45.59859" lon="3.94723">
        <ele>1041.261472</ele>
        <time>2019-10-05T12:18:46.0680Z</time>
      </trkpt>
      <trkpt lat="45.59859" lon="3.94749">
        <ele>1032.523595</ele>
        <time>2019-10-05T12:19:02.0840Z</time>
      </trkpt>
      <trkpt lat="45.59843" lon="3.94763">
        <ele>1032.534316</ele>
        <time>2019-10-05T12:19:17.0770Z</time>
      </trkpt>
      <trkpt lat="45.59828" lon="3.94777">
        <ele>1032.45067</ele>
        <time>2019-10-05T12:20:51.0720Z</time>
      </trkpt>
      <trkpt lat="45.59813" lon="3.94792">
        <ele>1036.509798</ele>
        <time>2019-10-05T12:40:35.0730Z</time>
      </trkpt>
      <trkpt lat="45.59795" lon="3.94793">
        <ele>1038.741069</ele>
        <time>2019-10-05T12:40:54.0930Z</time>
      </trkpt>
      <trkpt lat="45.59777" lon="3.94788">
        <ele>1038.594032</ele>
        <time>2019-10-05T12:41:11.0870Z</time>
      </trkpt>
      <trkpt lat="45.5976" lon="3.94779">
        <ele>1037.825145</ele>
        <time>2019-10-05T12:41:28.0840Z</time>
      </trkpt>
      <trkpt lat="45.59746" lon="3.94797">
        <ele>1034.976821</ele>
        <time>2019-10-05T12:41:53.0570Z</time>
      </trkpt>
      <trkpt lat="45.59748" lon="3.94823">
        <ele>1031.768246</ele>
        <time>2019-10-05T12:42:10.0860Z</time>
      </trkpt>
      <trkpt lat="45.59749" lon="3.9485">
        <ele>1028.588268</ele>
        <time>2019-10-05T12:42:25.0700Z</time>
      </trkpt>
      <trkpt lat="45.59756" lon="3.94875">
        <ele>1025.664586</ele>
        <time>2019-10-05T12:42:40.0860Z</time>
      </trkpt>
      <trkpt lat="45.59766" lon="3.94897">
        <ele>1023.18385</ele>
        <time>2019-10-05T12:42:54.0630Z</time>
      </trkpt>
      <trkpt lat="45.59773" lon="3.94923">
        <ele>1021.006903</ele>
        <time>2019-10-05T12:43:09.0800Z</time>
      </trkpt>
      <trkpt lat="45.59782" lon="3.94946">
        <ele>1019.100001</ele>
        <time>2019-10-05T12:43:24.0610Z</time>
      </trkpt>
      <trkpt lat="45.59794" lon="3.94966">
        <ele>1017.726474</ele>
        <time>2019-10-05T12:43:38.0920Z</time>
      </trkpt>
      <trkpt lat="45.59804" lon="3.94988">
        <ele>1014.737433</ele>
        <time>2019-10-05T12:43:53.0990Z</time>
      </trkpt>
      <trkpt lat="45.5981" lon="3.95013">
        <ele>1012.855004</ele>
        <time>2019-10-05T12:44:08.0730Z</time>
      </trkpt>
      <trkpt lat="45.5982" lon="3.95036">
        <ele>1010.818135</ele>
        <time>2019-10-05T12:44:22.0890Z</time>
      </trkpt>
      <trkpt lat="45.59824" lon="3.95061">
        <ele>1008.365405</ele>
        <time>2019-10-05T12:44:36.1040Z</time>
      </trkpt>
      <trkpt lat="45.59835" lon="3.95083">
        <ele>1006.328653</ele>
        <time>2019-10-05T12:44:49.0720Z</time>
      </trkpt>
      <trkpt lat="45.59844" lon="3.95107">
        <ele>1003.739532</ele>
        <time>2019-10-05T12:45:04.0860Z</time>
      </trkpt>
      <trkpt lat="45.59851" lon="3.9513">
        <ele>1001.277467</ele>
        <time>2019-10-05T12:45:20.1140Z</time>
      </trkpt>
      <trkpt lat="45.59861" lon="3.95152">
        <ele>998.221814</ele>
        <time>2019-10-05T12:45:36.1040Z</time>
      </trkpt>
      <trkpt lat="45.59871" lon="3.95175">
        <ele>996.683614</ele>
        <time>2019-10-05T12:45:49.0860Z</time>
      </trkpt>
      <trkpt lat="45.59876" lon="3.95201">
        <ele>995.419911</ele>
        <time>2019-10-05T12:46:05.0890Z</time>
      </trkpt>
      <trkpt lat="45.59876" lon="3.95227">
        <ele>993.081325</ele>
        <time>2019-10-05T12:46:18.0880Z</time>
      </trkpt>
      <trkpt lat="45.59875" lon="3.95253">
        <ele>990.967288</ele>
        <time>2019-10-05T12:46:34.0650Z</time>
      </trkpt>
      <trkpt lat="45.5987" lon="3.95278">
        <ele>990.023549</ele>
        <time>2019-10-05T12:46:47.0570Z</time>
      </trkpt>
      <trkpt lat="45.59863" lon="3.95303">
        <ele>988.507321</ele>
        <time>2019-10-05T12:47:02.0590Z</time>
      </trkpt>
      <trkpt lat="45.59856" lon="3.95327">
        <ele>986.341754</ele>
        <time>2019-10-05T12:47:16.1080Z</time>
      </trkpt>
      <trkpt lat="45.59857" lon="3.95353">
        <ele>983.959053</ele>
        <time>2019-10-05T12:47:32.1040Z</time>
      </trkpt>
      <trkpt lat="45.59857" lon="3.9538">
        <ele>982.550037</ele>
        <time>2019-10-05T12:47:45.0540Z</time>
      </trkpt>
      <trkpt lat="45.59867" lon="3.95403">
        <ele>981.578671</ele>
        <time>2019-10-05T12:47:58.0870Z</time>
      </trkpt>
      <trkpt lat="45.59879" lon="3.95423">
        <ele>980.238225</ele>
        <time>2019-10-05T12:48:12.0550Z</time>
      </trkpt>
      <trkpt lat="45.5989" lon="3.95446">
        <ele>978.961616</ele>
        <time>2019-10-05T12:48:26.1020Z</time>
      </trkpt>
      <trkpt lat="45.59902" lon="3.95467">
        <ele>977.634181</ele>
        <time>2019-10-05T12:48:41.0560Z</time>
      </trkpt>
      <trkpt lat="45.59907" lon="3.95492">
        <ele>974.326121</ele>
        <time>2019-10-05T12:48:55.0670Z</time>
      </trkpt>
      <trkpt lat="45.59914" lon="3.95517">
        <ele>971.792312</ele>
        <time>2019-10-05T12:49:09.0870Z</time>
      </trkpt>
      <trkpt lat="45.59921" lon="3.95542">
        <ele>969.977316</ele>
        <time>2019-10-05T12:49:22.0650Z</time>
      </trkpt>
      <trkpt lat="45.59931" lon="3.95564">
        <ele>967.83251</ele>
        <time>2019-10-05T12:49:35.0660Z</time>
      </trkpt>
      <trkpt lat="45.59939" lon="3.95588">
        <ele>965.25153</ele>
        <time>2019-10-05T12:49:49.0690Z</time>
      </trkpt>
      <trkpt lat="45.59936" lon="3.95615">
        <ele>963.092338</ele>
        <time>2019-10-05T12:50:03.0830Z</time>
      </trkpt>
      <trkpt lat="45.59941" lon="3.95641">
        <ele>960.557666</ele>
        <time>2019-10-05T12:50:14.0690Z</time>
      </trkpt>
      <trkpt lat="45.59951" lon="3.95662">
        <ele>957.330233</ele>
        <time>2019-10-05T12:50:27.0560Z</time>
      </trkpt>
      <trkpt lat="45.59963" lon="3.95682">
        <ele>955.475863</ele>
        <time>2019-10-05T12:50:38.0450Z</time>
      </trkpt>
      <trkpt lat="45.59973" lon="3.95705">
        <ele>953.410354</ele>
        <time>2019-10-05T12:50:51.0540Z</time>
      </trkpt>
      <trkpt lat="45.5998" lon="3.95729">
        <ele>952.154197</ele>
        <time>2019-10-05T12:51:05.0710Z</time>
      </trkpt>
      <trkpt lat="45.59984" lon="3.95755">
        <ele>950.937327</ele>
        <time>2019-10-05T12:51:18.0880Z</time>
      </trkpt>
      <trkpt lat="45.59989" lon="3.95781">
        <ele>949.353206</ele>
        <time>2019-10-05T12:51:31.0920Z</time>
      </trkpt>
      <trkpt lat="45.59994" lon="3.95806">
        <ele>948.428314</ele>
        <time>2019-10-05T12:51:43.0590Z</time>
      </trkpt>
      <trkpt lat="45.60009" lon="3.95821">
        <ele>947.066508</ele>
        <time>2019-10-05T12:51:58.0640Z</time>
      </trkpt>
      <trkpt lat="45.60028" lon="3.95814">
        <ele>945.93169</ele>
        <time>2019-10-05T12:52:11.0560Z</time>
      </trkpt>
      <trkpt lat="45.60047" lon="3.95809">
        <ele>943.534575</ele>
        <time>2019-10-05T12:52:26.0930Z</time>
      </trkpt>
      <trkpt lat="45.60065" lon="3.95812">
        <ele>943.087753</ele>
        <time>2019-10-05T12:52:38.0710Z</time>
      </trkpt>
      <trkpt lat="45.60084" lon="3.95821">
        <ele>942.468258</ele>
        <time>2019-10-05T12:52:50.0760Z</time>
      </trkpt>
      <trkpt lat="45.60098" lon="3.95837">
        <ele>941.410619</ele>
        <time>2019-10-05T12:53:02.0880Z</time>
      </trkpt>
      <trkpt lat="45.60117" lon="3.95845">
        <ele>940.732589</ele>
        <time>2019-10-05T12:53:16.0960Z</time>
      </trkpt>
      <trkpt lat="45.60132" lon="3.95859">
        <ele>941.010294</ele>
        <time>2019-10-05T12:53:30.0550Z</time>
      </trkpt>
      <trkpt lat="45.60142" lon="3.9588">
        <ele>941.527719</ele>
        <time>2019-10-05T12:53:44.0470Z</time>
      </trkpt>
      <trkpt lat="45.60156" lon="3.959">
        <ele>941.205162</ele>
        <time>2019-10-05T12:53:58.0880Z</time>
      </trkpt>
      <trkpt lat="45.60168" lon="3.95918">
        <ele>941.133307</ele>
        <time>2019-10-05T12:54:12.0590Z</time>
      </trkpt>
      <trkpt lat="45.6018" lon="3.9594">
        <ele>939.252902</ele>
        <time>2019-10-05T12:54:25.0560Z</time>
      </trkpt>
      <trkpt lat="45.60171" lon="3.95964">
        <ele>937.956067</ele>
        <time>2019-10-05T12:54:40.0540Z</time>
      </trkpt>
      <trkpt lat="45.60163" lon="3.95987">
        <ele>937.022429</ele>
        <time>2019-10-05T12:54:52.0610Z</time>
      </trkpt>
      <trkpt lat="45.60161" lon="3.96014">
        <ele>937.605635</ele>
        <time>2019-10-05T12:55:06.0910Z</time>
      </trkpt>
      <trkpt lat="45.60157" lon="3.9604">
        <ele>937.216281</ele>
        <time>2019-10-05T12:55:21.4110Z</time>
      </trkpt>
      <trkpt lat="45.6015" lon="3.96064">
        <ele>936.929642</ele>
        <time>2019-10-05T12:55:35.0570Z</time>
      </trkpt>
      <trkpt lat="45.60146" lon="3.96089">
        <ele>937.391525</ele>
        <time>2019-10-05T12:55:48.0570Z</time>
      </trkpt>
      <trkpt lat="45.60137" lon="3.96112">
        <ele>937.205358</ele>
        <time>2019-10-05T12:56:01.0470Z</time>
      </trkpt>
      <trkpt lat="45.60131" lon="3.96139">
        <ele>937.948904</ele>
        <time>2019-10-05T12:56:15.0620Z</time>
      </trkpt>
      <trkpt lat="45.60133" lon="3.96166">
        <ele>938.544445</ele>
        <time>2019-10-05T12:56:30.0550Z</time>
      </trkpt>
      <trkpt lat="45.60136" lon="3.96192">
        <ele>936.928059</ele>
        <time>2019-10-05T12:56:42.0530Z</time>
      </trkpt>
      <trkpt lat="45.6014" lon="3.96219">
        <ele>936.556564</ele>
        <time>2019-10-05T12:56:55.0830Z</time>
      </trkpt>
      <trkpt lat="45.60146" lon="3.96245">
        <ele>935.481187</ele>
        <time>2019-10-05T12:57:10.0670Z</time>
      </trkpt>
      <trkpt lat="45.60152" lon="3.9627">
        <ele>934.105723</ele>
        <time>2019-10-05T12:57:22.0590Z</time>
      </trkpt>
      <trkpt lat="45.60148" lon="3.96295">
        <ele>933.191019</ele>
        <time>2019-10-05T12:57:34.0660Z</time>
      </trkpt>
      <trkpt lat="45.60141" lon="3.96321">
        <ele>930.935759</ele>
        <time>2019-10-05T12:57:48.0600Z</time>
      </trkpt>
      <trkpt lat="45.60133" lon="3.96347">
        <ele>928.382394</ele>
        <time>2019-10-05T12:58:01.0590Z</time>
      </trkpt>
      <trkpt lat="45.60148" lon="3.96364">
        <ele>927.739457</ele>
        <time>2019-10-05T12:58:14.0850Z</time>
      </trkpt>
      <trkpt lat="45.60162" lon="3.96381">
        <ele>927.145012</ele>
        <time>2019-10-05T12:58:26.0890Z</time>
      </trkpt>
      <trkpt lat="45.60174" lon="3.96401">
        <ele>926.905188</ele>
        <time>2019-10-05T12:58:39.0560Z</time>
      </trkpt>
      <trkpt lat="45.60185" lon="3.96421">
        <ele>925.882703</ele>
        <time>2019-10-05T12:58:53.0600Z</time>
      </trkpt>
      <trkpt lat="45.60197" lon="3.96441">
        <ele>925.891148</ele>
        <time>2019-10-05T12:59:08.0510Z</time>
      </trkpt>
      <trkpt lat="45.60193" lon="3.96415">
        <ele>925.556207</ele>
        <time>2019-10-05T13:00:17.0530Z</time>
      </trkpt>
      <trkpt lat="45.60203" lon="3.9639">
        <ele>925.974941</ele>
        <time>2019-10-05T13:00:31.0520Z</time>
      </trkpt>
      <trkpt lat="45.60221" lon="3.96413">
        <ele>925.679147</ele>
        <time>2019-10-05T13:00:44.0680Z</time>
      </trkpt>
      <trkpt lat="45.60156" lon="3.96395">
        <ele>925.603524</ele>
        <time>2019-10-05T13:00:45.0610Z</time>
      </trkpt>
      <trkpt lat="45.6017" lon="3.96378">
        <ele>925.718477</ele>
        <time>2019-10-05T13:01:04.0480Z</time>
      </trkpt>
      <trkpt lat="45.60234" lon="3.96478">
        <ele>925.510164</ele>
        <time>2019-10-05T13:01:29.0780Z</time>
      </trkpt>
      <trkpt lat="45.60211" lon="3.96468">
        <ele>925.443932</ele>
        <time>2019-10-05T13:01:30.0530Z</time>
      </trkpt>
      <trkpt lat="45.6021" lon="3.96425">
        <ele>925.40311</ele>
        <time>2019-10-05T13:01:32.0520Z</time>
      </trkpt>
      <trkpt lat="45.60214" lon="3.96451">
        <ele>925.237742</ele>
        <time>2019-10-05T13:01:40.1070Z</time>
      </trkpt>
      <trkpt lat="45.60229" lon="3.96437">
        <ele>921.243802</ele>
        <time>2019-10-05T13:02:01.0600Z</time>
      </trkpt>
      <trkpt lat="45.60235" lon="3.96411">
        <ele>918.963096</ele>
        <time>2019-10-05T13:02:14.0610Z</time>
      </trkpt>
      <trkpt lat="45.60242" lon="3.96385">
        <ele>917.31484</ele>
        <time>2019-10-05T13:02:27.0580Z</time>
      </trkpt>
      <trkpt lat="45.6025" lon="3.9636">
        <ele>915.564098</ele>
        <time>2019-10-05T13:02:39.0460Z</time>
      </trkpt>
      <trkpt lat="45.60257" lon="3.96335">
        <ele>914.440359</ele>
        <time>2019-10-05T13:02:52.0720Z</time>
      </trkpt>
      <trkpt lat="45.60261" lon="3.96308">
        <ele>913.766668</ele>
        <time>2019-10-05T13:03:06.0590Z</time>
      </trkpt>
      <trkpt lat="45.60268" lon="3.96283">
        <ele>913.177875</ele>
        <time>2019-10-05T13:03:20.0560Z</time>
      </trkpt>
      <trkpt lat="45.60276" lon="3.96258">
        <ele>912.959871</ele>
        <time>2019-10-05T13:03:36.0900Z</time>
      </trkpt>
      <trkpt lat="45.60292" lon="3.96247">
        <ele>912.437497</ele>
        <time>2019-10-05T13:03:53.0580Z</time>
      </trkpt>
      <trkpt lat="45.60311" lon="3.96249">
        <ele>912.760162</ele>
        <time>2019-10-05T13:04:08.0570Z</time>
      </trkpt>
      <trkpt lat="45.60329" lon="3.96247">
        <ele>912.184005</ele>
        <time>2019-10-05T13:04:23.0630Z</time>
      </trkpt>
      <trkpt lat="45.60345" lon="3.96232">
        <ele>910.402424</ele>
        <time>2019-10-05T13:04:36.0530Z</time>
      </trkpt>
      <trkpt lat="45.60357" lon="3.96209">
        <ele>909.093571</ele>
        <time>2019-10-05T13:04:48.0590Z</time>
      </trkpt>
      <trkpt lat="45.60369" lon="3.9619">
        <ele>907.835578</ele>
        <time>2019-10-05T13:05:00.0580Z</time>
      </trkpt>
      <trkpt lat="45.60377" lon="3.96165">
        <ele>907.18682</ele>
        <time>2019-10-05T13:05:13.0560Z</time>
      </trkpt>
      <trkpt lat="45.60385" lon="3.96141">
        <ele>905.56014</ele>
        <time>2019-10-05T13:05:27.0540Z</time>
      </trkpt>
      <trkpt lat="45.60391" lon="3.96117">
        <ele>904.380306</ele>
        <time>2019-10-05T13:05:41.0750Z</time>
      </trkpt>
      <trkpt lat="45.60399" lon="3.96092">
        <ele>902.896384</ele>
        <time>2019-10-05T13:05:55.0900Z</time>
      </trkpt>
      <trkpt lat="45.60408" lon="3.96068">
        <ele>901.113343</ele>
        <time>2019-10-05T13:06:09.0460Z</time>
      </trkpt>
      <trkpt lat="45.60417" lon="3.96044">
        <ele>899.476541</ele>
        <time>2019-10-05T13:06:23.0730Z</time>
      </trkpt>
      <trkpt lat="45.60427" lon="3.96021">
        <ele>896.440262</ele>
        <time>2019-10-05T13:06:37.0740Z</time>
      </trkpt>
      <trkpt lat="45.60434" lon="3.95996">
        <ele>893.465096</ele>
        <time>2019-10-05T13:06:51.0750Z</time>
      </trkpt>
      <trkpt lat="45.60442" lon="3.95973">
        <ele>891.789221</ele>
        <time>2019-10-05T13:07:03.0680Z</time>
      </trkpt>
      <trkpt lat="45.60461" lon="3.9597">
        <ele>888.014068</ele>
        <time>2019-10-05T13:07:22.0750Z</time>
      </trkpt>
      <trkpt lat="45.60477" lon="3.95983">
        <ele>885.919586</ele>
        <time>2019-10-05T13:07:35.0650Z</time>
      </trkpt>
      <trkpt lat="45.60496" lon="3.95985">
        <ele>883.905572</ele>
        <time>2019-10-05T13:07:49.0520Z</time>
      </trkpt>
      <trkpt lat="45.60513" lon="3.95997">
        <ele>881.955453</ele>
        <time>2019-10-05T13:08:02.0590Z</time>
      </trkpt>
      <trkpt lat="45.60531" lon="3.96003">
        <ele>879.424475</ele>
        <time>2019-10-05T13:08:19.0420Z</time>
      </trkpt>
      <trkpt lat="45.60548" lon="3.95992">
        <ele>878.417908</ele>
        <time>2019-10-05T13:08:33.0550Z</time>
      </trkpt>
      <trkpt lat="45.60567" lon="3.95996">
        <ele>878.370706</ele>
        <time>2019-10-05T13:08:44.0510Z</time>
      </trkpt>
      <trkpt lat="45.60576" lon="3.96019">
        <ele>880.78162</ele>
        <time>2019-10-05T13:09:01.0600Z</time>
      </trkpt>
      <trkpt lat="45.60575" lon="3.96047">
        <ele>884.299325</ele>
        <time>2019-10-05T13:09:19.6290Z</time>
      </trkpt>
      <trkpt lat="45.60589" lon="3.96064">
        <ele>886.566822</ele>
        <time>2019-10-05T13:09:33.0470Z</time>
      </trkpt>
      <trkpt lat="45.60601" lon="3.96045">
        <ele>887.985693</ele>
        <time>2019-10-05T13:09:46.0850Z</time>
      </trkpt>
      <trkpt lat="45.60619" lon="3.9604">
        <ele>887.27187</ele>
        <time>2019-10-05T13:10:04.0550Z</time>
      </trkpt>
      <trkpt lat="45.60637" lon="3.96047">
        <ele>886.727734</ele>
        <time>2019-10-05T13:10:21.0600Z</time>
      </trkpt>
      <trkpt lat="45.60651" lon="3.96064">
        <ele>883.617511</ele>
        <time>2019-10-05T13:10:37.0670Z</time>
      </trkpt>
      <trkpt lat="45.60651" lon="3.9609">
        <ele>882.105571</ele>
        <time>2019-10-05T13:10:50.0620Z</time>
      </trkpt>
      <trkpt lat="45.60657" lon="3.96115">
        <ele>881.163968</ele>
        <time>2019-10-05T13:11:03.0610Z</time>
      </trkpt>
      <trkpt lat="45.60667" lon="3.96137">
        <ele>880.613341</ele>
        <time>2019-10-05T13:11:17.0580Z</time>
      </trkpt>
      <trkpt lat="45.60683" lon="3.96152">
        <ele>880.744824</ele>
        <time>2019-10-05T13:11:31.0520Z</time>
      </trkpt>
      <trkpt lat="45.607" lon="3.96163">
        <ele>881.578066</ele>
        <time>2019-10-05T13:11:46.0860Z</time>
      </trkpt>
      <trkpt lat="45.60718" lon="3.96162">
        <ele>882.806818</ele>
        <time>2019-10-05T13:12:02.0600Z</time>
      </trkpt>
      <trkpt lat="45.60736" lon="3.96153">
        <ele>884.001377</ele>
        <time>2019-10-05T13:12:17.0740Z</time>
      </trkpt>
      <trkpt lat="45.60752" lon="3.96143">
        <ele>885.607448</ele>
        <time>2019-10-05T13:12:33.0610Z</time>
      </trkpt>
      <trkpt lat="45.6077" lon="3.96145">
        <ele>887.246626</ele>
        <time>2019-10-05T13:12:49.0950Z</time>
      </trkpt>
      <trkpt lat="45.60785" lon="3.9616">
        <ele>888.063259</ele>
        <time>2019-10-05T13:13:07.0570Z</time>
      </trkpt>
      <trkpt lat="45.60793" lon="3.96183">
        <ele>889.436838</ele>
        <time>2019-10-05T13:13:22.0610Z</time>
      </trkpt>
      <trkpt lat="45.60792" lon="3.96209">
        <ele>891.041365</ele>
        <time>2019-10-05T13:13:37.0600Z</time>
      </trkpt>
      <trkpt lat="45.6079" lon="3.96235">
        <ele>893.268586</ele>
        <time>2019-10-05T13:13:54.0600Z</time>
      </trkpt>
      <trkpt lat="45.6079" lon="3.96261">
        <ele>896.247421</ele>
        <time>2019-10-05T13:14:12.0950Z</time>
      </trkpt>
      <trkpt lat="45.60796" lon="3.96285">
        <ele>896.892082</ele>
        <time>2019-10-05T13:14:27.0900Z</time>
      </trkpt>
      <trkpt lat="45.60804" lon="3.96309">
        <ele>896.503019</ele>
        <time>2019-10-05T13:14:42.0500Z</time>
      </trkpt>
      <trkpt lat="45.60815" lon="3.96331">
        <ele>896.487469</ele>
        <time>2019-10-05T13:14:57.0580Z</time>
      </trkpt>
      <trkpt lat="45.60824" lon="3.96355">
        <ele>896.182066</ele>
        <time>2019-10-05T13:15:11.0670Z</time>
      </trkpt>
      <trkpt lat="45.60829" lon="3.96381">
        <ele>896.439633</ele>
        <time>2019-10-05T13:15:25.0630Z</time>
      </trkpt>
      <trkpt lat="45.60837" lon="3.96406">
        <ele>897.727465</ele>
        <time>2019-10-05T13:15:40.0730Z</time>
      </trkpt>
      <trkpt lat="45.60841" lon="3.96433">
        <ele>897.977458</ele>
        <time>2019-10-05T13:15:54.0970Z</time>
      </trkpt>
      <trkpt lat="45.6085" lon="3.96457">
        <ele>898.65628</ele>
        <time>2019-10-05T13:16:10.0620Z</time>
      </trkpt>
      <trkpt lat="45.60859" lon="3.9648">
        <ele>899.237744</ele>
        <time>2019-10-05T13:16:31.0610Z</time>
      </trkpt>
      <trkpt lat="45.60868" lon="3.96502">
        <ele>898.538596</ele>
        <time>2019-10-05T13:16:45.0880Z</time>
      </trkpt>
      <trkpt lat="45.60881" lon="3.96521">
        <ele>897.770343</ele>
        <time>2019-10-05T13:16:59.0620Z</time>
      </trkpt>
      <trkpt lat="45.60895" lon="3.96539">
        <ele>898.292457</ele>
        <time>2019-10-05T13:17:14.0650Z</time>
      </trkpt>
      <trkpt lat="45.60911" lon="3.96553">
        <ele>899.086195</ele>
        <time>2019-10-05T13:17:29.0880Z</time>
      </trkpt>
      <trkpt lat="45.60927" lon="3.96567">
        <ele>900.303805</ele>
        <time>2019-10-05T13:17:44.0940Z</time>
      </trkpt>
      <trkpt lat="45.60942" lon="3.96583">
        <ele>901.59307</ele>
        <time>2019-10-05T13:17:59.0960Z</time>
      </trkpt>
      <trkpt lat="45.60958" lon="3.96598">
        <ele>902.924478</ele>
        <time>2019-10-05T13:18:14.0880Z</time>
      </trkpt>
      <trkpt lat="45.60974" lon="3.96611">
        <ele>904.425822</ele>
        <time>2019-10-05T13:18:30.0730Z</time>
      </trkpt>
      <trkpt lat="45.60991" lon="3.96623">
        <ele>906.747333</ele>
        <time>2019-10-05T13:18:48.0590Z</time>
      </trkpt>
      <trkpt lat="45.61001" lon="3.96645">
        <ele>905.422756</ele>
        <time>2019-10-05T13:19:03.0700Z</time>
      </trkpt>
      <trkpt lat="45.6101" lon="3.96667">
        <ele>903.897684</ele>
        <time>2019-10-05T13:19:17.0870Z</time>
      </trkpt>
      <trkpt lat="45.61016" lon="3.96692">
        <ele>902.086846</ele>
        <time>2019-10-05T13:19:31.0480Z</time>
      </trkpt>
      <trkpt lat="45.61031" lon="3.96706">
        <ele>900.820568</ele>
        <time>2019-10-05T13:19:46.0570Z</time>
      </trkpt>
      <trkpt lat="45.61045" lon="3.96724">
        <ele>898.551895</ele>
        <time>2019-10-05T13:19:58.0960Z</time>
      </trkpt>
      <trkpt lat="45.61061" lon="3.96736">
        <ele>897.192806</ele>
        <time>2019-10-05T13:20:12.0700Z</time>
      </trkpt>
      <trkpt lat="45.61076" lon="3.96753">
        <ele>896.489064</ele>
        <time>2019-10-05T13:20:25.0520Z</time>
      </trkpt>
      <trkpt lat="45.61088" lon="3.96773">
        <ele>894.203686</ele>
        <time>2019-10-05T13:20:38.0760Z</time>
      </trkpt>
      <trkpt lat="45.61098" lon="3.96794">
        <ele>893.815744</ele>
        <time>2019-10-05T13:20:51.0760Z</time>
      </trkpt>
      <trkpt lat="45.61111" lon="3.96814">
        <ele>891.806682</ele>
        <time>2019-10-05T13:21:05.0940Z</time>
      </trkpt>
      <trkpt lat="45.61122" lon="3.96835">
        <ele>889.789239</ele>
        <time>2019-10-05T13:21:19.0790Z</time>
      </trkpt>
      <trkpt lat="45.61136" lon="3.96852">
        <ele>887.286091</ele>
        <time>2019-10-05T13:21:32.0650Z</time>
      </trkpt>
      <trkpt lat="45.61151" lon="3.96869">
        <ele>885.424653</ele>
        <time>2019-10-05T13:21:45.0750Z</time>
      </trkpt>
      <trkpt lat="45.61164" lon="3.96889">
        <ele>884.4289</ele>
        <time>2019-10-05T13:21:59.0680Z</time>
      </trkpt>
      <trkpt lat="45.61176" lon="3.9691">
        <ele>884.057338</ele>
        <time>2019-10-05T13:22:14.0720Z</time>
      </trkpt>
      <trkpt lat="45.61189" lon="3.96928">
        <ele>883.017743</ele>
        <time>2019-10-05T13:22:28.0860Z</time>
      </trkpt>
      <trkpt lat="45.61203" lon="3.96945">
        <ele>882.149978</ele>
        <time>2019-10-05T13:22:41.0640Z</time>
      </trkpt>
      <trkpt lat="45.61217" lon="3.96962">
        <ele>881.534783</ele>
        <time>2019-10-05T13:22:55.0930Z</time>
      </trkpt>
      <trkpt lat="45.61233" lon="3.96977">
        <ele>880.766012</ele>
        <time>2019-10-05T13:23:09.0760Z</time>
      </trkpt>
      <trkpt lat="45.61249" lon="3.96989">
        <ele>881.10461</ele>
        <time>2019-10-05T13:23:23.0890Z</time>
      </trkpt>
      <trkpt lat="45.61265" lon="3.97002">
        <ele>881.223082</ele>
        <time>2019-10-05T13:23:38.0750Z</time>
      </trkpt>
      <trkpt lat="45.61279" lon="3.97019">
        <ele>879.816822</ele>
        <time>2019-10-05T13:23:51.0660Z</time>
      </trkpt>
      <trkpt lat="45.61292" lon="3.97039">
        <ele>879.37447</ele>
        <time>2019-10-05T13:24:08.0860Z</time>
      </trkpt>
      <trkpt lat="45.61305" lon="3.97059">
        <ele>878.483245</ele>
        <time>2019-10-05T13:24:23.0580Z</time>
      </trkpt>
      <trkpt lat="45.61319" lon="3.97078">
        <ele>878.121982</ele>
        <time>2019-10-05T13:24:37.0460Z</time>
      </trkpt>
      <trkpt lat="45.6133" lon="3.971">
        <ele>876.599188</ele>
        <time>2019-10-05T13:24:52.0950Z</time>
      </trkpt>
      <trkpt lat="45.61329" lon="3.97126">
        <ele>874.76379</ele>
        <time>2019-10-05T13:25:07.0850Z</time>
      </trkpt>
      <trkpt lat="45.6134" lon="3.97147">
        <ele>872.745232</ele>
        <time>2019-10-05T13:25:20.0780Z</time>
      </trkpt>
      <trkpt lat="45.61355" lon="3.97164">
        <ele>871.800979</ele>
        <time>2019-10-05T13:25:33.0800Z</time>
      </trkpt>
      <trkpt lat="45.6137" lon="3.97178">
        <ele>871.166153</ele>
        <time>2019-10-05T13:25:45.0590Z</time>
      </trkpt>
      <trkpt lat="45.61387" lon="3.97192">
        <ele>870.6216</ele>
        <time>2019-10-05T13:25:59.0710Z</time>
      </trkpt>
      <trkpt lat="45.61403" lon="3.97205">
        <ele>870.084558</ele>
        <time>2019-10-05T13:26:13.0810Z</time>
      </trkpt>
      <trkpt lat="45.61422" lon="3.97211">
        <ele>868.923446</ele>
        <time>2019-10-05T13:26:25.0510Z</time>
      </trkpt>
      <trkpt lat="45.61436" lon="3.97229">
        <ele>867.288349</ele>
        <time>2019-10-05T13:26:41.0530Z</time>
      </trkpt>
      <trkpt lat="45.61444" lon="3.97253">
        <ele>866.289585</ele>
        <time>2019-10-05T13:26:52.0590Z</time>
      </trkpt>
      <trkpt lat="45.6146" lon="3.97269">
        <ele>866.781767</ele>
        <time>2019-10-05T13:27:05.0860Z</time>
      </trkpt>
      <trkpt lat="45.61476" lon="3.97279">
        <ele>866.722345</ele>
        <time>2019-10-05T13:27:19.0490Z</time>
      </trkpt>
      <trkpt lat="45.61493" lon="3.97289">
        <ele>867.096627</ele>
        <time>2019-10-05T13:27:33.0560Z</time>
      </trkpt>
      <trkpt lat="45.61508" lon="3.97304">
        <ele>867.971453</ele>
        <time>2019-10-05T13:27:47.0440Z</time>
      </trkpt>
      <trkpt lat="45.61525" lon="3.97315">
        <ele>870.485747</ele>
        <time>2019-10-05T13:28:03.0630Z</time>
      </trkpt>
      <trkpt lat="45.61543" lon="3.97323">
        <ele>872.076593</ele>
        <time>2019-10-05T13:28:20.0880Z</time>
      </trkpt>
      <trkpt lat="45.61549" lon="3.97349">
        <ele>871.083346</ele>
        <time>2019-10-05T13:28:34.0900Z</time>
      </trkpt>
      <trkpt lat="45.61554" lon="3.97375">
        <ele>870.524018</ele>
        <time>2019-10-05T13:28:48.0920Z</time>
      </trkpt>
      <trkpt lat="45.6156" lon="3.974">
        <ele>871.262657</ele>
        <time>2019-10-05T13:29:01.0930Z</time>
      </trkpt>
      <trkpt lat="45.61565" lon="3.97425">
        <ele>872.242756</ele>
        <time>2019-10-05T13:29:15.0550Z</time>
      </trkpt>
      <trkpt lat="45.61574" lon="3.97448">
        <ele>872.680209</ele>
        <time>2019-10-05T13:29:29.0730Z</time>
      </trkpt>
      <trkpt lat="45.61591" lon="3.97462">
        <ele>873.467336</ele>
        <time>2019-10-05T13:29:42.0850Z</time>
      </trkpt>
      <trkpt lat="45.61603" lon="3.97482">
        <ele>874.317695</ele>
        <time>2019-10-05T13:29:57.0850Z</time>
      </trkpt>
      <trkpt lat="45.61613" lon="3.97505">
        <ele>874.587144</ele>
        <time>2019-10-05T13:30:10.0890Z</time>
      </trkpt>
      <trkpt lat="45.6162" lon="3.9753">
        <ele>874.370148</ele>
        <time>2019-10-05T13:30:25.0590Z</time>
      </trkpt>
      <trkpt lat="45.61627" lon="3.97555">
        <ele>874.735396</ele>
        <time>2019-10-05T13:30:39.0550Z</time>
      </trkpt>
      <trkpt lat="45.6163" lon="3.97581">
        <ele>874.670647</ele>
        <time>2019-10-05T13:30:52.0600Z</time>
      </trkpt>
      <trkpt lat="45.61638" lon="3.97605">
        <ele>873.781599</ele>
        <time>2019-10-05T13:31:06.0570Z</time>
      </trkpt>
      <trkpt lat="45.61635" lon="3.9763">
        <ele>872.900442</ele>
        <time>2019-10-05T13:31:19.0810Z</time>
      </trkpt>
      <trkpt lat="45.61641" lon="3.97655">
        <ele>873.123775</ele>
        <time>2019-10-05T13:31:31.0600Z</time>
      </trkpt>
      <trkpt lat="45.61646" lon="3.9768">
        <ele>873.464022</ele>
        <time>2019-10-05T13:31:45.0850Z</time>
      </trkpt>
      <trkpt lat="45.61648" lon="3.97707">
        <ele>873.967021</ele>
        <time>2019-10-05T13:31:59.0650Z</time>
      </trkpt>
      <trkpt lat="45.61653" lon="3.97734">
        <ele>874.902398</ele>
        <time>2019-10-05T13:32:13.0670Z</time>
      </trkpt>
      <trkpt lat="45.61658" lon="3.97759">
        <ele>876.409913</ele>
        <time>2019-10-05T13:32:27.0690Z</time>
      </trkpt>
      <trkpt lat="45.61663" lon="3.97785">
        <ele>879.136763</ele>
        <time>2019-10-05T13:32:43.0740Z</time>
      </trkpt>
      <trkpt lat="45.6167" lon="3.9781">
        <ele>881.031388</ele>
        <time>2019-10-05T13:33:02.0960Z</time>
      </trkpt>
      <trkpt lat="45.61673" lon="3.97836">
        <ele>879.09218</ele>
        <time>2019-10-05T13:33:17.0790Z</time>
      </trkpt>
      <trkpt lat="45.61682" lon="3.97861">
        <ele>877.451792</ele>
        <time>2019-10-05T13:33:32.0720Z</time>
      </trkpt>
      <trkpt lat="45.61695" lon="3.9788">
        <ele>875.580416</ele>
        <time>2019-10-05T13:33:45.0720Z</time>
      </trkpt>
      <trkpt lat="45.61704" lon="3.97902">
        <ele>872.928946</ele>
        <time>2019-10-05T13:33:59.0940Z</time>
      </trkpt>
      <trkpt lat="45.61711" lon="3.97927">
        <ele>869.624873</ele>
        <time>2019-10-05T13:34:14.0900Z</time>
      </trkpt>
      <trkpt lat="45.61709" lon="3.97954">
        <ele>865.135274</ele>
        <time>2019-10-05T13:34:30.0930Z</time>
      </trkpt>
      <trkpt lat="45.61704" lon="3.97979">
        <ele>860.942369</ele>
        <time>2019-10-05T13:34:44.0930Z</time>
      </trkpt>
      <trkpt lat="45.61705" lon="3.98005">
        <ele>856.263127</ele>
        <time>2019-10-05T13:35:00.0830Z</time>
      </trkpt>
      <trkpt lat="45.61719" lon="3.98024">
        <ele>853.677904</ele>
        <time>2019-10-05T13:35:14.0580Z</time>
      </trkpt>
      <trkpt lat="45.61735" lon="3.98035">
        <ele>851.030198</ele>
        <time>2019-10-05T13:35:27.0770Z</time>
      </trkpt>
      <trkpt lat="45.61752" lon="3.98047">
        <ele>846.948285</ele>
        <time>2019-10-05T13:35:44.0730Z</time>
      </trkpt>
      <trkpt lat="45.61763" lon="3.9807">
        <ele>843.178991</ele>
        <time>2019-10-05T13:35:58.0830Z</time>
      </trkpt>
      <trkpt lat="45.61769" lon="3.98095">
        <ele>840.779289</ele>
        <time>2019-10-05T13:36:11.0830Z</time>
      </trkpt>
      <trkpt lat="45.61777" lon="3.98119">
        <ele>851.764592</ele>
        <time>2019-10-05T13:36:24.0850Z</time>
      </trkpt>
      <trkpt lat="45.61784" lon="3.98143">
        <ele>849.176719</ele>
        <time>2019-10-05T13:36:39.0910Z</time>
      </trkpt>
      <trkpt lat="45.61794" lon="3.98165">
        <ele>846.094886</ele>
        <time>2019-10-05T13:36:53.0880Z</time>
      </trkpt>
      <trkpt lat="45.61804" lon="3.98188">
        <ele>844.016084</ele>
        <time>2019-10-05T13:37:07.0740Z</time>
      </trkpt>
      <trkpt lat="45.61809" lon="3.98214">
        <ele>842.864077</ele>
        <time>2019-10-05T13:37:21.0920Z</time>
      </trkpt>
      <trkpt lat="45.61816" lon="3.98239">
        <ele>841.6403</ele>
        <time>2019-10-05T13:37:34.0900Z</time>
      </trkpt>
      <trkpt lat="45.61825" lon="3.98263">
        <ele>839.747459</ele>
        <time>2019-10-05T13:37:48.0830Z</time>
      </trkpt>
      <trkpt lat="45.61834" lon="3.98288">
        <ele>838.407137</ele>
        <time>2019-10-05T13:38:02.0920Z</time>
      </trkpt>
      <trkpt lat="45.61847" lon="3.98307">
        <ele>837.73176</ele>
        <time>2019-10-05T13:38:17.0920Z</time>
      </trkpt>
      <trkpt lat="45.61865" lon="3.98304">
        <ele>836.643433</ele>
        <time>2019-10-05T13:38:28.0870Z</time>
      </trkpt>
      <trkpt lat="45.61883" lon="3.98307">
        <ele>836.726239</ele>
        <time>2019-10-05T13:38:42.0620Z</time>
      </trkpt>
      <trkpt lat="45.61895" lon="3.98327">
        <ele>834.52475</ele>
        <time>2019-10-05T13:38:56.0920Z</time>
      </trkpt>
      <trkpt lat="45.61913" lon="3.98334">
        <ele>831.029541</ele>
        <time>2019-10-05T13:39:10.0900Z</time>
      </trkpt>
      <trkpt lat="45.61931" lon="3.98335">
        <ele>829.393226</ele>
        <time>2019-10-05T13:39:22.0940Z</time>
      </trkpt>
      <trkpt lat="45.61949" lon="3.98342">
        <ele>827.087815</ele>
        <time>2019-10-05T13:39:35.0570Z</time>
      </trkpt>
      <trkpt lat="45.61966" lon="3.98351">
        <ele>824.773482</ele>
        <time>2019-10-05T13:39:48.0600Z</time>
      </trkpt>
      <trkpt lat="45.61965" lon="3.98378">
        <ele>821.674897</ele>
        <time>2019-10-05T13:40:09.0900Z</time>
      </trkpt>
      <trkpt lat="45.61951" lon="3.98397">
        <ele>821.008545</ele>
        <time>2019-10-05T13:40:21.0980Z</time>
      </trkpt>
      <trkpt lat="45.61941" lon="3.98419">
        <ele>819.908652</ele>
        <time>2019-10-05T13:40:35.0860Z</time>
      </trkpt>
      <trkpt lat="45.61933" lon="3.98443">
        <ele>818.798207</ele>
        <time>2019-10-05T13:40:48.0790Z</time>
      </trkpt>
      <trkpt lat="45.61925" lon="3.98468">
        <ele>818.405427</ele>
        <time>2019-10-05T13:41:01.0900Z</time>
      </trkpt>
      <trkpt lat="45.61921" lon="3.98494">
        <ele>818.443925</ele>
        <time>2019-10-05T13:41:15.0890Z</time>
      </trkpt>
      <trkpt lat="45.61921" lon="3.9852">
        <ele>818.65948</ele>
        <time>2019-10-05T13:41:28.0790Z</time>
      </trkpt>
      <trkpt lat="45.6193" lon="3.98544">
        <ele>819.39035</ele>
        <time>2019-10-05T13:41:41.0860Z</time>
      </trkpt>
      <trkpt lat="45.61934" lon="3.98569">
        <ele>819.526961</ele>
        <time>2019-10-05T13:41:57.0920Z</time>
      </trkpt>
      <trkpt lat="45.6193" lon="3.98596">
        <ele>819.135916</ele>
        <time>2019-10-05T13:42:09.0670Z</time>
      </trkpt>
      <trkpt lat="45.61934" lon="3.98621">
        <ele>815.442812</ele>
        <time>2019-10-05T13:42:24.0820Z</time>
      </trkpt>
      <trkpt lat="45.61953" lon="3.98627">
        <ele>812.363852</ele>
        <time>2019-10-05T13:42:41.0900Z</time>
      </trkpt>
      <trkpt lat="45.61954" lon="3.98655">
        <ele>809.867138</ele>
        <time>2019-10-05T13:42:55.0890Z</time>
      </trkpt>
      <trkpt lat="45.61943" lon="3.98676">
        <ele>811.172276</ele>
        <time>2019-10-05T13:43:09.0840Z</time>
      </trkpt>
      <trkpt lat="45.61947" lon="3.98702">
        <ele>808.486817</ele>
        <time>2019-10-05T13:43:28.0820Z</time>
      </trkpt>
      <trkpt lat="45.61956" lon="3.98725">
        <ele>806.517575</ele>
        <time>2019-10-05T13:43:42.0950Z</time>
      </trkpt>
      <trkpt lat="45.61962" lon="3.9875">
        <ele>804.199966</ele>
        <time>2019-10-05T13:43:58.0940Z</time>
      </trkpt>
      <trkpt lat="45.6196" lon="3.98777">
        <ele>801.119417</ele>
        <time>2019-10-05T13:44:12.0890Z</time>
      </trkpt>
      <trkpt lat="45.61954" lon="3.98802">
        <ele>797.352052</ele>
        <time>2019-10-05T13:44:25.0870Z</time>
      </trkpt>
      <trkpt lat="45.61947" lon="3.98827">
        <ele>794.795643</ele>
        <time>2019-10-05T13:44:38.0790Z</time>
      </trkpt>
      <trkpt lat="45.61938" lon="3.98851">
        <ele>792.40984</ele>
        <time>2019-10-05T13:44:51.0810Z</time>
      </trkpt>
      <trkpt lat="45.61927" lon="3.98873">
        <ele>790.040107</ele>
        <time>2019-10-05T13:45:04.0860Z</time>
      </trkpt>
      <trkpt lat="45.61919" lon="3.98898">
        <ele>788.364839</ele>
        <time>2019-10-05T13:45:17.0890Z</time>
      </trkpt>
      <trkpt lat="45.61913" lon="3.98924">
        <ele>787.02241</ele>
        <time>2019-10-05T13:45:30.0840Z</time>
      </trkpt>
      <trkpt lat="45.61911" lon="3.98951">
        <ele>785.499518</ele>
        <time>2019-10-05T13:45:44.0920Z</time>
      </trkpt>
      <trkpt lat="45.61911" lon="3.98978">
        <ele>782.628487</ele>
        <time>2019-10-05T13:45:57.0930Z</time>
      </trkpt>
      <trkpt lat="45.61914" lon="3.99005">
        <ele>779.324077</ele>
        <time>2019-10-05T13:46:10.0940Z</time>
      </trkpt>
      <trkpt lat="45.61913" lon="3.99033">
        <ele>777.16937</ele>
        <time>2019-10-05T13:46:23.0890Z</time>
      </trkpt>
      <trkpt lat="45.61912" lon="3.9906">
        <ele>772.867042</ele>
        <time>2019-10-05T13:46:37.0870Z</time>
      </trkpt>
      <trkpt lat="45.61912" lon="3.99087">
        <ele>771.882528</ele>
        <time>2019-10-05T13:46:50.0750Z</time>
      </trkpt>
      <trkpt lat="45.61913" lon="3.99114">
        <ele>770.298657</ele>
        <time>2019-10-05T13:47:04.0880Z</time>
      </trkpt>
      <trkpt lat="45.61922" lon="3.99136">
        <ele>768.32111</ele>
        <time>2019-10-05T13:47:17.0830Z</time>
      </trkpt>
      <trkpt lat="45.61924" lon="3.99163">
        <ele>766.192612</ele>
        <time>2019-10-05T13:47:30.0840Z</time>
      </trkpt>
      <trkpt lat="45.61918" lon="3.99188">
        <ele>764.565414</ele>
        <time>2019-10-05T13:47:44.0840Z</time>
      </trkpt>
      <trkpt lat="45.61915" lon="3.99214">
        <ele>762.382618</ele>
        <time>2019-10-05T13:47:57.0900Z</time>
      </trkpt>
      <trkpt lat="45.61915" lon="3.9924">
        <ele>761.790213</ele>
        <time>2019-10-05T13:48:10.0590Z</time>
      </trkpt>
      <trkpt lat="45.61913" lon="3.99267">
        <ele>761.35402</ele>
        <time>2019-10-05T13:48:23.0680Z</time>
      </trkpt>
      <trkpt lat="45.61913" lon="3.99294">
        <ele>760.130332</ele>
        <time>2019-10-05T13:48:37.0860Z</time>
      </trkpt>
      <trkpt lat="45.61917" lon="3.9932">
        <ele>756.283657</ele>
        <time>2019-10-05T13:48:53.0900Z</time>
      </trkpt>
      <trkpt lat="45.61915" lon="3.99346">
        <ele>753.63549</ele>
        <time>2019-10-05T13:49:06.0910Z</time>
      </trkpt>
      <trkpt lat="45.61919" lon="3.99372">
        <ele>751.686896</ele>
        <time>2019-10-05T13:49:19.0680Z</time>
      </trkpt>
      <trkpt lat="45.61925" lon="3.99397">
        <ele>750.77775</ele>
        <time>2019-10-05T13:49:32.0820Z</time>
      </trkpt>
      <trkpt lat="45.61927" lon="3.99423">
        <ele>748.395598</ele>
        <time>2019-10-05T13:49:46.0830Z</time>
      </trkpt>
      <trkpt lat="45.61924" lon="3.99449">
        <ele>745.798776</ele>
        <time>2019-10-05T13:50:00.3750Z</time>
      </trkpt>
      <trkpt lat="45.61919" lon="3.99475">
        <ele>736.047055</ele>
        <time>2019-10-05T13:50:14.0480Z</time>
      </trkpt>
      <trkpt lat="45.61906" lon="3.99496">
        <ele>732.755879</ele>
        <time>2019-10-05T13:50:28.1620Z</time>
      </trkpt>
      <trkpt lat="45.61901" lon="3.99522">
        <ele>730.167616</ele>
        <time>2019-10-05T13:50:42.0750Z</time>
      </trkpt>
      <trkpt lat="45.61899" lon="3.99547">
        <ele>728.031154</ele>
        <time>2019-10-05T13:50:56.0780Z</time>
      </trkpt>
      <trkpt lat="45.61897" lon="3.99573">
        <ele>724.966101</ele>
        <time>2019-10-05T13:51:10.0630Z</time>
      </trkpt>
      <trkpt lat="45.61895" lon="3.996">
        <ele>722.981407</ele>
        <time>2019-10-05T13:51:24.0590Z</time>
      </trkpt>
      <trkpt lat="45.61895" lon="3.99627">
        <ele>721.656038</ele>
        <time>2019-10-05T13:51:39.2250Z</time>
      </trkpt>
      <trkpt lat="45.61897" lon="3.99653">
        <ele>719.990177</ele>
        <time>2019-10-05T13:51:55.1020Z</time>
      </trkpt>
      <trkpt lat="45.61892" lon="3.99679">
        <ele>718.049905</ele>
        <time>2019-10-05T13:52:10.1390Z</time>
      </trkpt>
      <trkpt lat="45.61876" lon="3.99689">
        <ele>717.111695</ele>
        <time>2019-10-05T13:52:30.1150Z</time>
      </trkpt>
      <trkpt lat="45.61882" lon="3.99664">
        <ele>714.755147</ele>
        <time>2019-10-05T13:56:34.2430Z</time>
      </trkpt>
      <trkpt lat="45.61899" lon="3.99659">
        <ele>714.937809</ele>
        <time>2019-10-05T13:58:32.0970Z</time>
      </trkpt>
      <trkpt lat="45.61884" lon="3.99673">
        <ele>714.598782</ele>
        <time>2019-10-05T13:58:45.0720Z</time>
      </trkpt>
      <trkpt lat="45.61878" lon="3.99699">
        <ele>710.076534</ele>
        <time>2019-10-05T14:05:18.1150Z</time>
      </trkpt>
      <trkpt lat="45.61863" lon="3.99716">
        <ele>707.996151</ele>
        <time>2019-10-05T14:05:34.0510Z</time>
      </trkpt>
      <trkpt lat="45.61848" lon="3.99731">
        <ele>707.009592</ele>
        <time>2019-10-05T14:05:49.0920Z</time>
      </trkpt>
      <trkpt lat="45.61831" lon="3.99723">
        <ele>706.614606</ele>
        <time>2019-10-05T14:06:13.0900Z</time>
      </trkpt>
      <trkpt lat="45.61836" lon="3.99698">
        <ele>710.454716</ele>
        <time>2019-10-05T14:06:34.0810Z</time>
      </trkpt>
      <trkpt lat="45.61836" lon="3.99671">
        <ele>713.221862</ele>
        <time>2019-10-05T14:06:52.0960Z</time>
      </trkpt>
      <trkpt lat="45.61845" lon="3.99648">
        <ele>714.563402</ele>
        <time>2019-10-05T14:07:09.0990Z</time>
      </trkpt>
      <trkpt lat="45.61855" lon="3.99625">
        <ele>716.973367</ele>
        <time>2019-10-05T14:07:25.0570Z</time>
      </trkpt>
      <trkpt lat="45.61861" lon="3.996">
        <ele>717.443921</ele>
        <time>2019-10-05T14:07:40.1120Z</time>
      </trkpt>
      <trkpt lat="45.61859" lon="3.99575">
        <ele>720.238977</ele>
        <time>2019-10-05T14:07:57.1000Z</time>
      </trkpt>
      <trkpt lat="45.61856" lon="3.99549">
        <ele>722.637447</ele>
        <time>2019-10-05T14:08:14.0950Z</time>
      </trkpt>
      <trkpt lat="45.61852" lon="3.99523">
        <ele>724.35825</ele>
        <time>2019-10-05T14:08:30.0920Z</time>
      </trkpt>
      <trkpt lat="45.61841" lon="3.99502">
        <ele>727.51833</ele>
        <time>2019-10-05T14:08:46.0900Z</time>
      </trkpt>
      <trkpt lat="45.61824" lon="3.99491">
        <ele>728.003017</ele>
        <time>2019-10-05T14:09:01.0890Z</time>
      </trkpt>
      <trkpt lat="45.61809" lon="3.99477">
        <ele>730.331019</ele>
        <time>2019-10-05T14:09:17.1020Z</time>
      </trkpt>
      <trkpt lat="45.61796" lon="3.99456">
        <ele>731.532803</ele>
        <time>2019-10-05T14:09:31.0820Z</time>
      </trkpt>
      <trkpt lat="45.61785" lon="3.99434">
        <ele>731.923717</ele>
        <time>2019-10-05T14:09:46.0820Z</time>
      </trkpt>
      <trkpt lat="45.6177" lon="3.99418">
        <ele>731.454136</ele>
        <time>2019-10-05T14:10:01.0760Z</time>
      </trkpt>
      <trkpt lat="45.61752" lon="3.9941">
        <ele>731.744709</ele>
        <time>2019-10-05T14:10:14.0840Z</time>
      </trkpt>
      <trkpt lat="45.61734" lon="3.9941">
        <ele>731.136469</ele>
        <time>2019-10-05T14:10:27.0890Z</time>
      </trkpt>
      <trkpt lat="45.61718" lon="3.99425">
        <ele>730.215678</ele>
        <time>2019-10-05T14:10:40.0880Z</time>
      </trkpt>
      <trkpt lat="45.61702" lon="3.99439">
        <ele>730.995553</ele>
        <time>2019-10-05T14:10:53.0910Z</time>
      </trkpt>
      <trkpt lat="45.61683" lon="3.99444">
        <ele>732.50797</ele>
        <time>2019-10-05T14:11:08.0930Z</time>
      </trkpt>
      <trkpt lat="45.61665" lon="3.99439">
        <ele>733.554032</ele>
        <time>2019-10-05T14:11:22.0980Z</time>
      </trkpt>
      <trkpt lat="45.61648" lon="3.99431">
        <ele>734.244195</ele>
        <time>2019-10-05T14:11:36.1110Z</time>
      </trkpt>
      <trkpt lat="45.61632" lon="3.99417">
        <ele>735.967524</ele>
        <time>2019-10-05T14:11:51.0850Z</time>
      </trkpt>
      <trkpt lat="45.61616" lon="3.99404">
        <ele>738.396704</ele>
        <time>2019-10-05T14:12:07.0840Z</time>
      </trkpt>
      <trkpt lat="45.61601" lon="3.99389">
        <ele>740.394324</ele>
        <time>2019-10-05T14:12:22.1010Z</time>
      </trkpt>
      <trkpt lat="45.61585" lon="3.99376">
        <ele>743.250131</ele>
        <time>2019-10-05T14:12:39.0940Z</time>
      </trkpt>
      <trkpt lat="45.61566" lon="3.9938">
        <ele>742.26803</ele>
        <time>2019-10-05T14:12:54.0870Z</time>
      </trkpt>
      <trkpt lat="45.61549" lon="3.99387">
        <ele>741.614914</ele>
        <time>2019-10-05T14:13:08.0910Z</time>
      </trkpt>
      <trkpt lat="45.6153" lon="3.99393">
        <ele>742.00238</ele>
        <time>2019-10-05T14:13:23.1010Z</time>
      </trkpt>
      <trkpt lat="45.61511" lon="3.99392">
        <ele>739.986054</ele>
        <time>2019-10-05T14:13:38.0880Z</time>
      </trkpt>
      <trkpt lat="45.61494" lon="3.99382">
        <ele>740.364888</ele>
        <time>2019-10-05T14:13:51.0850Z</time>
      </trkpt>
      <trkpt lat="45.61476" lon="3.99373">
        <ele>739.200593</ele>
        <time>2019-10-05T14:14:07.0740Z</time>
      </trkpt>
      <trkpt lat="45.61458" lon="3.99363">
        <ele>738.989475</ele>
        <time>2019-10-05T14:14:19.0860Z</time>
      </trkpt>
      <trkpt lat="45.61439" lon="3.99357">
        <ele>739.023719</ele>
        <time>2019-10-05T14:14:32.0870Z</time>
      </trkpt>
      <trkpt lat="45.6142" lon="3.99354">
        <ele>736.9525</ele>
        <time>2019-10-05T14:14:49.0870Z</time>
      </trkpt>
      <trkpt lat="45.61402" lon="3.99363">
        <ele>735.786295</ele>
        <time>2019-10-05T14:15:03.0880Z</time>
      </trkpt>
      <trkpt lat="45.61386" lon="3.9935">
        <ele>731.83737</ele>
        <time>2019-10-05T14:15:21.0760Z</time>
      </trkpt>
      <trkpt lat="45.61375" lon="3.99327">
        <ele>730.262292</ele>
        <time>2019-10-05T14:15:33.0860Z</time>
      </trkpt>
      <trkpt lat="45.61357" lon="3.9933">
        <ele>728.323608</ele>
        <time>2019-10-05T14:15:47.0870Z</time>
      </trkpt>
      <trkpt lat="45.61341" lon="3.99346">
        <ele>728.864862</ele>
        <time>2019-10-05T14:15:58.0870Z</time>
      </trkpt>
      <trkpt lat="45.6133" lon="3.99366">
        <ele>728.280276</ele>
        <time>2019-10-05T14:16:11.0830Z</time>
      </trkpt>
      <trkpt lat="45.6132" lon="3.99389">
        <ele>728.331889</ele>
        <time>2019-10-05T14:16:28.0860Z</time>
      </trkpt>
      <trkpt lat="45.61311" lon="3.99412">
        <ele>730.976216</ele>
        <time>2019-10-05T14:16:40.0730Z</time>
      </trkpt>
      <trkpt lat="45.61305" lon="3.99437">
        <ele>734.788381</ele>
        <time>2019-10-05T14:16:56.0860Z</time>
      </trkpt>
      <trkpt lat="45.61301" lon="3.99462">
        <ele>739.831714</ele>
        <time>2019-10-05T14:17:19.0800Z</time>
      </trkpt>
      <trkpt lat="45.61295" lon="3.99487">
        <ele>743.7048</ele>
        <time>2019-10-05T14:17:37.0820Z</time>
      </trkpt>
      <trkpt lat="45.61296" lon="3.99514">
        <ele>746.654662</ele>
        <time>2019-10-05T14:17:52.1010Z</time>
      </trkpt>
      <trkpt lat="45.61305" lon="3.99537">
        <ele>750.195085</ele>
        <time>2019-10-05T14:18:13.0880Z</time>
      </trkpt>
      <trkpt lat="45.61314" lon="3.99561">
        <ele>751.153238</ele>
        <time>2019-10-05T14:18:24.0860Z</time>
      </trkpt>
      <trkpt lat="45.61327" lon="3.99579">
        <ele>751.941678</ele>
        <time>2019-10-05T14:18:36.0900Z</time>
      </trkpt>
      <trkpt lat="45.61337" lon="3.99601">
        <ele>754.118381</ele>
        <time>2019-10-05T14:18:51.0890Z</time>
      </trkpt>
      <trkpt lat="45.6134" lon="3.99627">
        <ele>754.883477</ele>
        <time>2019-10-05T14:19:04.0920Z</time>
      </trkpt>
      <trkpt lat="45.61338" lon="3.99654">
        <ele>757.268201</ele>
        <time>2019-10-05T14:19:19.0880Z</time>
      </trkpt>
      <trkpt lat="45.61343" lon="3.99679">
        <ele>761.029966</ele>
        <time>2019-10-05T14:19:36.1150Z</time>
      </trkpt>
      <trkpt lat="45.61339" lon="3.99704">
        <ele>763.952907</ele>
        <time>2019-10-05T14:19:55.0880Z</time>
      </trkpt>
      <trkpt lat="45.61331" lon="3.99728">
        <ele>767.158947</ele>
        <time>2019-10-05T14:20:11.0800Z</time>
      </trkpt>
      <trkpt lat="45.61323" lon="3.99752">
        <ele>770.681954</ele>
        <time>2019-10-05T14:20:30.0860Z</time>
      </trkpt>
      <trkpt lat="45.61312" lon="3.99773">
        <ele>770.524077</ele>
        <time>2019-10-05T14:20:42.0920Z</time>
      </trkpt>
      <trkpt lat="45.61299" lon="3.99791">
        <ele>771.557484</ele>
        <time>2019-10-05T14:20:54.0880Z</time>
      </trkpt>
      <trkpt lat="45.61287" lon="3.99811">
        <ele>773.606907</ele>
        <time>2019-10-05T14:21:09.0900Z</time>
      </trkpt>
      <trkpt lat="45.61273" lon="3.99828">
        <ele>776.185442</ele>
        <time>2019-10-05T14:21:24.0920Z</time>
      </trkpt>
      <trkpt lat="45.61255" lon="3.99834">
        <ele>776.754056</ele>
        <time>2019-10-05T14:21:40.0990Z</time>
      </trkpt>
      <trkpt lat="45.61252" lon="3.99861">
        <ele>773.981619</ele>
        <time>2019-10-05T14:21:56.0900Z</time>
      </trkpt>
      <trkpt lat="45.61243" lon="3.99884">
        <ele>772.880834</ele>
        <time>2019-10-05T14:22:11.0850Z</time>
      </trkpt>
      <trkpt lat="45.61245" lon="3.9991">
        <ele>768.931208</ele>
        <time>2019-10-05T14:22:27.0850Z</time>
      </trkpt>
      <trkpt lat="45.6125" lon="3.99935">
        <ele>766.558844</ele>
        <time>2019-10-05T14:22:39.0780Z</time>
      </trkpt>
      <trkpt lat="45.61247" lon="3.99962">
        <ele>762.874329</ele>
        <time>2019-10-05T14:22:56.0690Z</time>
      </trkpt>
      <trkpt lat="45.61239" lon="3.99986">
        <ele>760.865719</ele>
        <time>2019-10-05T14:23:07.0820Z</time>
      </trkpt>
      <trkpt lat="45.6123" lon="4.00009">
        <ele>757.710062</ele>
        <time>2019-10-05T14:23:22.0920Z</time>
      </trkpt>
      <trkpt lat="45.61224" lon="4.00035">
        <ele>752.486542</ele>
        <time>2019-10-05T14:23:38.0810Z</time>
      </trkpt>
      <trkpt lat="45.61206" lon="4.00046">
        <ele>748.153216</ele>
        <time>2019-10-05T14:23:53.0710Z</time>
      </trkpt>
      <trkpt lat="45.61188" lon="4.00055">
        <ele>744.630214</ele>
        <time>2019-10-05T14:24:03.0880Z</time>
      </trkpt>
      <trkpt lat="45.61173" lon="4.00069">
        <ele>740.825392</ele>
        <time>2019-10-05T14:24:15.0790Z</time>
      </trkpt>
      <trkpt lat="45.61164" lon="4.00093">
        <ele>737.057819</ele>
        <time>2019-10-05T14:24:25.0800Z</time>
      </trkpt>
      <trkpt lat="45.6118" lon="4.00108">
        <ele>734.671445</ele>
        <time>2019-10-05T14:24:35.0870Z</time>
      </trkpt>
      <trkpt lat="45.61196" lon="4.00127">
        <ele>730.361347</ele>
        <time>2019-10-05T14:24:49.0950Z</time>
      </trkpt>
      <trkpt lat="45.61213" lon="4.00137">
        <ele>727.363798</ele>
        <time>2019-10-05T14:25:03.0570Z</time>
      </trkpt>
      <trkpt lat="45.61233" lon="4.00139">
        <ele>725.006255</ele>
        <time>2019-10-05T14:25:14.0780Z</time>
      </trkpt>
      <trkpt lat="45.61251" lon="4.00143">
        <ele>722.367627</ele>
        <time>2019-10-05T14:25:25.0880Z</time>
      </trkpt>
      <trkpt lat="45.61269" lon="4.0014">
        <ele>720.456439</ele>
        <time>2019-10-05T14:25:36.0810Z</time>
      </trkpt>
      <trkpt lat="45.61288" lon="4.00136">
        <ele>716.676979</ele>
        <time>2019-10-05T14:25:50.0860Z</time>
      </trkpt>
      <trkpt lat="45.61295" lon="4.00159">
        <ele>713.144926</ele>
        <time>2019-10-05T14:26:06.0760Z</time>
      </trkpt>
      <trkpt lat="45.61288" lon="4.00185">
        <ele>711.209023</ele>
        <time>2019-10-05T14:26:20.0870Z</time>
      </trkpt>
      <trkpt lat="45.61277" lon="4.00207">
        <ele>709.876945</ele>
        <time>2019-10-05T14:26:35.0860Z</time>
      </trkpt>
      <trkpt lat="45.61265" lon="4.00227">
        <ele>709.023004</ele>
        <time>2019-10-05T14:26:50.0870Z</time>
      </trkpt>
      <trkpt lat="45.61251" lon="4.00245">
        <ele>707.951697</ele>
        <time>2019-10-05T14:27:04.0890Z</time>
      </trkpt>
      <trkpt lat="45.61238" lon="4.00263">
        <ele>706.158499</ele>
        <time>2019-10-05T14:27:18.0660Z</time>
      </trkpt>
      <trkpt lat="45.61226" lon="4.00282">
        <ele>704.776962</ele>
        <time>2019-10-05T14:27:30.0950Z</time>
      </trkpt>
      <trkpt lat="45.61226" lon="4.00309">
        <ele>703.6946</ele>
        <time>2019-10-05T14:27:42.1080Z</time>
      </trkpt>
      <trkpt lat="45.61245" lon="4.00316">
        <ele>700.513111</ele>
        <time>2019-10-05T14:27:57.0990Z</time>
      </trkpt>
      <trkpt lat="45.61263" lon="4.0032">
        <ele>699.789064</ele>
        <time>2019-10-05T14:28:10.0730Z</time>
      </trkpt>
      <trkpt lat="45.61278" lon="4.00336">
        <ele>699.708721</ele>
        <time>2019-10-05T14:28:21.0920Z</time>
      </trkpt>
      <trkpt lat="45.6128" lon="4.00362">
        <ele>698.743078</ele>
        <time>2019-10-05T14:28:33.0920Z</time>
      </trkpt>
      <trkpt lat="45.61287" lon="4.00386">
        <ele>697.547321</ele>
        <time>2019-10-05T14:28:46.0910Z</time>
      </trkpt>
      <trkpt lat="45.61297" lon="4.00409">
        <ele>696.600168</ele>
        <time>2019-10-05T14:29:00.1100Z</time>
      </trkpt>
      <trkpt lat="45.61309" lon="4.0043">
        <ele>694.125013</ele>
        <time>2019-10-05T14:29:22.0990Z</time>
      </trkpt>
      <trkpt lat="45.61292" lon="4.00441">
        <ele>691.886338</ele>
        <time>2019-10-05T14:29:37.0860Z</time>
      </trkpt>
      <trkpt lat="45.61274" lon="4.00436">
        <ele>691.369547</ele>
        <time>2019-10-05T14:29:54.0860Z</time>
      </trkpt>
      <trkpt lat="45.61258" lon="4.00453">
        <ele>688.635321</ele>
        <time>2019-10-05T14:30:08.0830Z</time>
      </trkpt>
      <trkpt lat="45.61248" lon="4.00474">
        <ele>687.21447</ele>
        <time>2019-10-05T14:30:19.0840Z</time>
      </trkpt>
      <trkpt lat="45.61238" lon="4.00496">
        <ele>684.261901</ele>
        <time>2019-10-05T14:30:32.0990Z</time>
      </trkpt>
      <trkpt lat="45.61225" lon="4.00514">
        <ele>683.473004</ele>
        <time>2019-10-05T14:30:44.0970Z</time>
      </trkpt>
      <trkpt lat="45.61221" lon="4.0054">
        <ele>682.011749</ele>
        <time>2019-10-05T14:30:59.0840Z</time>
      </trkpt>
      <trkpt lat="45.61209" lon="4.0056">
        <ele>674.099147</ele>
        <time>2019-10-05T14:31:25.0870Z</time>
      </trkpt>
      <trkpt lat="45.61192" lon="4.00551">
        <ele>670.455463</ele>
        <time>2019-10-05T14:31:37.0860Z</time>
      </trkpt>
      <trkpt lat="45.61176" lon="4.00536">
        <ele>668.02315</ele>
        <time>2019-10-05T14:31:49.0870Z</time>
      </trkpt>
      <trkpt lat="45.61164" lon="4.00514">
        <ele>665.904349</ele>
        <time>2019-10-05T14:32:03.0860Z</time>
      </trkpt>
      <trkpt lat="45.61152" lon="4.00495">
        <ele>663.248154</ele>
        <time>2019-10-05T14:32:17.0810Z</time>
      </trkpt>
      <trkpt lat="45.61134" lon="4.00485">
        <ele>662.201617</ele>
        <time>2019-10-05T14:32:32.0840Z</time>
      </trkpt>
      <trkpt lat="45.61123" lon="4.00505">
        <ele>661.439828</ele>
        <time>2019-10-05T14:32:46.0840Z</time>
      </trkpt>
      <trkpt lat="45.61119" lon="4.00531">
        <ele>660.830088</ele>
        <time>2019-10-05T14:33:02.0910Z</time>
      </trkpt>
      <trkpt lat="45.61106" lon="4.00552">
        <ele>660.815386</ele>
        <time>2019-10-05T14:33:14.0840Z</time>
      </trkpt>
      <trkpt lat="45.61091" lon="4.00568">
        <ele>660.8333</ele>
        <time>2019-10-05T14:33:21.0820Z</time>
      </trkpt>
      <trkpt lat="45.61078" lon="4.00589">
        <ele>658.919871</ele>
        <time>2019-10-05T14:33:35.0690Z</time>
      </trkpt>
      <trkpt lat="45.61062" lon="4.00604">
        <ele>658.570766</ele>
        <time>2019-10-05T14:33:49.0850Z</time>
      </trkpt>
      <trkpt lat="45.61056" lon="4.0063">
        <ele>657.106843</ele>
        <time>2019-10-05T14:34:01.2420Z</time>
      </trkpt>
      <trkpt lat="45.61051" lon="4.00657">
        <ele>655.820252</ele>
        <time>2019-10-05T14:34:12.0550Z</time>
      </trkpt>
      <trkpt lat="45.61039" lon="4.00676">
        <ele>652.251324</ele>
        <time>2019-10-05T14:34:28.0850Z</time>
      </trkpt>
      <trkpt lat="45.61021" lon="4.00687">
        <ele>646.714134</ele>
        <time>2019-10-05T14:34:47.0820Z</time>
      </trkpt>
      <trkpt lat="45.61009" lon="4.00709">
        <ele>643.46959</ele>
        <time>2019-10-05T14:34:58.0950Z</time>
      </trkpt>
      <trkpt lat="45.60996" lon="4.00728">
        <ele>639.175071</ele>
        <time>2019-10-05T14:35:24.0840Z</time>
      </trkpt>
      <trkpt lat="45.60979" lon="4.00744">
        <ele>634.408486</ele>
        <time>2019-10-05T14:35:39.0880Z</time>
      </trkpt>
      <trkpt lat="45.60963" lon="4.00756">
        <ele>631.214607</ele>
        <time>2019-10-05T14:36:01.0920Z</time>
      </trkpt>
      <trkpt lat="45.60967" lon="4.00783">
        <ele>627.480857</ele>
        <time>2019-10-05T14:36:34.0840Z</time>
      </trkpt>
      <trkpt lat="45.60972" lon="4.00809">
        <ele>627.286537</ele>
        <time>2019-10-05T14:36:47.0840Z</time>
      </trkpt>
      <trkpt lat="45.60975" lon="4.00834">
        <ele>627.496547</ele>
        <time>2019-10-05T14:37:01.0930Z</time>
      </trkpt>
      <trkpt lat="45.60976" lon="4.00861">
        <ele>628.204317</ele>
        <time>2019-10-05T14:37:11.0970Z</time>
      </trkpt>
      <trkpt lat="45.60981" lon="4.00887">
        <ele>628.256688</ele>
        <time>2019-10-05T14:37:25.0860Z</time>
      </trkpt>
      <trkpt lat="45.6099" lon="4.0091">
        <ele>629.790861</ele>
        <time>2019-10-05T14:37:43.0870Z</time>
      </trkpt>
      <trkpt lat="45.60992" lon="4.00936">
        <ele>629.936083</ele>
        <time>2019-10-05T14:38:01.0820Z</time>
      </trkpt>
      <trkpt lat="45.60983" lon="4.00961">
        <ele>628.165076</ele>
        <time>2019-10-05T14:38:18.0870Z</time>
      </trkpt>
      <trkpt lat="45.60983" lon="4.00987">
        <ele>628.153447</ele>
        <time>2019-10-05T14:38:30.0820Z</time>
      </trkpt>
      <trkpt lat="45.60986" lon="4.01013">
        <ele>628.960357</ele>
        <time>2019-10-05T14:38:42.0890Z</time>
      </trkpt>
      <trkpt lat="45.60987" lon="4.01039">
        <ele>629.500444</ele>
        <time>2019-10-05T14:38:54.0890Z</time>
      </trkpt>
      <trkpt lat="45.60988" lon="4.01065">
        <ele>628.803393</ele>
        <time>2019-10-05T14:39:05.0710Z</time>
      </trkpt>
      <trkpt lat="45.60976" lon="4.01085">
        <ele>628.459361</ele>
        <time>2019-10-05T14:39:21.0850Z</time>
      </trkpt>
      <trkpt lat="45.60967" lon="4.01108">
        <ele>625.762562</ele>
        <time>2019-10-05T14:39:40.0850Z</time>
      </trkpt>
      <trkpt lat="45.60954" lon="4.01128">
        <ele>624.056736</ele>
        <time>2019-10-05T14:39:56.0840Z</time>
      </trkpt>
      <trkpt lat="45.60938" lon="4.01147">
        <ele>623.398236</ele>
        <time>2019-10-05T14:40:11.0920Z</time>
      </trkpt>
      <trkpt lat="45.60923" lon="4.01162">
        <ele>622.954235</ele>
        <time>2019-10-05T14:40:20.0860Z</time>
      </trkpt>
      <trkpt lat="45.60906" lon="4.01173">
        <ele>622.934952</ele>
        <time>2019-10-05T14:40:34.0920Z</time>
      </trkpt>
      <trkpt lat="45.60891" lon="4.01189">
        <ele>622.998304</ele>
        <time>2019-10-05T14:40:48.0860Z</time>
      </trkpt>
      <trkpt lat="45.60876" lon="4.01205">
        <ele>622.97103</ele>
        <time>2019-10-05T14:40:59.0890Z</time>
      </trkpt>
      <trkpt lat="45.60864" lon="4.01225">
        <ele>620.679055</ele>
        <time>2019-10-05T14:41:15.0860Z</time>
      </trkpt>
      <trkpt lat="45.60852" lon="4.01245">
        <ele>619.208925</ele>
        <time>2019-10-05T14:41:26.0860Z</time>
      </trkpt>
      <trkpt lat="45.60838" lon="4.01264">
        <ele>617.915775</ele>
        <time>2019-10-05T14:41:37.0840Z</time>
      </trkpt>
      <trkpt lat="45.60832" lon="4.01288">
        <ele>616.49381</ele>
        <time>2019-10-05T14:41:48.0870Z</time>
      </trkpt>
      <trkpt lat="45.60842" lon="4.01311">
        <ele>616.165934</ele>
        <time>2019-10-05T14:41:59.0820Z</time>
      </trkpt>
      <trkpt lat="45.6085" lon="4.01335">
        <ele>613.369574</ele>
        <time>2019-10-05T14:42:10.0790Z</time>
      </trkpt>
      <trkpt lat="45.60849" lon="4.01361">
        <ele>611.791585</ele>
        <time>2019-10-05T14:42:23.0850Z</time>
      </trkpt>
      <trkpt lat="45.60832" lon="4.01372">
        <ele>607.08147</ele>
        <time>2019-10-05T14:42:40.0800Z</time>
      </trkpt>
      <trkpt lat="45.60813" lon="4.0137">
        <ele>603.07432</ele>
        <time>2019-10-05T14:42:52.0880Z</time>
      </trkpt>
      <trkpt lat="45.60794" lon="4.01367">
        <ele>601.471309</ele>
        <time>2019-10-05T14:43:13.0860Z</time>
      </trkpt>
      <trkpt lat="45.60775" lon="4.01368">
        <ele>603.400884</ele>
        <time>2019-10-05T14:43:28.0810Z</time>
      </trkpt>
      <trkpt lat="45.60758" lon="4.01376">
        <ele>604.373865</ele>
        <time>2019-10-05T14:43:38.0880Z</time>
      </trkpt>
      <trkpt lat="45.6074" lon="4.01385">
        <ele>607.261076</ele>
        <time>2019-10-05T14:43:49.0900Z</time>
      </trkpt>
      <trkpt lat="45.60725" lon="4.01402">
        <ele>609.346025</ele>
        <time>2019-10-05T14:44:03.0890Z</time>
      </trkpt>
      <trkpt lat="45.60712" lon="4.01422">
        <ele>609.027887</ele>
        <time>2019-10-05T14:44:18.0710Z</time>
      </trkpt>
      <trkpt lat="45.60697" lon="4.01435">
        <ele>608.597058</ele>
        <time>2019-10-05T14:44:29.1010Z</time>
      </trkpt>
      <trkpt lat="45.60682" lon="4.01451">
        <ele>609.211627</ele>
        <time>2019-10-05T14:44:49.0840Z</time>
      </trkpt>
      <trkpt lat="45.60666" lon="4.01466">
        <ele>608.904919</ele>
        <time>2019-10-05T14:45:01.1090Z</time>
      </trkpt>
      <trkpt lat="45.6065" lon="4.01478">
        <ele>610.342316</ele>
        <time>2019-10-05T14:45:15.0920Z</time>
      </trkpt>
      <trkpt lat="45.60636" lon="4.01494">
        <ele>611.646304</ele>
        <time>2019-10-05T14:45:28.0660Z</time>
      </trkpt>
      <trkpt lat="45.6063" lon="4.01519">
        <ele>613.129224</ele>
        <time>2019-10-05T14:45:45.0780Z</time>
      </trkpt>
      <trkpt lat="45.60622" lon="4.01544">
        <ele>614.258412</ele>
        <time>2019-10-05T14:45:57.0890Z</time>
      </trkpt>
      <trkpt lat="45.60628" lon="4.0157">
        <ele>614.840288</ele>
        <time>2019-10-05T14:46:09.0860Z</time>
      </trkpt>
      <trkpt lat="45.60639" lon="4.01591">
        <ele>614.591709</ele>
        <time>2019-10-05T14:46:22.0880Z</time>
      </trkpt>
      <trkpt lat="45.60654" lon="4.01607">
        <ele>614.440797</ele>
        <time>2019-10-05T14:46:32.0750Z</time>
      </trkpt>
      <trkpt lat="45.60669" lon="4.01624">
        <ele>615.31949</ele>
        <time>2019-10-05T14:46:44.0940Z</time>
      </trkpt>
      <trkpt lat="45.60678" lon="4.01649">
        <ele>615.84153</ele>
        <time>2019-10-05T14:47:01.1050Z</time>
      </trkpt>
      <trkpt lat="45.60684" lon="4.01673">
        <ele>616.115385</ele>
        <time>2019-10-05T14:47:13.0730Z</time>
      </trkpt>
      <trkpt lat="45.6069" lon="4.01698">
        <ele>615.883674</ele>
        <time>2019-10-05T14:47:25.0870Z</time>
      </trkpt>
      <trkpt lat="45.60696" lon="4.01723">
        <ele>616.105084</ele>
        <time>2019-10-05T14:47:38.0840Z</time>
      </trkpt>
      <trkpt lat="45.60702" lon="4.0175">
        <ele>615.15803</ele>
        <time>2019-10-05T14:47:51.0920Z</time>
      </trkpt>
      <trkpt lat="45.60708" lon="4.01775">
        <ele>613.808293</ele>
        <time>2019-10-05T14:48:04.0970Z</time>
      </trkpt>
      <trkpt lat="45.60712" lon="4.01801">
        <ele>613.320217</ele>
        <time>2019-10-05T14:48:15.0810Z</time>
      </trkpt>
      <trkpt lat="45.60705" lon="4.01825">
        <ele>613.047021</ele>
        <time>2019-10-05T14:48:31.1050Z</time>
      </trkpt>
      <trkpt lat="45.60696" lon="4.01848">
        <ele>613.10966</ele>
        <time>2019-10-05T14:48:43.0820Z</time>
      </trkpt>
      <trkpt lat="45.60684" lon="4.01869">
        <ele>613.05648</ele>
        <time>2019-10-05T14:48:59.0850Z</time>
      </trkpt>
      <trkpt lat="45.60686" lon="4.01894">
        <ele>610.1924</ele>
        <time>2019-10-05T14:49:12.0740Z</time>
      </trkpt>
      <trkpt lat="45.60684" lon="4.01922">
        <ele>608.495785</ele>
        <time>2019-10-05T14:49:25.0880Z</time>
      </trkpt>
      <trkpt lat="45.60684" lon="4.01948">
        <ele>607.52681</ele>
        <time>2019-10-05T14:49:36.0830Z</time>
      </trkpt>
      <trkpt lat="45.60669" lon="4.01963">
        <ele>606.686764</ele>
        <time>2019-10-05T14:49:52.0790Z</time>
      </trkpt>
      <trkpt lat="45.60651" lon="4.01956">
        <ele>609.352247</ele>
        <time>2019-10-05T14:50:09.0640Z</time>
      </trkpt>
      <trkpt lat="45.60632" lon="4.01948">
        <ele>609.107366</ele>
        <time>2019-10-05T14:50:24.0890Z</time>
      </trkpt>
      <trkpt lat="45.60616" lon="4.01935">
        <ele>610.743947</ele>
        <time>2019-10-05T14:50:40.0900Z</time>
      </trkpt>
      <trkpt lat="45.606" lon="4.01922">
        <ele>610.914205</ele>
        <time>2019-10-05T14:50:57.0890Z</time>
      </trkpt>
      <trkpt lat="45.60584" lon="4.01909">
        <ele>611.65777</ele>
        <time>2019-10-05T14:51:11.1090Z</time>
      </trkpt>
      <trkpt lat="45.60568" lon="4.01895">
        <ele>612.036068</ele>
        <time>2019-10-05T14:51:25.0900Z</time>
      </trkpt>
      <trkpt lat="45.60553" lon="4.01879">
        <ele>611.336295</ele>
        <time>2019-10-05T14:51:39.0990Z</time>
      </trkpt>
      <trkpt lat="45.60538" lon="4.0186">
        <ele>611.178348</ele>
        <time>2019-10-05T14:51:52.0730Z</time>
      </trkpt>
      <trkpt lat="45.60524" lon="4.01841">
        <ele>610.836052</ele>
        <time>2019-10-05T14:52:04.0940Z</time>
      </trkpt>
      <trkpt lat="45.60511" lon="4.01823">
        <ele>610.623479</ele>
        <time>2019-10-05T14:52:17.0910Z</time>
      </trkpt>
      <trkpt lat="45.60497" lon="4.01807">
        <ele>610.419812</ele>
        <time>2019-10-05T14:52:31.1010Z</time>
      </trkpt>
      <trkpt lat="45.60479" lon="4.01796">
        <ele>610.294749</ele>
        <time>2019-10-05T14:52:44.0900Z</time>
      </trkpt>
      <trkpt lat="45.60463" lon="4.01782">
        <ele>610.513628</ele>
        <time>2019-10-05T14:52:58.0870Z</time>
      </trkpt>
      <trkpt lat="45.60448" lon="4.01768">
        <ele>610.476487</ele>
        <time>2019-10-05T14:53:10.0800Z</time>
      </trkpt>
      <trkpt lat="45.60431" lon="4.01754">
        <ele>609.207941</ele>
        <time>2019-10-05T14:53:23.0870Z</time>
      </trkpt>
      <trkpt lat="45.60413" lon="4.01744">
        <ele>608.631101</ele>
        <time>2019-10-05T14:53:35.0780Z</time>
      </trkpt>
      <trkpt lat="45.60401" lon="4.01724">
        <ele>606.941745</ele>
        <time>2019-10-05T14:53:48.0850Z</time>
      </trkpt>
      <trkpt lat="45.60389" lon="4.01702">
        <ele>606.538322</ele>
        <time>2019-10-05T14:54:01.0900Z</time>
      </trkpt>
      <trkpt lat="45.60375" lon="4.01684">
        <ele>606.114372</ele>
        <time>2019-10-05T14:54:16.0820Z</time>
      </trkpt>
      <trkpt lat="45.60357" lon="4.01682">
        <ele>604.019208</ele>
        <time>2019-10-05T14:54:30.0720Z</time>
      </trkpt>
      <trkpt lat="45.60347" lon="4.01705">
        <ele>602.866298</ele>
        <time>2019-10-05T14:54:44.0830Z</time>
      </trkpt>
      <trkpt lat="45.60347" lon="4.01731">
        <ele>602.695013</ele>
        <time>2019-10-05T14:54:54.0850Z</time>
      </trkpt>
      <trkpt lat="45.6035" lon="4.01757">
        <ele>603.288431</ele>
        <time>2019-10-05T14:55:06.0800Z</time>
      </trkpt>
      <trkpt lat="45.60353" lon="4.01782">
        <ele>604.204223</ele>
        <time>2019-10-05T14:55:19.0720Z</time>
      </trkpt>
      <trkpt lat="45.60359" lon="4.01808">
        <ele>605.761376</ele>
        <time>2019-10-05T14:55:33.0840Z</time>
      </trkpt>
      <trkpt lat="45.60359" lon="4.01835">
        <ele>607.559794</ele>
        <time>2019-10-05T14:55:46.0810Z</time>
      </trkpt>
      <trkpt lat="45.60363" lon="4.01861">
        <ele>608.507571</ele>
        <time>2019-10-05T14:55:58.0850Z</time>
      </trkpt>
      <trkpt lat="45.60359" lon="4.01887">
        <ele>609.856814</ele>
        <time>2019-10-05T14:56:13.0900Z</time>
      </trkpt>
      <trkpt lat="45.60352" lon="4.01913">
        <ele>611.51696</ele>
        <time>2019-10-05T14:56:27.1040Z</time>
      </trkpt>
      <trkpt lat="45.60347" lon="4.01938">
        <ele>612.329783</ele>
        <time>2019-10-05T14:56:41.0800Z</time>
      </trkpt>
      <trkpt lat="45.60332" lon="4.01954">
        <ele>613.031135</ele>
        <time>2019-10-05T14:56:55.0910Z</time>
      </trkpt>
      <trkpt lat="45.60316" lon="4.01969">
        <ele>615.408387</ele>
        <time>2019-10-05T14:57:10.0790Z</time>
      </trkpt>
      <trkpt lat="45.60304" lon="4.0199">
        <ele>617.650276</ele>
        <time>2019-10-05T14:57:24.0940Z</time>
      </trkpt>
      <trkpt lat="45.6029" lon="4.02006">
        <ele>620.469261</ele>
        <time>2019-10-05T14:57:39.0830Z</time>
      </trkpt>
      <trkpt lat="45.60271" lon="4.02003">
        <ele>624.368032</ele>
        <time>2019-10-05T14:57:55.0940Z</time>
      </trkpt>
      <trkpt lat="45.60252" lon="4.02009">
        <ele>627.626592</ele>
        <time>2019-10-05T14:58:13.0950Z</time>
      </trkpt>
      <trkpt lat="45.60237" lon="4.02025">
        <ele>629.833209</ele>
        <time>2019-10-05T14:58:30.0980Z</time>
      </trkpt>
      <trkpt lat="45.60224" lon="4.02044">
        <ele>630.503683</ele>
        <time>2019-10-05T14:58:46.0880Z</time>
      </trkpt>
      <trkpt lat="45.60218" lon="4.02069">
        <ele>630.759735</ele>
        <time>2019-10-05T14:59:00.0940Z</time>
      </trkpt>
      <trkpt lat="45.60217" lon="4.02095">
        <ele>630.097719</ele>
        <time>2019-10-05T14:59:11.1020Z</time>
      </trkpt>
      <trkpt lat="45.60215" lon="4.02122">
        <ele>629.02762</ele>
        <time>2019-10-05T14:59:24.0890Z</time>
      </trkpt>
      <trkpt lat="45.60217" lon="4.02148">
        <ele>629.179677</ele>
        <time>2019-10-05T14:59:36.0740Z</time>
      </trkpt>
      <trkpt lat="45.60218" lon="4.02175">
        <ele>628.83539</ele>
        <time>2019-10-05T14:59:49.0900Z</time>
      </trkpt>
      <trkpt lat="45.60219" lon="4.02201">
        <ele>628.50965</ele>
        <time>2019-10-05T15:00:02.0780Z</time>
      </trkpt>
      <trkpt lat="45.60224" lon="4.02226">
        <ele>628.433472</ele>
        <time>2019-10-05T15:00:15.0940Z</time>
      </trkpt>
      <trkpt lat="45.60229" lon="4.02253">
        <ele>628.305453</ele>
        <time>2019-10-05T15:00:29.0970Z</time>
      </trkpt>
      <trkpt lat="45.60234" lon="4.02279">
        <ele>627.950926</ele>
        <time>2019-10-05T15:00:44.0960Z</time>
      </trkpt>
      <trkpt lat="45.6024" lon="4.02304">
        <ele>627.251766</ele>
        <time>2019-10-05T15:00:57.0870Z</time>
      </trkpt>
      <trkpt lat="45.60246" lon="4.02329">
        <ele>626.991643</ele>
        <time>2019-10-05T15:01:10.0900Z</time>
      </trkpt>
      <trkpt lat="45.60249" lon="4.02355">
        <ele>626.541511</ele>
        <time>2019-10-05T15:01:23.0930Z</time>
      </trkpt>
      <trkpt lat="45.60254" lon="4.02381">
        <ele>626.166615</ele>
        <time>2019-10-05T15:01:36.0680Z</time>
      </trkpt>
      <trkpt lat="45.60258" lon="4.02408">
        <ele>625.871863</ele>
        <time>2019-10-05T15:01:49.0980Z</time>
      </trkpt>
      <trkpt lat="45.60261" lon="4.02434">
        <ele>624.976262</ele>
        <time>2019-10-05T15:02:01.1150Z</time>
      </trkpt>
      <trkpt lat="45.60262" lon="4.0246">
        <ele>623.513693</ele>
        <time>2019-10-05T15:02:14.0880Z</time>
      </trkpt>
      <trkpt lat="45.60264" lon="4.02486">
        <ele>622.821457</ele>
        <time>2019-10-05T15:02:26.0710Z</time>
      </trkpt>
      <trkpt lat="45.60263" lon="4.02512">
        <ele>622.060801</ele>
        <time>2019-10-05T15:02:38.0980Z</time>
      </trkpt>
      <trkpt lat="45.60269" lon="4.02537">
        <ele>621.228657</ele>
        <time>2019-10-05T15:02:51.1010Z</time>
      </trkpt>
      <trkpt lat="45.60275" lon="4.02562">
        <ele>619.500884</ele>
        <time>2019-10-05T15:03:04.0820Z</time>
      </trkpt>
      <trkpt lat="45.60278" lon="4.02587">
        <ele>618.494062</ele>
        <time>2019-10-05T15:03:16.0780Z</time>
      </trkpt>
      <trkpt lat="45.60283" lon="4.02613">
        <ele>618.501712</ele>
        <time>2019-10-05T15:03:28.0660Z</time>
      </trkpt>
      <trkpt lat="45.6029" lon="4.02639">
        <ele>617.594946</ele>
        <time>2019-10-05T15:03:43.8920Z</time>
      </trkpt>
      <trkpt lat="45.60293" lon="4.02664">
        <ele>617.745679</ele>
        <time>2019-10-05T15:03:56.1080Z</time>
      </trkpt>
      <trkpt lat="45.60296" lon="4.02691">
        <ele>617.818615</ele>
        <time>2019-10-05T15:04:10.0890Z</time>
      </trkpt>
      <trkpt lat="45.60297" lon="4.02719">
        <ele>618.701777</ele>
        <time>2019-10-05T15:04:23.0710Z</time>
      </trkpt>
      <trkpt lat="45.60302" lon="4.02746">
        <ele>620.071844</ele>
        <time>2019-10-05T15:04:37.0660Z</time>
      </trkpt>
      <trkpt lat="45.60309" lon="4.02771">
        <ele>620.193793</ele>
        <time>2019-10-05T15:04:49.0900Z</time>
      </trkpt>
      <trkpt lat="45.60314" lon="4.02797">
        <ele>621.2825</ele>
        <time>2019-10-05T15:05:02.0950Z</time>
      </trkpt>
      <trkpt lat="45.60315" lon="4.02823">
        <ele>621.509513</ele>
        <time>2019-10-05T15:05:15.0950Z</time>
      </trkpt>
      <trkpt lat="45.60314" lon="4.02849">
        <ele>621.856455</ele>
        <time>2019-10-05T15:05:28.0810Z</time>
      </trkpt>
      <trkpt lat="45.60312" lon="4.02876">
        <ele>622.153441</ele>
        <time>2019-10-05T15:05:41.1140Z</time>
      </trkpt>
      <trkpt lat="45.60309" lon="4.02903">
        <ele>621.210085</ele>
        <time>2019-10-05T15:05:55.0920Z</time>
      </trkpt>
      <trkpt lat="45.60302" lon="4.02928">
        <ele>619.057405</ele>
        <time>2019-10-05T15:06:09.0880Z</time>
      </trkpt>
      <trkpt lat="45.60294" lon="4.02952">
        <ele>617.038914</ele>
        <time>2019-10-05T15:06:21.0920Z</time>
      </trkpt>
      <trkpt lat="45.60287" lon="4.02976">
        <ele>613.989184</ele>
        <time>2019-10-05T15:06:33.0910Z</time>
      </trkpt>
      <trkpt lat="45.60275" lon="4.02995">
        <ele>611.450051</ele>
        <time>2019-10-05T15:06:46.0890Z</time>
      </trkpt>
      <trkpt lat="45.60259" lon="4.03007">
        <ele>608.9681</ele>
        <time>2019-10-05T15:07:00.0770Z</time>
      </trkpt>
      <trkpt lat="45.60241" lon="4.03015">
        <ele>605.474331</ele>
        <time>2019-10-05T15:07:15.0930Z</time>
      </trkpt>
      <trkpt lat="45.60226" lon="4.03032">
        <ele>602.457197</ele>
        <time>2019-10-05T15:07:28.0920Z</time>
      </trkpt>
      <trkpt lat="45.60209" lon="4.03044">
        <ele>599.162341</ele>
        <time>2019-10-05T15:07:44.0860Z</time>
      </trkpt>
      <trkpt lat="45.60196" lon="4.03063">
        <ele>596.769493</ele>
        <time>2019-10-05T15:07:57.0920Z</time>
      </trkpt>
      <trkpt lat="45.60188" lon="4.03085">
        <ele>593.4474</ele>
        <time>2019-10-05T15:08:10.0910Z</time>
      </trkpt>
      <trkpt lat="45.6017" lon="4.03094">
        <ele>589.946495</ele>
        <time>2019-10-05T15:08:26.0920Z</time>
      </trkpt>
      <trkpt lat="45.60163" lon="4.03119">
        <ele>585.360468</ele>
        <time>2019-10-05T15:08:43.0740Z</time>
      </trkpt>
      <trkpt lat="45.60159" lon="4.03146">
        <ele>581.931114</ele>
        <time>2019-10-05T15:08:59.0850Z</time>
      </trkpt>
      <trkpt lat="45.60156" lon="4.03172">
        <ele>579.039089</ele>
        <time>2019-10-05T15:09:12.0860Z</time>
      </trkpt>
      <trkpt lat="45.60147" lon="4.03195">
        <ele>575.562373</ele>
        <time>2019-10-05T15:09:27.0900Z</time>
      </trkpt>
      <trkpt lat="45.60139" lon="4.03221">
        <ele>573.029626</ele>
        <time>2019-10-05T15:09:44.0670Z</time>
      </trkpt>
      <trkpt lat="45.60149" lon="4.03243">
        <ele>571.28409</ele>
        <time>2019-10-05T15:09:54.0850Z</time>
      </trkpt>
      <trkpt lat="45.60161" lon="4.03264">
        <ele>570.537548</ele>
        <time>2019-10-05T15:10:03.0570Z</time>
      </trkpt>
      <trkpt lat="45.60168" lon="4.03288">
        <ele>567.95442</ele>
        <time>2019-10-05T15:10:18.0570Z</time>
      </trkpt>
      <trkpt lat="45.6018" lon="4.03308">
        <ele>565.663565</ele>
        <time>2019-10-05T15:10:30.0580Z</time>
      </trkpt>
      <trkpt lat="45.60189" lon="4.0333">
        <ele>563.560441</ele>
        <time>2019-10-05T15:10:45.0940Z</time>
      </trkpt>
      <trkpt lat="45.602" lon="4.03352">
        <ele>561.323414</ele>
        <time>2019-10-05T15:11:00.0920Z</time>
      </trkpt>
      <trkpt lat="45.60212" lon="4.03373">
        <ele>559.654701</ele>
        <time>2019-10-05T15:11:13.0740Z</time>
      </trkpt>
      <trkpt lat="45.60222" lon="4.03394">
        <ele>558.60256</ele>
        <time>2019-10-05T15:11:25.0920Z</time>
      </trkpt>
      <trkpt lat="45.60236" lon="4.03412">
        <ele>557.01599</ele>
        <time>2019-10-05T15:11:41.1100Z</time>
      </trkpt>
      <trkpt lat="45.6025" lon="4.03429">
        <ele>555.090152</ele>
        <time>2019-10-05T15:11:55.0790Z</time>
      </trkpt>
      <trkpt lat="45.60265" lon="4.03444">
        <ele>552.285852</ele>
        <time>2019-10-05T15:12:07.0910Z</time>
      </trkpt>
      <trkpt lat="45.60279" lon="4.0346">
        <ele>548.777034</ele>
        <time>2019-10-05T15:12:23.0960Z</time>
      </trkpt>
      <trkpt lat="45.60286" lon="4.03485">
        <ele>546.305905</ele>
        <time>2019-10-05T15:12:37.0550Z</time>
      </trkpt>
      <trkpt lat="45.60296" lon="4.03507">
        <ele>543.91775</ele>
        <time>2019-10-05T15:12:51.1150Z</time>
      </trkpt>
      <trkpt lat="45.60303" lon="4.03531">
        <ele>541.114897</ele>
        <time>2019-10-05T15:13:06.0900Z</time>
      </trkpt>
      <trkpt lat="45.60309" lon="4.03556">
        <ele>539.309021</ele>
        <time>2019-10-05T15:13:19.0700Z</time>
      </trkpt>
      <trkpt lat="45.60313" lon="4.03583">
        <ele>536.996569</ele>
        <time>2019-10-05T15:13:32.0920Z</time>
      </trkpt>
      <trkpt lat="45.60318" lon="4.03609">
        <ele>535.245537</ele>
        <time>2019-10-05T15:13:46.0790Z</time>
      </trkpt>
      <trkpt lat="45.60322" lon="4.03635">
        <ele>534.088248</ele>
        <time>2019-10-05T15:14:00.0780Z</time>
      </trkpt>
      <trkpt lat="45.6033" lon="4.0366">
        <ele>532.859844</ele>
        <time>2019-10-05T15:14:16.0820Z</time>
      </trkpt>
      <trkpt lat="45.60342" lon="4.03681">
        <ele>532.312585</ele>
        <time>2019-10-05T15:14:32.0930Z</time>
      </trkpt>
      <trkpt lat="45.6036" lon="4.03686">
        <ele>532.924742</ele>
        <time>2019-10-05T15:15:05.0890Z</time>
      </trkpt>
      <trkpt lat="45.60378" lon="4.03696">
        <ele>531.220638</ele>
        <time>2019-10-05T15:15:19.0890Z</time>
      </trkpt>
      <trkpt lat="45.6038" lon="4.03722">
        <ele>529.401234</ele>
        <time>2019-10-05T15:15:34.0980Z</time>
      </trkpt>
      <trkpt lat="45.60384" lon="4.03748">
        <ele>527.07834</ele>
        <time>2019-10-05T15:15:47.0890Z</time>
      </trkpt>
      <trkpt lat="45.60385" lon="4.03777">
        <ele>523.872755</ele>
        <time>2019-10-05T15:16:01.1030Z</time>
      </trkpt>
      <trkpt lat="45.6039" lon="4.03802">
        <ele>521.144203</ele>
        <time>2019-10-05T15:16:13.0670Z</time>
      </trkpt>
      <trkpt lat="45.60398" lon="4.03826">
        <ele>517.33024</ele>
        <time>2019-10-05T15:16:25.0630Z</time>
      </trkpt>
      <trkpt lat="45.60411" lon="4.03844">
        <ele>514.443158</ele>
        <time>2019-10-05T15:16:38.0830Z</time>
      </trkpt>
      <trkpt lat="45.60424" lon="4.03863">
        <ele>511.187158</ele>
        <time>2019-10-05T15:16:50.0930Z</time>
      </trkpt>
      <trkpt lat="45.60438" lon="4.03882">
        <ele>507.858567</ele>
        <time>2019-10-05T15:17:02.0710Z</time>
      </trkpt>
      <trkpt lat="45.60452" lon="4.03899">
        <ele>505.982608</ele>
        <time>2019-10-05T15:17:13.0830Z</time>
      </trkpt>
      <trkpt lat="45.60471" lon="4.03908">
        <ele>501.360994</ele>
        <time>2019-10-05T15:17:24.0910Z</time>
      </trkpt>
      <trkpt lat="45.60489" lon="4.03915">
        <ele>498.596486</ele>
        <time>2019-10-05T15:17:35.0820Z</time>
      </trkpt>
      <trkpt lat="45.60499" lon="4.0389">
        <ele>494.78138</ele>
        <time>2019-10-05T15:17:46.0830Z</time>
      </trkpt>
      <trkpt lat="45.6051" lon="4.03869">
        <ele>492.423446</ele>
        <time>2019-10-05T15:17:57.0890Z</time>
      </trkpt>
      <trkpt lat="45.60514" lon="4.03843">
        <ele>490.914211</ele>
        <time>2019-10-05T15:18:09.0940Z</time>
      </trkpt>
      <trkpt lat="45.6052" lon="4.03817">
        <ele>489.806255</ele>
        <time>2019-10-05T15:18:23.0720Z</time>
      </trkpt>
      <trkpt lat="45.60535" lon="4.038">
        <ele>485.457863</ele>
        <time>2019-10-05T15:18:37.0650Z</time>
      </trkpt>
      <trkpt lat="45.60552" lon="4.03789">
        <ele>479.428952</ele>
        <time>2019-10-05T15:18:50.0790Z</time>
      </trkpt>
      <trkpt lat="45.60565" lon="4.03807">
        <ele>477.825182</ele>
        <time>2019-10-05T15:19:04.0960Z</time>
      </trkpt>
      <trkpt lat="45.60579" lon="4.03826">
        <ele>475.993881</ele>
        <time>2019-10-05T15:19:17.0940Z</time>
      </trkpt>
      <trkpt lat="45.60594" lon="4.03842">
        <ele>473.036591</ele>
        <time>2019-10-05T15:19:29.0960Z</time>
      </trkpt>
      <trkpt lat="45.60601" lon="4.03868">
        <ele>469.780553</ele>
        <time>2019-10-05T15:19:41.1060Z</time>
      </trkpt>
      <trkpt lat="45.60599" lon="4.03894">
        <ele>467.970902</ele>
        <time>2019-10-05T15:19:54.0640Z</time>
      </trkpt>
      <trkpt lat="45.60594" lon="4.0392">
        <ele>466.692867</ele>
        <time>2019-10-05T15:20:08.0890Z</time>
      </trkpt>
      <trkpt lat="45.6059" lon="4.03945">
        <ele>465.230798</ele>
        <time>2019-10-05T15:20:22.0850Z</time>
      </trkpt>
      <trkpt lat="45.6059" lon="4.03972">
        <ele>462.34331</ele>
        <time>2019-10-05T15:20:35.0720Z</time>
      </trkpt>
      <trkpt lat="45.6059" lon="4.03998">
        <ele>458.542631</ele>
        <time>2019-10-05T15:20:49.0850Z</time>
      </trkpt>
      <trkpt lat="45.60591" lon="4.04026">
        <ele>457.254668</ele>
        <time>2019-10-05T15:21:02.0900Z</time>
      </trkpt>
      <trkpt lat="45.606" lon="4.0405">
        <ele>454.283604</ele>
        <time>2019-10-05T15:21:13.0780Z</time>
      </trkpt>
      <trkpt lat="45.60603" lon="4.04078">
        <ele>451.860176</ele>
        <time>2019-10-05T15:21:24.0890Z</time>
      </trkpt>
      <trkpt lat="45.60608" lon="4.04104">
        <ele>449.003708</ele>
        <time>2019-10-05T15:21:37.0990Z</time>
      </trkpt>
      <trkpt lat="45.60612" lon="4.04131">
        <ele>445.432217</ele>
        <time>2019-10-05T15:21:51.0890Z</time>
      </trkpt>
      <trkpt lat="45.60619" lon="4.04156">
        <ele>441.555945</ele>
        <time>2019-10-05T15:22:05.0850Z</time>
      </trkpt>
      <trkpt lat="45.60626" lon="4.0418">
        <ele>437.731234</ele>
        <time>2019-10-05T15:22:16.0880Z</time>
      </trkpt>
      <trkpt lat="45.60634" lon="4.04206">
        <ele>434.962854</ele>
        <time>2019-10-05T15:22:30.0830Z</time>
      </trkpt>
      <trkpt lat="45.60635" lon="4.04232">
        <ele>432.696446</ele>
        <time>2019-10-05T15:22:43.0820Z</time>
      </trkpt>
      <trkpt lat="45.60637" lon="4.04259">
        <ele>431.181861</ele>
        <time>2019-10-05T15:22:55.0830Z</time>
      </trkpt>
      <trkpt lat="45.60633" lon="4.04285">
        <ele>428.995266</ele>
        <time>2019-10-05T15:23:08.0820Z</time>
      </trkpt>
      <trkpt lat="45.60635" lon="4.04312">
        <ele>427.634322</ele>
        <time>2019-10-05T15:23:25.0840Z</time>
      </trkpt>
      <trkpt lat="45.60633" lon="4.04337">
        <ele>423.5018</ele>
        <time>2019-10-05T15:23:38.0660Z</time>
      </trkpt>
      <trkpt lat="45.60644" lon="4.04359">
        <ele>422.278664</ele>
        <time>2019-10-05T15:23:48.0610Z</time>
      </trkpt>
      <trkpt lat="45.60654" lon="4.04381">
        <ele>421.444752</ele>
        <time>2019-10-05T15:24:07.0810Z</time>
      </trkpt>
      <trkpt lat="45.60656" lon="4.04407">
        <ele>425.904907</ele>
        <time>2019-10-05T15:25:55.0790Z</time>
      </trkpt>
      <trkpt lat="45.60651" lon="4.04432">
        <ele>425.257023</ele>
        <time>2019-10-05T15:26:16.0910Z</time>
      </trkpt>
      <trkpt lat="45.6065" lon="4.04459">
        <ele>424.878479</ele>
        <time>2019-10-05T15:26:35.0850Z</time>
      </trkpt>
      <trkpt lat="45.60647" lon="4.04485">
        <ele>424.232559</ele>
        <time>2019-10-05T15:26:50.0750Z</time>
      </trkpt>
      <trkpt lat="45.60643" lon="4.04511">
        <ele>423.931795</ele>
        <time>2019-10-05T15:27:05.1350Z</time>
      </trkpt>
      <trkpt lat="45.60642" lon="4.04538">
        <ele>423.93953</ele>
        <time>2019-10-05T15:27:20.0560Z</time>
      </trkpt>
      <trkpt lat="45.60638" lon="4.04563">
        <ele>423.532361</ele>
        <time>2019-10-05T15:27:35.7350Z</time>
      </trkpt>
      <trkpt lat="45.6063" lon="4.04586">
        <ele>422.639774</ele>
        <time>2019-10-05T15:27:50.0700Z</time>
      </trkpt>
      <trkpt lat="45.60616" lon="4.04605">
        <ele>421.534626</ele>
        <time>2019-10-05T15:28:08.0590Z</time>
      </trkpt>
      <trkpt lat="45.60611" lon="4.04631">
        <ele>421.17741</ele>
        <time>2019-10-05T15:28:24.0900Z</time>
      </trkpt>
      <trkpt lat="45.60603" lon="4.04656">
        <ele>420.383508</ele>
        <time>2019-10-05T15:28:41.0960Z</time>
      </trkpt>
      <trkpt lat="45.60601" lon="4.04683">
        <ele>419.843176</ele>
        <time>2019-10-05T15:28:54.0920Z</time>
      </trkpt>
      <trkpt lat="45.60601" lon="4.04709">
        <ele>419.54068</ele>
        <time>2019-10-05T15:29:08.0930Z</time>
      </trkpt>
      <trkpt lat="45.60605" lon="4.04736">
        <ele>418.850634</ele>
        <time>2019-10-05T15:29:23.0740Z</time>
      </trkpt>
      <trkpt lat="45.60608" lon="4.04762">
        <ele>418.456051</ele>
        <time>2019-10-05T15:29:38.0700Z</time>
      </trkpt>
      <trkpt lat="45.60611" lon="4.04787">
        <ele>417.934443</ele>
        <time>2019-10-05T15:29:53.0850Z</time>
      </trkpt>
      <trkpt lat="45.60614" lon="4.04814">
        <ele>417.170277</ele>
        <time>2019-10-05T15:30:09.0910Z</time>
      </trkpt>
      <trkpt lat="45.60616" lon="4.04841">
        <ele>417.023557</ele>
        <time>2019-10-05T15:30:24.0880Z</time>
      </trkpt>
      <trkpt lat="45.60618" lon="4.04867">
        <ele>416.785537</ele>
        <time>2019-10-05T15:30:37.0860Z</time>
      </trkpt>
      <trkpt lat="45.60624" lon="4.04892">
        <ele>416.121441</ele>
        <time>2019-10-05T15:30:53.0570Z</time>
      </trkpt>
      <trkpt lat="45.60627" lon="4.0492">
        <ele>415.555758</ele>
        <time>2019-10-05T15:31:09.0910Z</time>
      </trkpt>
      <trkpt lat="45.60645" lon="4.04924">
        <ele>415.035727</ele>
        <time>2019-10-05T15:31:25.0920Z</time>
      </trkpt>
      <trkpt lat="45.60663" lon="4.04918">
        <ele>414.770814</ele>
        <time>2019-10-05T15:31:38.0870Z</time>
      </trkpt>
      <trkpt lat="45.60679" lon="4.04906">
        <ele>414.17842</ele>
        <time>2019-10-05T15:31:52.0910Z</time>
      </trkpt>
      <trkpt lat="45.60697" lon="4.04911">
        <ele>413.997065</ele>
        <time>2019-10-05T15:32:08.0880Z</time>
      </trkpt>
      <trkpt lat="45.60703" lon="4.04937">
        <ele>414.657559</ele>
        <time>2019-10-05T15:32:25.0800Z</time>
      </trkpt>
      <trkpt lat="45.60705" lon="4.04963">
        <ele>414.739848</ele>
        <time>2019-10-05T15:32:41.0880Z</time>
      </trkpt>
      <trkpt lat="45.60701" lon="4.04989">
        <ele>414.497061</ele>
        <time>2019-10-05T15:32:56.0620Z</time>
      </trkpt>
      <trkpt lat="45.60699" lon="4.05015">
        <ele>414.965411</ele>
        <time>2019-10-05T15:33:11.1140Z</time>
      </trkpt>
      <trkpt lat="45.60701" lon="4.05042">
        <ele>415.224316</ele>
        <time>2019-10-05T15:33:25.0910Z</time>
      </trkpt>
      <trkpt lat="45.60703" lon="4.05068">
        <ele>415.18518</ele>
        <time>2019-10-05T15:33:41.0970Z</time>
      </trkpt>
      <trkpt lat="45.60705" lon="4.05096">
        <ele>415.485454</ele>
        <time>2019-10-05T15:33:56.0900Z</time>
      </trkpt>
      <trkpt lat="45.60709" lon="4.05122">
        <ele>415.181445</ele>
        <time>2019-10-05T15:34:10.0780Z</time>
      </trkpt>
      <trkpt lat="45.60709" lon="4.05149">
        <ele>414.48364</ele>
        <time>2019-10-05T15:34:25.0950Z</time>
      </trkpt>
      <trkpt lat="45.60707" lon="4.05175">
        <ele>414.573377</ele>
        <time>2019-10-05T15:34:40.0930Z</time>
      </trkpt>
      <trkpt lat="45.60694" lon="4.05192">
        <ele>414.783978</ele>
        <time>2019-10-05T15:34:54.0900Z</time>
      </trkpt>
      <trkpt lat="45.60688" lon="4.05217">
        <ele>415.457674</ele>
        <time>2019-10-05T15:35:09.0880Z</time>
      </trkpt>
      <trkpt lat="45.60691" lon="4.05244">
        <ele>417.080431</ele>
        <time>2019-10-05T15:35:23.0790Z</time>
      </trkpt>
      <trkpt lat="45.60693" lon="4.05271">
        <ele>419.19581</ele>
        <time>2019-10-05T15:35:40.0930Z</time>
      </trkpt>
      <trkpt lat="45.60695" lon="4.05297">
        <ele>420.090401</ele>
        <time>2019-10-05T15:35:55.0790Z</time>
      </trkpt>
      <trkpt lat="45.60698" lon="4.05323">
        <ele>419.179863</ele>
        <time>2019-10-05T15:36:11.1040Z</time>
      </trkpt>
      <trkpt lat="45.607" lon="4.0535">
        <ele>418.356049</ele>
        <time>2019-10-05T15:36:24.0900Z</time>
      </trkpt>
      <trkpt lat="45.60702" lon="4.05376">
        <ele>418.131844</ele>
        <time>2019-10-05T15:36:39.0740Z</time>
      </trkpt>
      <trkpt lat="45.60702" lon="4.05403">
        <ele>417.79638</ele>
        <time>2019-10-05T15:36:53.0790Z</time>
      </trkpt>
      <trkpt lat="45.60706" lon="4.05428">
        <ele>417.630977</ele>
        <time>2019-10-05T15:37:07.0890Z</time>
      </trkpt>
      <trkpt lat="45.60714" lon="4.05453">
        <ele>417.808443</ele>
        <time>2019-10-05T15:37:20.0890Z</time>
      </trkpt>
      <trkpt lat="45.60721" lon="4.05478">
        <ele>418.286269</ele>
        <time>2019-10-05T15:37:34.1120Z</time>
      </trkpt>
      <trkpt lat="45.60728" lon="4.05503">
        <ele>417.346802</ele>
        <time>2019-10-05T15:37:47.0490Z</time>
      </trkpt>
      <trkpt lat="45.60732" lon="4.05528">
        <ele>416.329092</ele>
        <time>2019-10-05T15:38:02.0670Z</time>
      </trkpt>
      <trkpt lat="45.60733" lon="4.05555">
        <ele>414.760452</ele>
        <time>2019-10-05T15:38:18.0750Z</time>
      </trkpt>
      <trkpt lat="45.60732" lon="4.05583">
        <ele>409.812881</ele>
        <time>2019-10-05T15:38:30.0920Z</time>
      </trkpt>
      <trkpt lat="45.60737" lon="4.05609">
        <ele>409.017677</ele>
        <time>2019-10-05T15:38:42.0610Z</time>
      </trkpt>
      <trkpt lat="45.60744" lon="4.05634">
        <ele>408.515985</ele>
        <time>2019-10-05T15:38:56.0720Z</time>
      </trkpt>
      <trkpt lat="45.60747" lon="4.0566">
        <ele>407.736415</ele>
        <time>2019-10-05T15:39:14.6390Z</time>
      </trkpt>
      <trkpt lat="45.60752" lon="4.05685">
        <ele>406.719521</ele>
        <time>2019-10-05T15:39:24.1490Z</time>
      </trkpt>
      <trkpt lat="45.60755" lon="4.05711">
        <ele>405.726088</ele>
        <time>2019-10-05T15:39:39.1160Z</time>
      </trkpt>
      <trkpt lat="45.60758" lon="4.05736">
        <ele>405.117295</ele>
        <time>2019-10-05T15:39:53.0850Z</time>
      </trkpt>
      <trkpt lat="45.60756" lon="4.05762">
        <ele>404.518582</ele>
        <time>2019-10-05T15:40:09.0880Z</time>
      </trkpt>
      <trkpt lat="45.6076" lon="4.05788">
        <ele>405.355337</ele>
        <time>2019-10-05T15:40:26.1520Z</time>
      </trkpt>
      <trkpt lat="45.60766" lon="4.05813">
        <ele>405.554782</ele>
        <time>2019-10-05T15:40:40.1380Z</time>
      </trkpt>
      <trkpt lat="45.60772" lon="4.05837">
        <ele>405.242814</ele>
        <time>2019-10-05T15:40:53.0870Z</time>
      </trkpt>
      <trkpt lat="45.6078" lon="4.05862">
        <ele>404.99598</ele>
        <time>2019-10-05T15:41:07.1240Z</time>
      </trkpt>
      <trkpt lat="45.60785" lon="4.05887">
        <ele>404.209296</ele>
        <time>2019-10-05T15:41:21.2410Z</time>
      </trkpt>
      <trkpt lat="45.60794" lon="4.0591">
        <ele>403.535743</ele>
        <time>2019-10-05T15:41:35.0610Z</time>
      </trkpt>
      <trkpt lat="45.60804" lon="4.05933">
        <ele>402.946302</ele>
        <time>2019-10-05T15:41:50.0610Z</time>
      </trkpt>
      <trkpt lat="45.60806" lon="4.05961">
        <ele>402.223646</ele>
        <time>2019-10-05T15:42:03.0780Z</time>
      </trkpt>
      <trkpt lat="45.60811" lon="4.05987">
        <ele>401.616796</ele>
        <time>2019-10-05T15:42:18.2310Z</time>
      </trkpt>
      <trkpt lat="45.60826" lon="4.06002">
        <ele>401.513953</ele>
        <time>2019-10-05T15:42:35.0910Z</time>
      </trkpt>
      <trkpt lat="45.60844" lon="4.05996">
        <ele>402.969662</ele>
        <time>2019-10-05T15:42:51.0490Z</time>
      </trkpt>
      <trkpt lat="45.60859" lon="4.0598">
        <ele>403.807427</ele>
        <time>2019-10-05T15:43:06.1070Z</time>
      </trkpt>
      <trkpt lat="45.60875" lon="4.05968">
        <ele>402.328633</ele>
        <time>2019-10-05T15:43:25.1000Z</time>
      </trkpt>
      <trkpt lat="45.60874" lon="4.05942">
        <ele>402.705381</ele>
        <time>2019-10-05T15:43:48.0720Z</time>
      </trkpt>
      <trkpt lat="45.60893" lon="4.05935">
        <ele>402.531204</ele>
        <time>2019-10-05T15:48:31.0710Z</time>
      </trkpt>
      <trkpt lat="45.60879" lon="4.05952">
        <ele>401.807947</ele>
        <time>2019-10-05T15:51:06.0850Z</time>
      </trkpt>
      <trkpt lat="45.6087" lon="4.05975">
        <ele>401.81657</ele>
        <time>2019-10-05T15:51:22.0840Z</time>
      </trkpt>
      <trkpt lat="45.60855" lon="4.05989">
        <ele>400.751779</ele>
        <time>2019-10-05T15:51:38.1230Z</time>
      </trkpt>
      <trkpt lat="45.60837" lon="4.05998">
        <ele>399.130363</ele>
        <time>2019-10-05T15:51:57.0970Z</time>
      </trkpt>
      <trkpt lat="45.60819" lon="4.06001">
        <ele>397.704417</ele>
        <time>2019-10-05T15:52:15.0870Z</time>
      </trkpt>
      <trkpt lat="45.60819" lon="4.06027">
        <ele>397.573617</ele>
        <time>2019-10-05T15:52:31.5110Z</time>
      </trkpt>
      <trkpt lat="45.60822" lon="4.06053">
        <ele>396.550274</ele>
        <time>2019-10-05T15:52:45.1730Z</time>
      </trkpt>
      <trkpt lat="45.60819" lon="4.0608">
        <ele>395.955766</ele>
        <time>2019-10-05T15:53:04.1660Z</time>
      </trkpt>
      <trkpt lat="45.60809" lon="4.06102">
        <ele>395.221376</ele>
        <time>2019-10-05T15:53:20.0630Z</time>
      </trkpt>
      <trkpt lat="45.60791" lon="4.06108">
        <ele>394.61077</ele>
        <time>2019-10-05T15:53:36.0600Z</time>
      </trkpt>
      <trkpt lat="45.60777" lon="4.06124">
        <ele>394.842383</ele>
        <time>2019-10-05T15:54:16.0670Z</time>
      </trkpt>
      <trkpt lat="45.60781" lon="4.0615">
        <ele>394.349934</ele>
        <time>2019-10-05T15:54:40.0830Z</time>
      </trkpt>
      <trkpt lat="45.60788" lon="4.06173">
        <ele>394.280492</ele>
        <time>2019-10-05T15:55:05.0610Z</time>
      </trkpt>
      <trkpt lat="45.60788" lon="4.06199">
        <ele>394.168263</ele>
        <time>2019-10-05T15:55:32.1070Z</time>
      </trkpt>
      <trkpt lat="45.60777" lon="4.0622">
        <ele>393.812199</ele>
        <time>2019-10-05T15:55:54.0590Z</time>
      </trkpt>
      <trkpt lat="45.6076" lon="4.06232">
        <ele>393.891173</ele>
        <time>2019-10-05T15:56:10.0630Z</time>
      </trkpt>
      <trkpt lat="45.60769" lon="4.06254">
        <ele>394.281205</ele>
        <time>2019-10-05T15:56:26.3070Z</time>
      </trkpt>
      <trkpt lat="45.60769" lon="4.0628">
        <ele>393.96178</ele>
        <time>2019-10-05T15:56:39.0740Z</time>
      </trkpt>
      <trkpt lat="45.60779" lon="4.06302">
        <ele>393.51618</ele>
        <time>2019-10-05T15:56:56.0550Z</time>
      </trkpt>
      <trkpt lat="45.60791" lon="4.06321">
        <ele>393.269024</ele>
        <time>2019-10-05T15:57:17.0460Z</time>
      </trkpt>
      <trkpt lat="45.60808" lon="4.06334">
        <ele>393.219203</ele>
        <time>2019-10-05T15:57:33.2920Z</time>
      </trkpt>
      <trkpt lat="45.60815" lon="4.06358">
        <ele>392.999608</ele>
        <time>2019-10-05T15:57:50.0500Z</time>
      </trkpt>
      <trkpt lat="45.60824" lon="4.06381">
        <ele>393.306216</ele>
        <time>2019-10-05T15:58:04.0480Z</time>
      </trkpt>
      <trkpt lat="45.60842" lon="4.06377">
        <ele>393.267752</ele>
        <time>2019-10-05T15:58:27.0600Z</time>
      </trkpt>
      <trkpt lat="45.60853" lon="4.06398">
        <ele>392.720763</ele>
        <time>2019-10-05T15:58:38.0970Z</time>
      </trkpt>
      <trkpt lat="45.60861" lon="4.06422">
        <ele>393.224632</ele>
        <time>2019-10-05T15:58:52.1010Z</time>
      </trkpt>
      <trkpt lat="45.60872" lon="4.06442">
        <ele>393.491661</ele>
        <time>2019-10-05T15:59:06.0720Z</time>
      </trkpt>
      <trkpt lat="45.60882" lon="4.06464">
        <ele>393.482034</ele>
        <time>2019-10-05T15:59:23.0480Z</time>
      </trkpt>
      <trkpt lat="45.60864" lon="4.06474">
        <ele>392.133721</ele>
        <time>2019-10-05T15:59:43.1240Z</time>
      </trkpt>
      <trkpt lat="45.60849" lon="4.06488">
        <ele>391.768819</ele>
        <time>2019-10-05T15:59:56.0500Z</time>
      </trkpt>
      <trkpt lat="45.60841" lon="4.06511">
        <ele>391.79029</ele>
        <time>2019-10-05T16:00:21.0640Z</time>
      </trkpt>
      <trkpt lat="45.60836" lon="4.06536">
        <ele>391.340237</ele>
        <time>2019-10-05T16:00:36.0880Z</time>
      </trkpt>
      <trkpt lat="45.60824" lon="4.06556">
        <ele>390.818093</ele>
        <time>2019-10-05T16:00:51.1140Z</time>
      </trkpt>
      <trkpt lat="45.6081" lon="4.06575">
        <ele>390.231116</ele>
        <time>2019-10-05T16:01:05.4040Z</time>
      </trkpt>
      <trkpt lat="45.60808" lon="4.06602">
        <ele>390.228416</ele>
        <time>2019-10-05T16:01:18.0130Z</time>
      </trkpt>
      <trkpt lat="45.60809" lon="4.0663">
        <ele>389.089646</ele>
        <time>2019-10-05T16:01:37.0480Z</time>
      </trkpt>
      <trkpt lat="45.6079" lon="4.06636">
        <ele>388.752757</ele>
        <time>2019-10-05T16:01:52.0740Z</time>
      </trkpt>
      <trkpt lat="45.60773" lon="4.06644">
        <ele>388.094503</ele>
        <time>2019-10-05T16:02:09.0540Z</time>
      </trkpt>
      <trkpt lat="45.60759" lon="4.06661">
        <ele>387.591656</ele>
        <time>2019-10-05T16:02:27.0780Z</time>
      </trkpt>
      <trkpt lat="45.6075" lon="4.06684">
        <ele>387.924025</ele>
        <time>2019-10-05T16:02:41.1600Z</time>
      </trkpt>
      <trkpt lat="45.60752" lon="4.0671">
        <ele>387.353472</ele>
        <time>2019-10-05T16:02:57.0610Z</time>
      </trkpt>
      <trkpt lat="45.60756" lon="4.06736">
        <ele>386.923859</ele>
        <time>2019-10-05T16:03:11.1180Z</time>
      </trkpt>
      <trkpt lat="45.6076" lon="4.06762">
        <ele>386.618025</ele>
        <time>2019-10-05T16:03:28.0500Z</time>
      </trkpt>
      <trkpt lat="45.60765" lon="4.06789">
        <ele>386.334383</ele>
        <time>2019-10-05T16:03:47.0890Z</time>
      </trkpt>
      <trkpt lat="45.60781" lon="4.06803">
        <ele>386.280446</ele>
        <time>2019-10-05T16:04:12.1040Z</time>
      </trkpt>
      <trkpt lat="45.60793" lon="4.06823">
        <ele>386.470209</ele>
        <time>2019-10-05T16:06:19.0600Z</time>
      </trkpt>
      <trkpt lat="45.60792" lon="4.06839">
        <ele>390.225172</ele>
        <time>2019-10-05T16:10:25.6250Z</time>
      </trkpt>
    </trkseg>
  </trk>
</gpx>